[[{"header":{"parameterUnit":"m.s-1","parameterCategory":1,"la1":31.0,"la2":29.5877,"lo1":-88.7671,"lo2":-86.6584,"dy":0.0162,"dx":0.0185,"nx":115,"ny":88,"refTime":"2024-02-21T06:00:00:Z","depth":0,"parameterNumber":2,"parameterNumberName":"U-component_of_WINDS"},"data":[0.0,0.0,0.0,0.0,0.0,0.0,0.0,0.0,0.0,0.0,0.0,0.0,0.0,0.0,0.0,0.0,0.0,0.0,0.0,0.0,0.0,0.0,0.0,0.0,0.0,0.0,0.0,0.0,0.0,0.0,0.0,0.0,0.0,0.0,0.0,0.0,0.0,0.0,0.0,0.0,0.0,0.0,0.0,0.0,0.0,0.0,0.0,0.0,0.0,0.0,0.0,0.0,0.0,0.0,0.0,0.0,0.0,0.0,0.0,0.0,0.0,0.0,0.0,0.0,0.0,0.0,0.0,0.0,0.0,0.0,0.0,0.0,0.0,0.0,0.0,0.0,0.0,0.0,0.0,0.0,0.0,0.0,0.0,0.0,0.0,0.0,0.0,0.0,0.0,0.0,0.0,0.0,0.0,0.0,0.0,0.0,0.0,0.0,0.0,0.0,0.0,0.0,0.0,0.0,0.0,0.0,0.0,0.0,0.0,0.0,0.0,0.0,0.0,0.0,0.0,0.0,0.0,0.0,0.0,0.0,0.0,0.0,0.0,0.0,0.0,0.0,0.0,0.0,0.0,0.0,0.0,0.0,0.0,0.0,0.0,0.0,0.0,0.0,0.0,0.0,0.0,0.0,0.0,0.0,0.0,0.0,0.0,0.0,0.0,0.0,0.0,0.0,0.0,0.0,0.0,0.0,0.0,0.0,0.0,0.0,0.0,0.0,0.0,0.0,0.0,0.0,0.0,0.0,0.0,0.0,0.0,0.0,0.0,0.0,0.0,0.0,0.0,0.0,0.0,0.0,0.0,0.0,0.0,0.0,0.0,0.0,0.0,0.0,0.0,0.0,0.0,0.0,0.0,0.0,0.0,0.0,0.0,0.0,0.0,0.0,0.0,0.0,0.0,0.0,0.0,0.0,0.0,0.0,0.0,0.0,0.0,0.0,0.0,0.0,0.0,0.0,0.0,0.0,0.0,0.0,0.0,0.0,0.0,0.0,0.0,0.0,0.0,0.0,0.0,0.0,0.0,0.0,0.0,0.0,0.0,0.0,0.0,0.0,0.0,0.0,0.0,0.0,0.0,0.0,0.0,0.0,0.0,0.0,0.0,0.0,0.0,0.0,0.0,0.0,0.0,0.0,0.0,0.0,0.0,0.0,0.0,0.0,0.0,0.0,0.0,0.0,0.0,0.0,0.0,0.0,0.0,0.0,0.0,0.0,0.0,0.0,0.0,0.0,0.0,0.0,0.0,0.0,0.0,0.0,0.0,0.0,0.0,0.0,0.0,0.0,0.0,0.0,0.0,0.0,0.0,0.0,0.0,0.0,0.0,0.0,0.0,0.0,0.0,0.0,0.0,0.0,0.0,0.0,0.0,0.0,0.0,0.0,0.0,0.0,0.0,0.0,0.0,0.0,0.0,0.0,0.0,0.0,0.0,0.0,0.0,0.0,0.0,0.0,0.0,0.0,0.0,0.0,0.0,0.0,0.0,0.0,0.0,0.0,0.0,0.0,0.0,0.0,0.0,0.0,0.0,0.0,0.0,0.0,0.0,0.0,0.0,0.0,0.0,0.0,0.0,0.0,0.0,0.0,0.0,0.0,0.0,0.0,0.0,0.0,0.0,0.0,0.0,0.0,0.0,0.0,0.0,0.0,0.0,0.0,0.0,0.0,0.0,0.0,0.0,0.0,0.0,0.0,0.0,0.0,0.0,0.0,0.0,0.0,0.0,0.0,0.0,0.0,0.0,0.0,0.0,0.0,0.0,0.0,0.0,0.0,0.0,0.0,0.0,0.0,0.0,0.0,0.0,0.0,0.0,0.0,0.0,0.0,0.0,0.0,0.0,0.0,0.0,0.0,0.0,0.0,0.0,0.0,0.0,0.0,0.0,0.0,0.0,0.0,0.0,0.0,0.0,0.0,0.0,0.0,0.0,0.0,0.0,0.0,0.0,0.0,0.0,0.0,0.0,0.0,0.0,0.0,0.0,0.0,0.0,0.0,0.0,0.0,0.0,0.0,0.0,0.0,0.0,0.0,0.0,0.0,0.0,0.0,0.0,0.0,0.0,0.0,0.0,0.0,0.0,0.0,0.0,0.0,0.0,0.0,0.0,0.0,0.0,0.0,0.0,0.0,0.0,0.0,0.0,0.0,0.0,0.0,0.0,0.0,0.0,0.0,0.0,0.0,0.0,0.0,0.0,0.0,0.0,0.0,0.0,0.0,0.0,0.0,0.0,0.0,0.0,0.0,0.0,0.0,0.0,0.0,0.0,0.0,0.0,0.0,0.0,0.0,0.0,0.0,0.0,0.0,0.0,0.0,0.0,0.0,0.0,0.0,0.0,0.0,0.0,0.0,0.0,0.0,0.0,0.0,0.0,0.0,0.0,0.0,0.0,0.0,0.0,0.0,0.0,0.0,0.0,0.0,0.0,0.0,0.0,0.0,0.0,0.0,0.0,0.0,0.0,0.0,0.0,0.0,0.0,0.0,0.0,0.0,0.0,0.0,0.0,0.0,0.0,0.0,0.0,0.0,0.0,0.0,0.0,0.0,0.0,0.0,0.0,0.0,0.0,0.0,0.0,0.0,0.0,0.0,0.0,0.0,0.0,0.0,0.0,0.0,0.0,0.0,0.0,0.0,0.0,0.0,0.0,0.0,0.0,0.0,0.0,0.0,0.0,0.0,0.0,0.0,0.0,0.0,0.0,0.0,0.0,0.0,0.0,0.0,0.0,0.0,0.0,0.0,0.0,0.0,0.0,0.0,0.0,0.0,0.0,0.0,0.0,0.0,0.0,0.0,0.0,0.0,0.0,0.0,0.0,0.0,0.0,0.0,0.0,0.0,0.0,0.0,0.0,0.0,0.0,0.0,0.0,0.0,0.0,0.0,0.0,0.0,0.0,0.0,0.0,0.0,0.0,0.0,0.0,0.0,0.0,0.0,0.0,0.0,0.0,0.0,0.0,0.0,0.0,0.0,0.0,0.0,0.0,0.0,0.0,0.0,0.0,0.0,0.0,0.0,0.0,0.0,0.0,0.0,0.0,0.0,0.0,0.0,0.0,0.0,0.0,0.0,0.0,0.0,0.0,0.0,0.0,0.0,0.0,0.0,0.0,0.0,0.0,0.0,0.0,0.0,0.0,0.0,0.0,0.0,0.0,0.0,0.0,0.0,0.0,0.0,0.0,0.0,0.0,0.0,0.0,0.0,0.0,0.0,0.0,0.0,0.0,0.0,0.0,0.0,0.0,0.0,0.0,0.0,0.0,0.0,0.0,0.0,0.0,0.0,0.0,0.0,0.0,0.0,0.0,0.0,0.0,0.0,0.0,0.0,0.0,0.0,0.0,0.0,0.0,0.0,0.0,0.0,0.0,0.0,0.0,0.0,0.0,0.0,0.0,0.0,0.0,0.0,0.0,0.0,0.0,0.0,0.0,0.0,0.0,0.0,0.0,0.0,0.0,0.0,0.0,0.0,0.0,0.0,0.0,0.0,0.0,0.0,0.0,0.0,0.0,0.0,0.0,0.0,0.0,0.0,0.0,0.0,0.0,0.0,0.0,0.0,0.0,0.0,0.0,0.0,0.0,0.0,0.0,0.0,0.0,0.0,0.0,0.0,0.0,0.0,0.0,0.0,0.0,0.0,0.0,0.0,0.0,0.0,0.0,0.0,0.0,0.0,0.0,0.0,0.0,0.0,0.0,0.0,0.0,0.0,0.0,0.0,0.0,0.0,0.0,0.0,0.0,0.0,0.0,0.0,0.0,0.0,0.0,0.0,0.0,0.0,0.0,0.0,0.0,0.0,0.0,0.0,0.0,0.0,0.0,0.0,0.0,0.0,0.0,0.0,0.0,0.0,0.0,0.0,0.0,0.0,0.0,0.0,0.0,0.0,0.0,0.0,0.0,0.0,0.0,0.0,0.0,0.0,0.0,0.0,0.0,0.0,0.0,0.0,0.0,0.0,0.0,0.0,0.0,0.0,0.0,0.0,0.0,0.0,0.0,0.0,0.0,0.0,0.0,0.0,0.0,0.0,0.0,0.0,0.0,0.0,0.0,0.0,0.0,0.0,0.0,0.0,0.0,0.0,0.0,0.0,0.0,0.0,0.0,0.0,0.0,0.0,0.0,0.0,0.0,0.0,0.0,0.0,0.0,0.0,0.0,0.0,0.0,0.0,0.0,0.0,0.0,0.0,0.0,0.0,0.0,0.0,0.0,0.0,0.0,0.0,0.0,0.0,0.0,0.0,0.0,0.0,0.0,0.0,0.0,0.0,0.0,0.0,0.0,0.0,-1.9334,0.0,0.0,0.0,0.0,0.0,0.0,0.0,0.0,0.0,0.0,0.0,0.0,0.0,0.0,0.0,0.0,0.0,0.0,0.0,0.0,0.0,0.0,0.0,0.0,0.0,0.0,0.0,0.0,0.0,0.0,0.0,0.0,0.0,0.0,0.0,0.0,0.0,0.0,0.0,0.0,0.0,0.0,0.0,0.0,0.0,0.0,0.0,0.0,0.0,0.0,0.0,0.0,0.0,0.0,0.0,0.0,0.0,0.0,0.0,0.0,0.0,0.0,0.0,0.0,0.0,0.0,0.0,0.0,0.0,0.0,0.0,0.0,0.0,0.0,0.0,0.0,0.0,0.0,0.0,0.0,0.0,0.0,0.0,0.0,0.0,0.0,0.0,0.0,0.0,0.0,0.0,0.0,0.0,0.0,0.0,0.0,0.0,0.0,0.0,0.0,0.0,0.0,0.0,0.0,0.0,0.0,0.0,0.0,0.0,0.0,-2.0126,-1.9352,-2.0089,-2.0069,-1.9178,0.0,0.0,0.0,0.0,0.0,0.0,0.0,0.0,0.0,0.0,0.0,0.0,0.0,0.0,0.0,0.0,0.0,0.0,0.0,0.0,0.0,0.0,0.0,0.0,0.0,0.0,0.0,0.0,0.0,0.0,0.0,0.0,0.0,0.0,0.0,0.0,0.0,0.0,0.0,0.0,0.0,0.0,0.0,0.0,0.0,0.0,0.0,0.0,0.0,0.0,0.0,0.0,0.0,0.0,0.0,0.0,0.0,0.0,0.0,0.0,0.0,0.0,0.0,0.0,0.0,0.0,0.0,0.0,0.0,0.0,0.0,0.0,0.0,0.0,0.0,0.0,0.0,0.0,0.0,0.0,0.0,0.0,0.0,0.0,0.0,0.0,0.0,0.0,0.0,0.0,0.0,0.0,0.0,0.0,0.0,0.0,0.0,0.0,0.0,0.0,0.0,0.0,0.0,0.0,0.0,0.0,0.0,0.0,0.0,0.0,0.0,0.0,-2.0107,-2.0026,-1.9192,0.0,0.0,0.0,0.0,0.0,0.0,0.0,0.0,0.0,0.0,0.0,0.0,0.0,0.0,0.0,0.0,0.0,0.0,0.0,0.0,0.0,0.0,0.0,0.0,0.0,0.0,0.0,0.0,0.0,0.0,0.0,0.0,0.0,0.0,0.0,0.0,0.0,0.0,0.0,0.0,0.0,0.0,0.0,0.0,0.0,0.0,0.0,0.0,0.0,0.0,0.0,0.0,0.0,0.0,0.0,0.0,0.0,0.0,0.0,0.0,0.0,0.0,0.0,0.0,0.0,0.0,0.0,0.0,0.0,0.0,0.0,0.0,0.0,0.0,0.0,0.0,0.0,0.0,0.0,0.0,0.0,0.0,0.0,0.0,0.0,0.0,0.0,0.0,0.0,0.0,0.0,0.0,0.0,0.0,0.0,0.0,0.0,0.0,0.0,0.0,0.0,0.0,0.0,0.0,0.0,0.0,0.0,0.0,0.0,0.0,-1.9624,-2.011,-2.012,0.0,-1.9588,0.0,0.0,0.0,0.0,0.0,0.0,0.0,0.0,0.0,0.0,0.0,0.0,0.0,0.0,0.0,0.0,0.0,0.0,0.0,0.0,0.0,0.0,0.0,0.0,0.0,0.0,0.0,0.0,0.0,0.0,0.0,0.0,0.0,0.0,0.0,0.0,0.0,0.0,0.0,0.0,0.0,0.0,0.0,0.0,0.0,0.0,0.0,0.0,0.0,0.0,0.0,0.0,0.0,0.0,0.0,0.0,0.0,0.0,0.0,0.0,0.0,0.0,0.0,0.0,0.0,0.0,0.0,0.0,0.0,0.0,0.0,0.0,0.0,0.0,0.0,0.0,0.0,0.0,0.0,0.0,0.0,0.0,0.0,0.0,0.0,0.0,0.0,0.0,0.0,0.0,0.0,0.0,0.0,0.0,0.0,0.0,0.0,0.0,0.0,0.0,0.0,0.0,0.0,0.0,0.0,0.0,0.0,0.0,0.0,0.0,-1.877,-1.9885,-1.9717,-1.9172,0.0,0.0,0.0,0.0,0.0,0.0,0.0,0.0,0.0,0.0,0.0,0.0,0.0,0.0,0.0,0.0,0.0,0.0,0.0,0.0,0.0,0.0,0.0,0.0,0.0,0.0,0.0,0.0,0.0,0.0,0.0,0.0,0.0,0.0,0.0,0.0,0.0,0.0,0.0,0.0,0.0,0.0,0.0,0.0,0.0,0.0,0.0,0.0,0.0,0.0,0.0,0.0,0.0,0.0,0.0,0.0,0.0,0.0,0.0,0.0,0.0,0.0,0.0,0.0,0.0,0.0,0.0,0.0,0.0,0.0,0.0,0.0,0.0,0.0,0.0,0.0,0.0,0.0,0.0,0.0,0.0,0.0,0.0,0.0,0.0,0.0,0.0,0.0,0.0,0.0,0.0,0.0,0.0,0.0,0.0,0.0,0.0,0.0,0.0,0.0,0.0,0.0,0.0,0.0,0.0,0.0,0.0,0.0,0.0,0.0,-1.8481,-1.8682,-1.9766,-1.8836,-1.8052,-1.7614,0.0,0.0,0.0,0.0,0.0,0.0,0.0,0.0,0.0,0.0,0.0,0.0,0.0,0.0,0.0,0.0,0.0,0.0,0.0,0.0,0.0,0.0,0.0,0.0,0.0,0.0,0.0,0.0,0.0,0.0,0.0,0.0,0.0,0.0,0.0,0.0,0.0,0.0,0.0,0.0,0.0,0.0,0.0,0.0,0.0,0.0,0.0,0.0,0.0,0.0,0.0,0.0,0.0,0.0,0.0,0.0,0.0,0.0,0.0,0.0,0.0,0.0,0.0,0.0,0.0,0.0,0.0,0.0,0.0,0.0,0.0,0.0,0.0,0.0,0.0,0.0,0.0,0.0,0.0,0.0,0.0,0.0,0.0,0.0,0.0,0.0,0.0,0.0,0.0,0.0,0.0,0.0,0.0,0.0,0.0,0.0,0.0,0.0,0.0,0.0,0.0,0.0,0.0,0.0,0.0,0.0,0.0,0.0,-2.0657,-1.9972,-1.9815,-2.0206,-1.7373,-1.6716,0.0,0.0,0.0,0.0,0.0,0.0,0.0,0.0,0.0,0.0,0.0,0.0,0.0,0.0,0.0,0.0,0.0,0.0,0.0,0.0,0.0,0.0,0.0,0.0,0.0,0.0,0.0,0.0,0.0,0.0,0.0,0.0,0.0,0.0,0.0,0.0,0.0,0.0,0.0,0.0,0.0,0.0,0.0,0.0,0.0,0.0,0.0,0.0,0.0,0.0,0.0,0.0,0.0,0.0,0.0,0.0,0.0,0.0,0.0,0.0,0.0,0.0,0.0,0.0,0.0,0.0,0.0,0.0,0.0,0.0,0.0,0.0,0.0,0.0,0.0,0.0,0.0,0.0,0.0,0.0,0.0,0.0,0.0,0.0,0.0,0.0,0.0,0.0,0.0,0.0,0.0,0.0,0.0,0.0,0.0,0.0,0.0,0.0,0.0,0.0,0.0,0.0,0.0,0.0,0.0,0.0,0.0,0.0,0.0,-1.8879,-1.9091,-1.8801,-1.8062,-1.7799,-1.7862,0.0,0.0,0.0,0.0,0.0,0.0,0.0,0.0,0.0,0.0,0.0,0.0,0.0,0.0,0.0,0.0,0.0,0.0,0.0,0.0,0.0,0.0,0.0,0.0,0.0,0.0,0.0,0.0,0.0,0.0,0.0,0.0,0.0,0.0,0.0,0.0,0.0,0.0,0.0,0.0,0.0,0.0,0.0,0.0,0.0,0.0,0.0,0.0,0.0,0.0,0.0,0.0,0.0,0.0,0.0,0.0,0.0,0.0,0.0,0.0,0.0,0.0,0.0,0.0,0.0,0.0,0.0,0.0,0.0,0.0,0.0,0.0,0.0,0.0,0.0,0.0,0.0,0.0,0.0,0.0,0.0,0.0,0.0,0.0,0.0,0.0,0.0,0.0,0.0,0.0,0.0,0.0,0.0,0.0,0.0,0.0,0.0,0.0,0.0,0.0,0.0,0.0,0.0,0.0,0.0,0.0,0.0,0.0,0.0,-1.8155,0.0,-1.8432,-1.7484,-1.7907,-1.8076,0.0,0.0,0.0,0.0,0.0,0.0,0.0,0.0,0.0,0.0,0.0,0.0,0.0,0.0,0.0,0.0,0.0,0.0,0.0,0.0,0.0,0.0,0.0,0.0,0.0,0.0,0.0,0.0,0.0,0.0,0.0,0.0,0.0,0.0,0.0,0.0,0.0,0.0,0.0,0.0,0.0,0.0,0.0,0.0,0.0,0.0,0.0,0.0,0.0,0.0,0.0,0.0,0.0,0.0,0.0,0.0,0.0,0.0,0.0,0.0,0.0,0.0,0.0,0.0,0.0,0.0,0.0,0.0,0.0,0.0,0.0,0.0,0.0,0.0,0.0,0.0,0.0,0.0,0.0,0.0,0.0,0.0,0.0,0.0,0.0,0.0,0.0,0.0,0.0,0.0,0.0,0.0,0.0,0.0,0.0,0.0,0.0,0.0,0.0,0.0,0.0,0.0,0.0,0.0,0.0,0.0,0.0,0.0,-1.7766,-1.8768,-1.8843,-1.878,-1.8826,-1.7518,-1.7111,0.0,0.0,0.0,0.0,0.0,0.0,0.0,0.0,0.0,0.0,0.0,0.0,0.0,0.0,0.0,0.0,0.0,0.0,0.0,0.0,0.0,0.0,0.0,0.0,0.0,0.0,0.0,0.0,0.0,0.0,0.0,0.0,0.0,0.0,0.0,0.0,0.0,0.0,0.0,0.0,0.0,0.0,0.0,0.0,0.0,0.0,0.0,0.0,0.0,0.0,0.0,0.0,0.0,0.0,0.0,0.0,0.0,0.0,0.0,0.0,0.0,0.0,0.0,0.0,0.0,0.0,0.0,0.0,0.0,0.0,0.0,0.0,0.0,0.0,0.0,0.0,0.0,0.0,0.0,0.0,0.0,0.0,0.0,0.0,0.0,0.0,0.0,0.0,0.0,0.0,0.0,0.0,0.0,0.0,0.0,0.0,0.0,0.0,0.0,0.0,0.0,0.0,0.0,0.0,0.0,0.0,0.0,0.0,0.0,-1.6761,-1.7434,-1.7819,-1.7861,-1.7597,-1.7811,0.0,0.0,0.0,0.0,0.0,0.0,0.0,0.0,0.0,0.0,0.0,0.0,0.0,0.0,0.0,0.0,0.0,0.0,0.0,0.0,0.0,0.0,0.0,0.0,0.0,0.0,0.0,0.0,0.0,0.0,0.0,0.0,0.0,0.0,0.0,0.0,0.0,0.0,0.0,0.0,0.0,0.0,0.0,0.0,0.0,0.0,0.0,0.0,0.0,0.0,0.0,0.0,0.0,0.0,0.0,0.0,0.0,0.0,0.0,0.0,0.0,0.0,0.0,0.0,0.0,0.0,0.0,0.0,0.0,0.0,0.0,0.0,0.0,0.0,0.0,0.0,0.0,0.0,0.0,0.0,0.0,0.0,0.0,0.0,0.0,0.0,0.0,0.0,0.0,0.0,0.0,0.0,0.0,0.0,0.0,0.0,0.0,0.0,0.0,0.0,0.0,0.0,0.0,0.0,0.0,0.0,0.0,0.0,0.0,-1.5336,-1.6249,-1.6948,-1.7347,-1.7641,-1.8014,-1.8459,0.0,0.0,0.0,0.0,0.0,0.0,0.0,0.0,0.0,0.0,0.0,0.0,0.0,0.0,0.0,0.0,0.0,0.0,0.0,0.0,0.0,0.0,0.0,0.0,0.0,0.0,0.0,0.0,0.0,0.0,0.0,0.0,0.0,0.0,0.0,0.0,0.0,0.0,0.0,0.0,0.0,0.0,0.0,0.0,0.0,0.0,0.0,0.0,0.0,0.0,0.0,0.0,0.0,0.0,0.0,0.0,0.0,0.0,0.0,0.0,0.0,0.0,0.0,0.0,0.0,0.0,0.0,0.0,0.0,0.0,0.0,0.0,0.0,0.0,0.0,0.0,0.0,0.0,0.0,0.0,0.0,0.0,0.0,0.0,0.0,0.0,0.0,0.0,0.0,0.0,0.0,0.0,0.0,0.0,0.0,0.0,0.0,0.0,0.0,0.0,0.0,0.0,0.0,0.0,0.0,0.0,0.0,0.0,-1.4438,-1.5286,-1.618,-1.7107,-1.7534,-1.7743,0.0,0.0,0.0,0.0,0.0,0.0,0.0,0.0,0.0,0.0,0.0,0.0,0.0,0.0,0.0,0.0,0.0,0.0,0.0,0.0,0.0,0.0,0.0,0.0,0.0,0.0,0.0,0.0,0.0,0.0,0.0,0.0,0.0,0.0,0.0,0.0,0.0,0.0,0.0,0.0,0.0,0.0,0.0,0.0,0.0,0.0,0.0,0.0,0.0,0.0,0.0,0.0,0.0,0.0,0.0,0.0,0.0,0.0,0.0,0.0,0.0,0.0,0.0,0.0,0.0,0.0,0.0,0.0,0.0,0.0,0.0,0.0,0.0,0.0,0.0,0.0,0.0,0.0,0.0,0.0,0.0,0.0,0.0,0.0,0.0,0.0,0.0,0.0,0.0,0.0,0.0,0.0,0.0,0.0,0.0,0.0,0.0,0.0,0.0,0.0,0.0,0.0,0.0,0.0,0.0,0.0,0.0,0.0,0.0,-1.3808,-1.4559,-1.5053,-1.5264,-1.6666,-1.7166,0.0,0.0,0.0,0.0,0.0,0.0,0.0,0.0,0.0,0.0,0.0,0.0,0.0,0.0,0.0,0.0,0.0,0.0,0.0,0.0,0.0,0.0,0.0,0.0,0.0,0.0,0.0,0.0,0.0,0.0,0.0,0.0,0.0,0.0,0.0,0.0,0.0,0.0,0.0,0.0,0.0,0.0,0.0,0.0,0.0,0.0,0.0,0.0,0.0,0.0,0.0,0.0,0.0,0.0,0.0,0.0,0.0,0.0,0.0,0.0,0.0,0.0,0.0,0.0,0.0,0.0,0.0,0.0,0.0,0.0,0.0,0.0,0.0,0.0,0.0,0.0,0.0,0.0,0.0,0.0,0.0,0.0,0.0,0.0,0.0,0.0,0.0,0.0,0.0,0.0,0.0,0.0,0.0,0.0,0.0,0.0,0.0,0.0,0.0,0.0,0.0,0.0,0.0,0.0,0.0,0.0,0.0,0.0,-1.3641,-1.3393,-1.4248,-1.4564,-1.4306,-1.6387,-1.7178,0.0,0.0,0.0,0.0,0.0,0.0,0.0,0.0,0.0,0.0,0.0,0.0,0.0,0.0,0.0,0.0,0.0,0.0,0.0,0.0,0.0,0.0,0.0,0.0,0.0,0.0,0.0,0.0,0.0,0.0,0.0,0.0,0.0,0.0,0.0,0.0,0.0,0.0,0.0,0.0,0.0,0.0,0.0,0.0,0.0,0.0,0.0,0.0,0.0,0.0,0.0,0.0,0.0,0.0,0.0,0.0,0.0,0.0,0.0,0.0,0.0,0.0,0.0,0.0,0.0,0.0,0.0,0.0,0.0,0.0,0.0,0.0,0.0,0.0,0.0,0.0,0.0,0.0,0.0,0.0,0.0,0.0,0.0,0.0,0.0,0.0,0.0,0.0,0.0,0.0,0.0,0.0,0.0,0.0,0.0,0.0,0.0,0.0,0.0,0.0,0.0,0.0,0.0,0.0,0.0,0.0,0.0,0.0,-1.33,-1.3148,-1.4119,-1.4419,-1.4098,-1.6348,-1.7302,0.0,0.0,0.0,0.0,0.0,0.0,0.0,0.0,0.0,0.0,0.0,0.0,0.0,0.0,0.0,0.0,0.0,0.0,0.0,0.0,0.0,0.0,0.0,0.0,0.0,0.0,0.0,0.0,0.0,0.0,0.0,0.0,0.0,0.0,0.0,0.0,0.0,0.0,0.0,0.0,0.0,0.0,0.0,0.0,0.0,0.0,0.0,0.0,0.0,0.0,0.0,0.0,0.0,0.0,0.0,0.0,0.0,0.0,0.0,0.0,0.0,0.0,0.0,0.0,0.0,0.0,0.0,0.0,0.0,0.0,0.0,0.0,0.0,0.0,0.0,0.0,0.0,0.0,0.0,0.0,0.0,0.0,0.0,0.0,0.0,0.0,0.0,0.0,0.0,0.0,0.0,0.0,0.0,0.0,0.0,0.0,0.0,0.0,0.0,0.0,0.0,0.0,0.0,0.0,0.0,0.0,0.0,0.0,-1.355,-1.2704,-1.3619,-1.4097,-1.4006,-1.5551,-1.6121,0.0,0.0,0.0,0.0,0.0,0.0,0.0,0.0,0.0,0.0,0.0,0.0,0.0,0.0,0.0,0.0,0.0,0.0,0.0,0.0,0.0,0.0,0.0,0.0,0.0,0.0,0.0,0.0,0.0,0.0,0.0,0.0,0.0,0.0,0.0,0.0,0.0,0.0,0.0,0.0,0.0,0.0,0.0,0.0,0.0,0.0,0.0,0.0,-0.3578,0.0,0.0,0.0,0.0,0.0,0.0,0.0,0.0,0.0,0.0,0.0,0.0,0.0,0.0,0.0,0.0,0.0,0.0,0.0,0.0,0.0,0.0,0.0,0.0,0.0,0.0,0.0,0.0,0.0,0.0,0.0,0.0,0.0,0.0,0.0,0.0,0.0,0.0,0.0,0.0,0.0,0.0,0.0,0.0,0.0,0.0,0.0,0.0,0.0,0.0,0.0,0.0,0.0,0.0,0.0,0.0,0.0,0.0,0.0,-1.3082,-1.2061,-1.308,-1.3667,-1.3708,-1.4526,-1.5008,0.0,0.0,0.0,0.0,0.0,0.0,0.0,0.0,0.0,0.0,0.0,0.0,0.0,0.0,0.0,0.0,0.0,0.0,0.0,0.0,0.0,0.0,0.0,0.0,0.0,0.0,0.0,0.0,0.0,0.0,0.0,0.0,0.0,0.0,0.0,0.0,0.0,0.0,0.0,0.0,0.0,0.0,0.0,0.0,0.0,0.0,0.0,0.0,0.0,0.0,0.0,0.0,0.0,0.0,0.0,0.0,0.0,0.0,0.0,0.0,0.0,0.0,0.0,0.0,0.0,0.0,0.0,0.0,0.0,0.0,0.0,0.0,0.0,0.0,0.0,0.0,0.0,0.0,0.0,0.0,0.0,0.0,0.0,0.0,0.0,0.0,0.0,0.0,0.0,0.0,0.0,0.0,0.0,0.0,0.0,0.0,0.0,0.0,0.0,0.0,0.0,0.0,0.0,0.0,0.0,0.0,0.0,-1.2722,-1.2288,-1.1429,-1.2422,-1.3002,-1.304,-1.3284,-1.3813,-1.4674,0.0,0.0,0.0,0.0,0.0,0.0,0.0,0.0,0.0,0.0,0.0,0.0,0.0,0.0,0.0,0.0,0.0,0.0,0.0,0.0,0.0,0.0,0.0,0.0,0.0,0.0,0.0,0.0,0.0,0.0,0.0,0.0,0.0,0.0,0.0,0.0,0.0,0.0,-0.6608,-0.6518,0.0,0.0,0.0,0.0,0.0,0.0,0.0,0.0,-0.2982,0.0,0.0,0.0,0.0,0.0,0.0,0.0,0.0,0.0,0.0,0.0,0.0,0.0,0.0,0.0,0.0,0.0,0.0,0.0,0.0,0.0,0.0,0.0,0.0,0.0,0.0,0.0,0.0,0.0,0.0,0.0,0.0,0.0,0.0,0.0,0.0,0.0,0.0,0.0,0.0,0.0,0.0,0.0,0.0,0.0,0.0,0.0,0.0,0.0,0.0,0.0,0.0,0.0,0.0,0.0,0.0,-1.3,-1.238,-1.1691,-1.1004,-1.1397,-1.1706,-1.1879,-1.1762,-1.2336,-1.3697,0.0,0.0,0.0,0.0,0.0,0.0,0.0,0.0,0.0,0.0,0.0,0.0,0.0,0.0,0.0,0.0,0.0,0.0,0.0,0.0,0.0,0.0,0.0,0.0,0.0,0.0,0.0,0.0,0.0,0.0,0.0,0.0,0.0,0.0,0.0,0.0,0.0,0.0,0.0,-0.6698,-0.6331,0.0,0.0,0.0,0.0,0.0,0.0,0.0,0.0,-0.2549,0.0,0.0,0.0,0.0,0.0,0.0,0.0,0.0,0.0,0.0,0.0,0.0,0.0,0.0,0.0,0.0,0.0,0.0,0.0,0.0,0.0,0.0,0.0,0.0,0.0,0.0,0.0,0.0,0.0,0.0,0.0,0.0,0.0,0.0,0.0,0.0,0.0,0.0,0.0,0.0,0.0,0.0,0.0,0.0,0.0,0.0,0.0,0.0,0.0,0.0,0.0,0.0,0.0,0.0,0.0,-1.2625,-1.184,-1.1217,-1.0921,-1.0832,-1.1032,-1.1568,-1.1434,-1.2139,0.0,0.0,0.0,0.0,0.0,0.0,0.0,0.0,0.0,0.0,0.0,0.0,0.0,0.0,0.0,0.0,0.0,0.0,0.0,0.0,0.0,0.0,0.0,0.0,0.0,0.0,0.0,0.0,0.0,0.0,0.0,0.0,0.0,0.0,0.0,0.0,0.0,0.0,0.0,0.0,-0.6943,-0.6539,-0.6505,0.0,0.0,0.0,0.0,0.0,0.0,-0.3106,-0.2766,0.0,0.0,0.0,0.0,0.0,0.0,0.0,0.0,0.0,0.0,0.0,0.0,0.0,0.0,0.0,0.0,0.0,0.0,0.0,0.0,0.0,0.0,0.0,0.0,0.0,0.0,0.0,0.0,0.0,0.0,0.0,0.0,0.0,0.0,0.0,0.0,0.0,0.0,0.0,0.0,0.0,0.0,0.0,0.0,0.0,0.0,0.0,0.0,0.0,0.0,0.0,0.0,0.0,0.0,0.0,-1.2131,-1.1289,-1.0757,-1.0635,-1.0352,-1.0523,-1.1124,-1.1097,-1.1964,0.0,0.0,0.0,0.0,0.0,0.0,0.0,0.0,0.0,0.0,0.0,0.0,0.0,0.0,0.0,0.0,0.0,0.0,0.0,0.0,0.0,0.0,0.0,0.0,0.0,0.0,0.0,0.0,0.0,0.0,0.0,0.0,0.0,0.0,0.0,0.0,0.0,0.0,0.0,0.0,0.0,-0.6473,-0.6617,-0.5878,0.0,0.0,0.0,0.0,-0.4306,-0.3534,0.0,0.0,0.0,0.0,0.0,0.0,0.0,0.0,0.0,0.0,0.0,0.0,0.0,0.0,0.0,0.0,0.0,0.0,0.0,0.0,0.0,0.0,0.0,0.0,0.0,0.0,0.0,0.0,0.0,0.0,0.0,0.0,0.0,0.0,0.0,0.0,0.0,0.0,0.0,0.0,0.0,0.0,0.0,0.0,0.0,0.0,0.0,0.0,0.0,0.0,0.0,0.0,0.0,0.0,0.0,0.0,-1.1744,-1.0972,-1.0286,-0.9792,-0.9872,-0.9853,-0.9662,-0.988,-1.09,0.0,0.0,0.0,0.0,0.0,0.0,0.0,0.0,0.0,0.0,0.0,0.0,0.0,0.0,0.0,0.0,0.0,0.0,0.0,0.0,0.0,0.0,0.0,0.0,0.0,0.0,0.0,0.0,0.0,0.0,0.0,0.0,0.0,0.0,0.0,0.0,0.0,0.0,0.0,0.0,0.0,-0.5351,-0.599,-0.4904,-0.3993,0.0,0.0,0.0,-0.4459,-0.3779,0.0,0.0,0.0,0.0,0.0,0.0,0.0,0.0,0.0,0.0,0.0,0.0,0.0,0.0,0.0,0.0,0.0,0.0,0.0,0.0,0.0,0.0,0.0,0.0,0.0,0.0,0.0,0.0,0.0,0.0,0.0,0.0,0.0,0.0,0.0,0.0,0.0,0.0,0.0,0.0,0.0,0.0,0.0,0.0,0.0,0.0,0.0,0.0,0.0,0.0,0.0,0.0,0.0,0.0,0.0,-1.1789,-1.168,-1.0578,-0.987,-0.9606,-0.9468,-0.9526,-0.9772,-0.9832,-1.0884,0.0,0.0,0.0,0.0,0.0,0.0,0.0,0.0,0.0,0.0,0.0,0.0,0.0,0.0,0.0,0.0,0.0,0.0,0.0,0.0,0.0,0.0,0.0,0.0,0.0,0.0,0.0,0.0,0.0,0.0,0.0,0.0,0.0,0.0,0.0,0.0,0.0,0.0,0.0,0.0,0.0,0.0,-0.4992,-0.4518,0.0,0.0,0.0,-0.3744,-0.4618,0.0,0.0,0.0,0.0,0.0,0.0,0.0,0.0,0.0,0.0,0.0,0.0,0.0,0.0,0.0,0.0,0.0,0.0,0.0,0.0,0.0,0.0,0.0,0.0,0.0,0.0,0.0,0.0,0.0,0.0,0.0,0.0,0.0,0.0,0.0,0.0,0.0,0.0,0.0,0.0,0.0,0.0,0.0,0.0,0.0,0.0,0.0,0.0,0.0,0.0,0.0,0.0,0.0,0.0,0.0,0.0,0.0,-1.1521,-1.0187,-0.947,-0.9461,-0.912,-0.9255,-0.9897,-0.9977,0.0,0.0,0.0,0.0,0.0,0.0,0.0,0.0,0.0,0.0,0.0,0.0,0.0,0.0,0.0,0.0,0.0,0.0,0.0,0.0,0.0,0.0,0.0,0.0,0.0,0.0,0.0,0.0,0.0,0.0,0.0,0.0,0.0,0.0,0.0,0.0,0.0,0.0,0.0,0.0,0.0,0.0,-0.4282,-0.381,-0.3704,-0.3652,0.0,0.0,-0.3318,-0.4291,-0.3496,-0.2978,0.0,0.0,0.0,0.0,0.0,0.0,0.0,0.0,0.0,0.0,0.0,0.0,0.0,0.0,0.0,0.0,0.0,0.0,0.0,0.0,0.0,0.0,0.0,0.0,0.0,0.0,0.0,0.0,0.0,0.0,0.0,0.0,0.0,0.0,0.0,0.0,0.0,0.0,0.0,0.0,0.0,0.0,0.0,0.0,0.0,0.0,0.0,0.0,0.0,0.0,0.0,0.0,0.0,0.0,0.0,-1.1105,-0.9825,-0.9101,-0.9055,-0.8886,-0.9015,-0.9439,-0.9986,-1.0871,0.0,0.0,0.0,0.0,0.0,0.0,0.0,0.0,0.0,0.0,0.0,0.0,0.0,0.0,0.0,0.0,0.0,0.0,0.0,0.0,0.0,0.0,0.0,0.0,0.0,0.0,0.0,0.0,0.0,0.0,0.0,0.0,0.0,0.0,0.0,0.0,0.0,0.0,0.0,0.0,0.0,-0.2623,-0.2527,-0.1846,-0.1367,0.0,0.0,-0.2132,-0.3075,-0.2737,-0.2741,-0.3956,0.0,0.0,0.0,0.0,0.0,0.0,0.0,0.0,0.0,0.0,0.0,0.0,0.0,0.0,0.0,0.0,0.0,0.0,0.0,0.0,0.0,0.0,0.0,0.0,0.0,0.0,0.0,0.0,0.0,0.0,0.0,0.0,0.0,0.0,0.0,0.0,0.0,0.0,0.0,0.0,0.0,0.0,0.0,0.0,0.0,0.0,0.0,0.0,0.0,0.0,0.0,0.0,0.0,-1.0749,-1.0176,-0.9229,-0.8555,-0.8226,-0.8484,-0.875,-0.9021,-0.9533,-1.0358,0.0,0.0,0.0,0.0,0.0,0.0,0.0,0.0,0.0,0.0,0.0,0.0,0.0,0.0,0.0,0.0,0.0,0.0,0.0,0.0,0.0,0.0,0.0,0.0,0.0,0.0,0.0,0.0,-0.4934,-0.4776,-0.4104,0.0,0.0,0.0,0.0,0.0,0.0,0.0,0.0,0.0,0.0,-0.1561,-0.1379,-0.1133,0.0,0.0,-0.1191,-0.1595,-0.2597,-0.2403,-0.256,-0.364,-0.3522,0.0,0.0,0.0,0.0,0.0,0.0,0.0,0.0,0.0,0.0,0.0,0.0,0.0,0.0,0.0,0.0,0.0,0.0,0.0,0.0,0.0,0.0,0.0,0.0,0.0,0.0,0.0,0.0,0.0,0.0,0.0,0.0,0.0,0.0,0.0,0.0,0.0,0.0,0.0,0.0,0.0,0.0,0.0,0.0,0.0,0.0,0.0,0.0,0.0,0.0,0.0,0.0,-1.042,-0.9776,-0.8737,-0.8049,-0.778,-0.8131,-0.8492,-0.8869,-0.9277,-1.0039,0.0,0.0,0.0,0.0,0.0,0.0,0.0,0.0,0.0,0.0,0.0,0.0,0.0,0.0,0.0,0.0,0.0,0.0,0.0,0.0,0.0,0.0,0.0,0.0,0.0,0.0,0.0,0.0,-0.4701,-0.4485,-0.4194,0.0,0.0,0.0,0.0,0.0,0.0,0.0,0.0,0.0,0.0,-0.0565,-0.0215,-0.0275,-0.0392,-0.0503,-0.0546,-0.084,-0.1684,-0.1838,-0.217,-0.3085,0.0,0.0,0.0,0.0,0.0,0.0,0.0,0.0,0.0,0.0,0.0,0.0,0.0,0.0,0.0,0.0,0.0,0.0,0.0,0.0,0.0,0.0,0.0,0.0,0.0,0.0,0.0,0.0,0.0,0.0,0.0,0.0,0.0,0.0,0.0,0.0,0.0,0.0,0.0,0.0,0.0,0.0,0.0,0.0,0.0,0.0,0.0,0.0,0.0,0.0,0.0,0.0,0.0,0.0,-1.0171,-0.8354,-0.7579,-0.785,-0.7899,-0.8242,-0.8926,-0.931,-1.004,-1.1156,0.0,0.0,0.0,0.0,0.0,0.0,0.0,0.0,0.0,0.0,0.0,0.0,0.0,0.0,0.0,0.0,0.0,0.0,0.0,0.0,0.0,0.0,0.0,0.0,0.0,0.0,-0.4688,-0.4368,-0.4394,0.0,0.0,0.0,0.0,0.0,0.0,0.0,0.0,0.0,0.0,0.0164,0.039,0.0949,0.0952,0.0701,0.0421,0.0404,0.0291,-0.0226,-0.0806,-0.1481,0.0,0.0,0.0,0.0,0.0,0.0,0.0,0.0,0.0,0.0,0.0,0.0,0.0,0.0,0.0,0.0,0.0,0.0,0.0,0.0,0.0,0.0,0.0,0.0,0.0,0.0,0.0,-1.7358,-1.7256,0.0,0.0,0.0,0.0,0.0,0.0,0.0,0.0,0.0,0.0,0.0,-1.3735,-1.311,0.0,0.0,0.0,0.0,0.0,0.0,0.0,0.0,0.0,0.0,0.0,0.0,-0.984,-0.9108,-0.7758,-0.6943,-0.6675,-0.7245,-0.7759,-0.8124,-0.8809,-0.9714,-1.0891,0.0,0.0,0.0,0.0,0.0,0.0,0.0,0.0,0.0,0.0,0.0,0.0,0.0,0.0,0.0,0.0,0.0,0.0,0.0,0.0,0.0,0.0,0.0,0.0,0.0,-0.5349,0.0,0.0,0.0,0.0,0.0,0.0,0.0,0.0,0.0,0.0,0.0,-0.1576,-0.0548,0.0028,0.0476,0.0924,0.0925,0.0932,0.0,0.0,0.0,0.0,0.0,0.0,0.0,0.0,0.0,0.0,0.0,0.0,0.0,0.0,-0.0809,-0.05,-0.0031,0.0334,0.0334,0.0,0.0,0.0,0.0,0.0,0.0,0.0,0.0,0.0,0.0,0.0,0.0,0.0,0.0,0.0,0.0,-1.6768,0.0,0.0,0.0,0.0,0.0,0.0,0.0,0.0,-1.3352,-1.3018,-1.3065,-1.2304,-1.2332,0.0,-1.3331,-1.363,0.0,0.0,0.0,0.0,0.0,0.0,0.0,0.0,-0.9447,-0.8586,-0.7319,-0.6471,-0.6126,-0.6774,-0.7314,-0.7641,-0.8638,-0.9559,-1.0394,-1.0739,-1.0761,0.0,0.0,0.0,0.0,0.0,0.0,0.0,0.0,0.0,0.0,0.0,0.0,0.0,0.0,0.0,0.0,0.0,0.0,0.0,0.0,0.0,0.0,0.0,-0.5016,0.0,0.0,0.0,0.0,0.0,0.0,0.0,0.0,0.0,-0.2718,-0.1898,-0.0953,-0.0028,0.0448,0.0785,0.0952,0.0,0.0,0.0,0.0,0.0,0.0,0.0,-0.0812,-0.1408,-0.1615,-0.1506,-0.0991,-0.0802,-0.0381,0.06,0.0,0.0,0.0,0.0585,0.1066,0.1099,0.1527,0.2152,0.3158,0.383,0.4521,0.0,0.0,0.0,0.0,0.0,0.0,0.0,0.0,-1.6909,-1.6877,0.0,-1.7076,0.0,0.0,0.0,0.0,0.0,0.0,0.0,0.0,-1.2982,-1.3021,-1.309,-1.2051,-1.187,-1.2449,-1.2782,-1.2929,-1.2948,-1.3399,0.0,0.0,0.0,0.0,0.0,0.0,-0.9617,-0.8559,-0.7002,-0.619,-0.6184,-0.6498,-0.6937,-0.7482,-0.874,-0.95,-0.9709,-1.0638,-1.1195,-1.1285,-1.1601,0.0,0.0,0.0,0.0,0.0,0.0,0.0,0.0,0.0,0.0,0.0,0.0,0.0,0.0,0.0,0.0,0.0,0.0,0.0,0.0,-0.5402,0.0,0.0,0.0,0.0,0.0,0.0,0.0,0.0,0.0,0.0,-0.0507,-0.0574,-0.014,0.1316,0.0,0.0,0.0,0.0,0.0731,0.0197,0.0056,0.0056,0.0057,-0.0208,-0.0343,-0.0192,0.0,0.0,0.0351,0.0999,0.1627,0.232,0.246,0.1973,0.0438,0.1356,0.2247,0.2279,0.2754,0.3272,0.3737,0.4515,0.5178,-1.6608,0.0,0.0,0.0,0.0,-1.5895,-1.5774,-1.5554,-1.516,-1.5285,-1.5766,-1.551,0.0,0.0,0.0,0.0,0.0,0.0,-1.3147,-1.2278,-1.1605,-1.1181,-1.0925,-1.0761,-1.095,-1.142,-1.1659,-1.1795,-1.1798,-1.1743,-1.2443,-1.3806,0.0,0.0,0.0,0.0,-0.8523,-0.7992,-0.6725,-0.5974,-0.5852,-0.6163,-0.6598,-0.7119,-0.8067,-0.8768,-0.9193,-1.0209,-1.0862,-1.1081,-1.1535,0.0,0.0,0.0,0.0,0.0,0.0,0.0,0.0,0.0,0.0,0.0,0.0,0.0,0.0,0.0,0.0,0.0,0.0,0.0,-0.4754,-0.4341,-0.4044,0.0,0.0,0.0,0.0,0.0,0.0,0.0,0.0,0.0,0.0883,0.0028,-0.0424,0.0,0.0,0.1156,0.1097,0.1304,0.1503,0.1631,0.0,0.0,0.0,0.0987,0.0822,0.0862,0.1445,0.1993,0.2216,0.2875,0.3529,0.4021,0.4148,0.4023,0.3576,0.3429,0.3571,0.3598,0.4063,0.4712,0.5309,0.602,0.6643,-1.5241,-1.5363,-1.5509,-1.5365,-1.5132,-1.5051,-1.4975,-1.4931,-1.4327,-1.4351,-1.4788,-1.4368,-1.4278,-1.447,-1.4627,0.0,0.0,0.0,-1.1936,-1.1309,-1.0556,-1.0252,-1.0312,-1.0288,-1.0492,-1.0922,-1.1044,-1.1107,-1.1092,-1.0776,-1.1121,-1.2082,0.0,0.0,-1.1019,-0.9252,-0.8089,-0.7527,-0.6533,-0.5911,-0.5707,-0.6034,-0.6349,-0.6683,-0.737,-0.8012,-0.8603,-0.9506,-1.0275,-1.0904,-1.1317,-1.147,0.0,0.0,0.0,0.0,0.0,0.0,0.0,0.0,0.0,0.0,0.0,-0.9099,0.0,0.0,0.0,0.0,-0.5787,-0.4782,-0.4031,-0.4019,0.0,0.0,0.0,0.0,0.0,0.0,0.0,-0.053,0.0168,0.09,0.1567,0.1026,0.0689,0.1114,0.1559,0.1787,0.1726,0.0,0.222,0.2202,0.18,0.1603,0.1915,0.1904,0.2103,0.2782,0.3491,0.4045,0.4249,0.4682,0.5108,0.5454,0.5717,0.59,0.5959,0.5919,0.565,0.5202,0.5698,0.6433,0.693,0.7383,0.776,-1.4095,-1.4168,-1.497,-1.5105,-1.4801,-1.4618,-1.4733,-1.5037,-1.4016,-1.3816,-1.4164,-1.3596,-1.3358,-1.3378,-1.2754,0.0,0.0,-1.0885,-1.0519,-1.0406,-0.9816,-0.9964,-1.0636,-1.0287,-1.0312,-1.0669,-1.0661,-1.0661,-1.0645,-1.0311,-1.0014,-0.9755,-1.0156,-1.0419,-1.0426,-0.9156,-0.8057,-0.7234,-0.6452,-0.5973,-0.575,-0.6013,-0.6163,-0.6163,-0.6704,-0.7255,-0.7872,-0.8634,-0.9552,-1.0596,-1.1005,-1.1369,-1.1745,0.0,0.0,0.0,0.0,0.0,0.0,0.0,0.0,0.0,0.0,0.0,0.0,0.0,0.0,0.0,-0.4867,0.0,-0.3673,-0.4022,0.0,0.0,0.0,-0.298,-0.1073,-0.0714,-0.0308,0.042,0.0,0.0,0.0,0.0,0.2704,0.3012,0.3008,0.2949,0.2826,0.302,0.2958,0.2389,0.2206,0.2233,0.2537,0.2851,0.3548,0.4907,0.5522,0.5747,0.6134,0.637,0.6518,0.6813,0.7225,0.7569,0.7819,0.8198,0.8312,0.6982,0.7458,0.8184,0.8293,0.8405,0.8492,-1.3118,-1.3032,-1.3541,-1.3535,-1.3168,-1.3106,-1.2976,-1.2778,-1.2512,-1.257,-1.286,-1.2728,-1.2652,-1.2614,-1.1747,-1.1322,-1.1145,-1.0245,-0.9822,-0.9796,-0.9478,-0.9393,-0.9588,-0.9484,-0.9484,-0.9588,-0.9588,-0.9588,-0.9588,-0.9592,-0.9412,-0.9066,-0.9249,-0.9216,-0.8908,-0.7976,-0.738,-0.7273,-0.6884,-0.6487,-0.6089,-0.5814,-0.5707,-0.5804,-0.6428,-0.68,-0.6877,-0.8051,-0.8965,-0.9491,-1.0497,-1.1021,-1.0903,-1.1237,0.0,0.0,0.0,0.0,0.0,0.0,0.0,0.0,0.0,-0.7681,-0.7502,0.0,-0.5491,0.0,-0.4299,-0.3358,-0.2581,-0.2785,0.0,0.0,-0.1736,-0.1288,-0.0774,0.0,0.0728,0.123,0.1482,0.201,0.3036,0.3282,0.3668,0.4426,0.4005,0.3595,0.3535,0.3809,0.4009,0.3968,0.3758,0.3768,0.4214,0.4679,0.512,0.5664,0.6298,0.6802,0.7084,0.764,0.8084,0.817,0.8531,0.8725,0.8456,0.9074,0.9357,0.878,0.87,0.8664,0.8569,0.8846,0.9018,-1.3145,-1.3073,-1.3294,-1.3088,-1.2618,-1.2788,-1.2643,-1.2258,-1.1981,-1.1758,-1.1584,-1.1266,-1.1141,-1.1116,-1.061,-1.0312,-1.0167,-0.9666,-0.9361,-0.9237,-0.908,-0.9008,-0.9008,-0.9035,-0.9106,-0.9256,-0.9001,-0.8949,-0.9073,-0.885,-0.862,-0.8388,-0.8339,-0.8287,-0.8151,-0.7703,-0.7389,-0.7206,-0.6737,-0.6391,-0.619,-0.5798,-0.5956,-0.6675,-0.674,-0.6991,-0.7506,-0.8461,-0.9083,-0.9335,-1.0449,-1.1021,-1.0884,-1.0899,-1.0783,0.0,0.0,0.0,0.0,0.0,0.0,0.0,0.0,0.0,0.0,0.0,-0.4182,0.0,0.0,0.0,-0.2103,-0.2201,-0.2021,-0.1346,-0.0938,-0.0517,-0.0057,0.0822,0.1512,0.1734,0.2235,0.2899,0.3744,0.4068,0.447,0.5353,0.5034,0.4753,0.4758,0.5111,0.5339,0.5218,0.515,0.5189,0.563,0.6178,0.6702,0.7104,0.7551,0.8056,0.849,0.8909,0.9187,0.9089,0.9358,0.9507,0.9133,0.9521,0.9912,0.9676,0.9511,0.9286,0.8977,0.9327,0.9566,-1.3794,-1.381,-1.3815,-1.3494,-1.2972,-1.3246,-1.303,-1.2448,-1.1934,-1.1309,-1.0651,-1.0053,-0.9769,-0.9769,-0.9769,-0.9621,-0.942,-0.9413,-0.9256,-0.9008,-0.9008,-0.8982,-0.8956,-0.8883,-0.9008,-0.9302,-0.8653,-0.8494,-0.8843,-0.8263,-0.7951,-0.7871,-0.7694,-0.7688,-0.7886,-0.782,-0.7567,-0.7067,-0.6449,-0.6194,-0.6296,-0.5978,-0.6463,-0.774,-0.7169,-0.735,-0.8427,-0.8919,-0.9188,-0.9329,-1.028,-1.0888,-1.0955,-1.0314,-1.0066,0.0,-0.9422,0.0,0.0,0.0,0.0,0.0,0.0,0.0,0.0,-0.4045,-0.3123,-0.2078,-0.1738,-0.1634,-0.1749,-0.175,-0.1321,-0.0379,-0.036,-0.0056,0.0931,0.1662,0.214,0.2224,0.3187,0.3964,0.4369,0.4755,0.5241,0.5817,0.5968,0.5961,0.6028,0.6348,0.6479,0.6187,0.6353,0.655,0.6758,0.7348,0.8045,0.8601,0.8818,0.9237,0.9812,0.9941,0.992,0.97,0.9795,0.9881,0.9696,0.9839,0.9999,0.9994,0.9941,0.9857,0.9654,0.9916,1.016,-1.4963,-1.482,-1.5001,-1.496,-1.4766,-1.4514,-1.346,-1.1859,-1.1744,-1.1494,-1.1175,-1.0812,-1.0667,-1.0659,-1.06,-1.0549,-1.0498,-1.0499,-1.0364,-1.0115,-1.0115,-0.9987,-0.9744,-0.9216,-0.9007,-0.9033,-0.8323,-0.8031,-0.8111,-0.8355,-0.8276,-0.7925,-0.7952,-0.7952,-0.7888,0.0,0.0,0.0,-0.6843,-0.6838,-0.6832,-0.658,-0.6626,-0.7019,-0.6922,0.0,-0.6876,-0.7443,-0.7728,-0.7674,-0.8528,0.0,0.0,0.0,0.0,0.0,0.0,0.0,0.0,0.0,0.0,0.0,-0.3571,-0.3055,-0.3138,-0.2652,-0.2186,-0.185,-0.155,-0.112,-0.0576,-0.0346,0.0,0.0568,0.0797,0.1167,0.1749,0.2267,0.282,0.3548,0.3918,0.4457,0.5234,0.55,0.5732,0.6212,0.6552,0.6716,0.6729,0.6747,0.6794,0.7025,0.7418,0.7744,0.7821,0.8308,0.8791,0.9131,0.9336,0.9582,0.9899,0.9994,0.9994,0.9934,0.9979,1.0004,0.9925,0.9975,0.9994,0.9994,0.9994,1.0091,1.0354,1.0647,1.0884,-1.6051,0.0,-1.5514,-1.5393,0.0,-1.4754,-1.3997,-1.3126,-1.2506,-1.1866,-1.1234,-1.0821,-1.0668,-1.0643,-1.049,-1.0405,-1.0405,-1.0397,-1.0338,-1.0192,-1.021,-1.0115,-0.9987,-0.9496,-0.9406,-0.9555,-0.8745,-0.8455,-0.8613,-0.854,-0.8388,-0.815,-0.8222,-0.8222,-0.8131,-0.7538,-0.7062,-0.6721,-0.6583,-0.6539,-0.6577,-0.6318,-0.6675,-0.7724,0.0,0.0,0.0,0.0,0.0,0.0,0.0,0.0,0.0,0.0,0.0,-0.8221,-0.7096,-0.6212,-0.5761,-0.4743,-0.3663,-0.2641,-0.1532,-0.1155,-0.167,-0.0996,-0.0549,-0.0475,-0.0308,-0.0056,0.0315,0.0488,0.0809,0.1379,0.1567,0.1867,0.247,0.3022,0.3521,0.3943,0.4312,0.4842,0.5616,0.5702,0.5962,0.6556,0.6897,0.7185,0.7439,0.7355,0.7403,0.7787,0.8257,0.8554,0.8572,0.8841,0.9242,0.9399,0.9536,0.9724,0.9961,0.9994,1.0028,1.0118,1.0075,1.0023,1.0123,1.007,0.9994,0.9994,0.9994,1.0356,1.1086,1.1027,1.0884,-1.7186,-1.6918,-1.6186,-1.5799,-1.5574,-1.4867,-1.4557,-1.4506,0.0,0.0,0.0,-1.1124,-1.0838,-1.0712,-1.0542,-1.0389,-1.0303,-1.0354,-1.0346,-1.0303,-1.0295,-1.0277,-1.02,-0.9865,-0.9873,-1.0138,-0.9295,-0.904,-0.9328,-0.8811,-0.8547,-0.8547,-0.8547,-0.8442,-0.8285,-0.7717,-0.7094,-0.651,-0.6304,-0.6263,-0.6368,-0.613,-0.6834,-0.8542,-0.7882,-0.7988,-0.8948,-0.9032,-0.8719,-0.8,-0.8099,-0.8007,-0.764,-0.6893,-0.6566,-0.6759,-0.6064,-0.5234,-0.442,-0.3925,-0.2824,-0.0978,0.0028,0.028,-0.0363,0.0392,0.0897,0.0897,0.0926,0.0954,0.0982,0.1121,0.1429,0.2043,0.2155,0.249,0.3137,0.3705,0.4057,0.4186,0.4655,0.5196,0.5764,0.585,0.6133,0.6902,0.7261,0.7534,0.7983,0.7988,0.8091,0.8426,0.8698,0.8929,0.9042,0.9159,0.9362,0.9545,0.963,0.9762,0.9942,0.9994,1.0066,1.0194,1.0127,1.0127,1.0217,1.0151,1.0042,1.0004,1.0081,1.0511,1.144,1.1261,1.1082,-1.8525,-1.8452,-1.7985,-1.7309,-1.6468,-1.585,-1.504,-1.4159,-1.3868,-1.3555,-1.3252,-1.2943,-1.2496,-1.1963,-1.2169,-1.1965,-1.1494,-1.1685,-1.1694,0.0,-1.146,-1.1334,-1.1091,-1.0431,-1.0141,-1.0149,-0.9462,-0.9176,-0.9209,-0.9124,-0.9079,-0.9079,-0.9105,-0.8696,-0.7936,-0.7562,-0.7087,-0.6455,-0.6811,-0.7045,-0.7045,-0.7177,-0.7375,-0.7629,-0.7364,-0.7235,-0.7405,-0.7458,-0.7206,-0.6707,-0.6795,-0.6658,-0.6209,-0.5541,-0.521,-0.5258,-0.4536,-0.3761,-0.3045,-0.2539,-0.1584,0.0028,0.0813,0.1038,0.0729,0.0813,0.0897,0.0898,0.1122,0.1262,0.129,0.1822,0.227,0.2437,0.274,0.3158,0.3663,0.4001,0.4321,0.4696,0.51,0.5552,0.6094,0.6269,0.6593,0.7405,0.7655,0.7837,0.8108,0.8373,0.8652,0.8845,0.8817,0.8916,0.9204,0.9263,0.9404,0.9569,0.9795,0.9937,0.998,0.9994,1.0013,1.0037,1.0156,1.0198,1.0104,1.0184,1.0161,1.0134,1.0424,1.0944,1.1327,1.1579,1.2184,-1.9184,-1.8896,-1.8004,-1.759,-1.746,-1.6747,-1.5898,-1.5013,-1.51,-1.464,-1.3813,-1.3539,-1.3232,-1.2943,-1.2716,-1.2448,-1.2172,-1.1993,-1.1803,-1.1703,-1.1553,-1.1418,-1.1276,-1.0804,-1.0566,-1.0549,-1.0131,-0.9925,-0.9899,-0.9899,-0.9899,-0.9906,-0.9899,-0.9463,-0.8623,-0.8436,-0.7985,-0.7223,-0.6904,-0.6756,-0.6756,-0.6845,-0.7026,-0.7336,-0.723,-0.7337,-0.7733,-0.7477,-0.7211,-0.6933,-0.626,-0.5716,-0.5354,-0.4688,-0.4324,-0.4319,-0.3632,-0.2932,-0.2377,-0.13,-0.0313,0.059,0.1038,0.1346,0.1375,0.1375,0.1375,0.1403,0.1515,0.1684,0.1906,0.227,0.2689,0.3158,0.338,0.3658,0.4101,0.4406,0.4665,0.488,0.5211,0.5591,0.6086,0.6288,0.6685,0.741,0.7804,0.8179,0.8377,0.8571,0.8732,0.8836,0.8949,0.9122,0.9399,0.9597,0.9696,0.9804,0.9928,0.9985,0.9994,0.9994,0.9994,1.0004,1.017,1.0213,1.0042,1.017,1.0322,1.0576,1.0727,1.1154,1.1886,1.2778,1.3633,-1.9603,-1.9196,-1.8086,-1.779,-1.7973,-1.715,-1.6383,-1.5767,-1.5913,-1.5418,-1.4456,-1.4188,-1.3988,-1.3766,-1.326,-1.2923,-1.2691,-1.2246,-1.1993,-1.1893,-1.1685,-1.1544,-1.1444,-1.1192,-1.1074,-1.1049,-1.0803,-1.0667,-1.0667,-1.0675,-1.0667,-1.0667,-1.0624,-1.0172,-0.9283,-0.9237,-0.8758,-0.7827,-0.7062,-0.6651,-0.6651,-0.6602,-0.6764,-0.7141,-0.7189,-0.7444,-0.795,-0.7466,-0.7115,-0.6934,-0.5785,-0.4955,-0.4582,-0.403,-0.3666,-0.3521,-0.2915,-0.2266,-0.1597,-0.0284,0.0645,0.0982,0.1262,0.1515,0.1741,0.1797,0.1853,0.1937,0.1964,0.216,0.2519,0.2742,0.3074,0.3741,0.3907,0.4147,0.4587,0.4876,0.503,0.5105,0.5331,0.5657,0.5962,0.6287,0.6777,0.7507,0.8092,0.8519,0.867,0.8732,0.8774,0.8831,0.9053,0.9286,0.955,0.9752,0.9904,0.9971,0.999,0.9994,0.9994,0.9994,0.9994,1.0013,1.017,1.0292,1.0241,1.0386,1.0736,1.1131,1.1413,1.1929,1.3124,1.4097,1.4817,-1.9833,-1.9636,-1.9228,-1.8545,-1.7497,-1.6623,-1.6085,-1.5792,-1.5583,-1.5575,-1.5591,-1.5603,-1.513,-1.448,-1.4342,-1.3899,-1.3208,-1.3098,-1.2837,-1.2521,-1.2496,-1.232,-1.2002,-1.1753,-1.1619,-1.1603,-1.1352,-1.12,-1.12,-1.12,-1.1217,-1.12,-1.0989,-1.0421,-0.964,-0.9342,-0.8653,-0.7568,-0.7448,-0.7399,-0.7399,-0.7159,-0.7063,-0.7106,-0.7106,-0.7122,-0.7225,-0.65,-0.5994,-0.5665,-0.498,-0.4277,-0.3648,-0.3461,-0.3292,-0.2907,-0.2375,-0.1574,-0.0478,0.0393,0.0954,0.1234,0.1543,0.1769,0.1797,0.1797,0.1993,0.2326,0.2437,0.2575,0.2991,0.338,0.3685,0.3879,0.4211,0.4626,0.5009,0.5259,0.5425,0.5605,0.5722,0.5954,0.6275,0.6574,0.7107,0.8051,0.8403,0.8652,0.8703,0.8826,0.8926,0.8959,0.9044,0.9223,0.9526,0.9606,0.9823,0.9971,1.0028,1.0067,1.0106,1.0077,1.0038,1.0188,1.0259,1.0489,1.086,1.1077,1.1375,1.1835,1.24,1.3167,1.423,1.4901,1.536,-1.8931,-1.9046,-1.8584,-1.7949,-1.7206,-1.7105,-1.675,-1.6137,-1.6086,-1.6129,-1.6194,-1.6219,-1.5856,-1.5254,-1.5073,-1.4698,-1.4201,-1.3792,-1.3341,-1.2837,-1.2657,-1.2408,-1.2092,-1.2002,-1.1927,-1.1902,-1.1678,-1.1553,-1.1528,-1.1377,-1.1301,-1.1301,-1.1175,-1.0702,-0.9884,-0.9736,-0.9176,-0.8242,-0.8041,-0.7957,-0.7858,-0.7367,-0.7106,-0.7101,-0.7197,-0.7045,-0.6636,-0.6193,-0.5681,-0.5096,-0.4321,-0.3722,-0.3413,-0.3143,-0.2917,-0.2685,-0.1862,-0.0895,0.0084,0.0785,0.1178,0.1318,0.1628,0.1797,0.1797,0.1797,0.2076,0.2687,0.2631,0.277,0.3408,0.3824,0.4153,0.4429,0.4759,0.5037,0.5246,0.5414,0.5523,0.5544,0.5797,0.6086,0.6356,0.6958,0.765,0.8291,0.8576,0.8699,0.8713,0.8779,0.8822,0.8884,0.9204,0.9448,0.9517,0.9744,1.0013,1.0299,1.0321,1.0331,1.0471,1.0207,1.012,1.0506,1.073,1.1045,1.1548,1.1772,1.202,1.2592,1.3421,1.423,1.4985,1.5269,1.5567,-1.8301,-1.8614,-1.8356,-1.8017,-1.7678,-1.7896,-1.7524,-1.6811,-1.6662,-1.6586,-1.65,-1.6513,-1.6328,-1.5979,-1.568,-1.54,-1.5085,-1.4583,-1.4148,-1.3676,-1.3224,-1.2891,-1.2662,-1.2311,-1.22,-1.2175,-1.1852,-1.1669,-1.1578,-1.1402,-1.1301,-1.1301,-1.1301,-1.0989,-1.041,-1.021,-0.9739,-0.8948,-0.8591,-0.8288,-0.8054,-0.757,-0.7252,-0.7209,-0.7247,-0.6956,-0.6238,-0.5769,-0.5214,-0.456,-0.368,-0.3234,-0.3229,-0.2882,-0.2579,-0.2298,-0.1512,-0.0532,0.0449,0.0954,0.1262,0.1431,0.1684,0.1797,0.1825,0.1909,0.2326,0.2965,0.2938,0.3213,0.3879,0.4236,0.4539,0.4873,0.5144,0.5321,0.55,0.5653,0.5739,0.5773,0.6056,0.6335,0.6654,0.74,0.8139,0.8458,0.8614,0.8703,0.8718,0.8751,0.8789,0.8761,0.9382,0.9725,0.9571,1.0045,1.0468,1.0517,1.0512,1.0705,1.0958,1.054,1.0567,1.1214,1.1401,1.1707,1.2195,1.2484,1.2964,1.3553,1.423,1.4859,1.5228,1.5387,1.5519,-1.8384,-1.8749,-1.9348,-1.9373,-1.9233,-1.8679,-1.8193,-1.7626,-1.7123,-1.6748,-1.6543,-1.6534,-1.65,-1.6423,-1.621,-1.5991,-1.5748,-1.5514,-1.543,-1.5303,-1.4426,-1.4017,-1.4036,-1.3022,-1.2514,-1.2503,-1.1986,-1.1603,-1.1343,-1.1301,-1.1301,-1.1301,-1.1318,-1.1242,-1.1,-1.0616,-1.0132,-0.9404,-0.892,-0.8416,-0.793,-0.779,-0.7637,-0.7398,-0.7167,-0.6736,-0.5982,-0.5085,-0.4379,-0.3952,-0.3171,-0.2792,-0.2805,-0.2768,-0.2326,-0.1543,-0.1318,-0.0617,0.0617,0.0926,0.1178,0.1656,0.1769,0.1797,0.1825,0.2188,0.2605,0.3049,0.3433,0.3849,0.4366,0.466,0.4873,0.4956,0.5171,0.5548,0.5991,0.5991,0.6214,0.6401,0.6552,0.6843,0.7438,0.8011,0.8407,0.8618,0.8694,0.8703,0.8727,0.8864,0.8869,0.8981,0.9396,0.9909,0.9946,1.0453,1.0696,1.0759,1.0943,1.1039,1.104,1.1104,1.1514,1.1881,1.2032,1.2367,1.2845,1.3434,1.4095,1.4552,1.4692,1.5151,1.5423,1.5399,1.5508,-1.7486,-1.7534,-1.8595,-1.8936,-1.868,-1.8555,-1.8299,-1.7902,-1.7331,-1.6947,-1.6778,-1.6769,-1.665,-1.6513,-1.6436,-1.6175,-1.586,-1.6241,-1.6207,-1.5711,-1.5301,-1.5057,-1.4726,-1.3685,-1.3146,-1.3007,-1.2329,-1.1728,-1.1318,-1.1301,-1.1301,-1.1353,-1.1524,-1.1363,-1.0906,-1.0614,-1.0136,-0.94,-0.8866,-0.8496,-0.8263,-0.8258,-0.8021,-0.7552,-0.7333,-0.6625,-0.534,-0.4882,-0.4213,-0.319,-0.2845,-0.2705,-0.2732,-0.2709,-0.2298,-0.1431,-0.1148,-0.0476,0.0701,0.1066,0.1346,0.1741,0.1797,0.1797,0.1881,0.2216,0.2661,0.3105,0.3547,0.402,0.4565,0.494,0.523,0.5458,0.5709,0.5904,0.6096,0.6151,0.6212,0.6471,0.6863,0.7449,0.7849,0.8304,0.8614,0.8685,0.8703,0.8703,0.8713,0.8779,0.8904,0.9314,0.9829,1.0422,1.0834,1.1044,1.1239,1.1354,1.1488,1.1607,1.1635,1.1518,1.1744,1.2451,1.2674,1.3262,1.3853,1.4391,1.5054,1.5443,1.5541,1.5362,1.5505,1.5502,1.5512,-1.7227,-1.725,-1.8478,-1.8793,-1.8476,-1.8629,-1.8519,-1.8127,-1.7659,-1.7248,-1.6973,-1.691,-1.6769,-1.6522,-1.6513,-1.6284,-1.6029,-1.6663,-1.6822,-1.6483,-1.602,-1.5678,-1.5321,-1.4262,-1.3633,-1.3355,-1.2545,-1.1852,-1.1495,-1.1455,-1.1456,-1.1482,-1.1735,-1.1655,-1.1253,-1.0774,-1.0201,-0.9654,-0.9072,-0.8667,-0.8533,-0.8517,-0.827,-0.7798,-0.7313,-0.6384,-0.4906,-0.4525,-0.386,-0.2867,-0.2691,-0.2691,-0.2691,-0.2549,-0.213,-0.1402,-0.1008,-0.0336,0.0701,0.1066,0.1347,0.1741,0.1797,0.1853,0.202,0.2437,0.2895,0.3339,0.3803,0.4311,0.4817,0.5186,0.5434,0.5656,0.5867,0.6025,0.6075,0.6064,0.6256,0.6646,0.7307,0.7822,0.8171,0.8496,0.8661,0.8703,0.8703,0.8703,0.8703,0.8894,0.9084,0.9582,1.0293,1.0836,1.126,1.1496,1.1483,1.1581,1.1808,1.2016,1.2087,1.1956,1.2249,1.2953,1.3596,1.4255,1.4844,1.5345,1.5775,1.6154,1.6023,1.579,1.5723,1.5574,1.5566,-1.7639,-1.7833,-1.9106,-1.9196,-1.8735,-1.8998,-1.8907,-1.8461,-1.8127,-1.7537,-1.6899,-1.6866,-1.6689,-1.6493,-1.64,-1.6346,-1.6404,-1.6813,-1.7312,-1.7647,-1.6472,-1.5897,-1.5908,-1.464,-1.3805,-1.3455,-1.2563,-1.197,-1.1687,-1.1748,-1.1806,-1.1786,-1.1881,-1.2016,-1.2368,-1.1093,-1.0472,-1.0114,-0.9348,-0.878,-0.8544,-0.8517,-0.8377,-0.8038,-0.7022,-0.5876,-0.4738,-0.3937,-0.3268,-0.2777,-0.2691,-0.2691,-0.2635,-0.2296,-0.1793,-0.1346,-0.0926,-0.0196,0.0729,0.0926,0.1206,0.1684,0.1797,0.1964,0.2382,0.2837,0.3295,0.3828,0.4339,0.4843,0.5216,0.5355,0.5397,0.5438,0.5647,0.5743,0.5834,0.5865,0.6166,0.703,0.7663,0.8136,0.8363,0.8538,0.8661,0.8694,0.8703,0.8703,0.8742,0.9127,0.9506,0.9841,1.0513,1.1223,1.1558,1.1818,1.1713,1.1701,1.2006,1.2254,1.2279,1.2245,1.2935,1.3601,1.4275,1.4937,1.5424,1.5878,1.6024,1.6277,1.6137,1.6042,1.5905,1.5753,1.5651,-1.6907,-1.7697,-1.8132,-1.8476,-1.871,-1.9053,-1.9001,-1.8674,-1.8344,-1.7571,-1.6703,-1.655,-1.6327,-1.6019,-1.5957,-1.6341,-1.701,-1.7212,-1.7242,-1.7039,-1.6398,-1.5997,-1.5708,-1.4669,-1.3811,-1.3237,-1.2707,-1.219,-1.1872,-1.2043,-1.2107,-1.1915,-1.2156,-1.2038,-1.1643,-1.0864,-1.026,-0.9627,-0.9022,-0.8608,-0.8517,-0.8517,-0.8243,-0.7663,-0.6515,-0.5461,-0.4657,-0.3884,-0.3239,-0.2723,-0.2691,-0.2691,-0.2607,-0.2268,-0.1793,-0.1346,-0.0926,-0.0224,0.0701,0.0898,0.115,0.1656,0.1797,0.2021,0.2475,0.3002,0.348,0.3972,0.4483,0.4968,0.512,0.5189,0.5341,0.5658,0.5715,0.5815,0.6083,0.6465,0.6929,0.731,0.7702,0.8004,0.8307,0.8491,0.8571,0.867,0.8699,0.8703,0.8818,0.9273,0.9803,1.018,1.0962,1.1595,1.1892,1.204,1.2009,1.1935,1.2127,1.2385,1.2423,1.2759,1.3443,1.4237,1.4922,1.5464,1.5984,1.6266,1.6354,1.626,1.6086,1.6038,1.5991,1.5897,1.5803,-1.6892,-1.8042,-1.8072,-1.8296,-1.876,-1.9194,-1.9165,-1.8803,-1.8592,-1.7705,-1.6671,-1.6474,-1.6264,-1.5957,-1.5848,-1.6334,-1.7144,-1.7106,-1.6849,-1.6567,-1.6495,-1.628,-1.5901,-1.453,-1.3782,-1.3418,-1.2876,-1.2506,-1.2347,-1.2497,-1.2492,-1.2359,-1.2559,-1.227,-1.142,-1.0788,-1.0078,-0.9338,-0.877,-0.8517,-0.8517,-0.8517,-0.8317,-0.771,-0.6461,-0.5535,-0.4941,-0.3917,-0.311,-0.2774,-0.2691,-0.2691,-0.2635,-0.2102,-0.1625,-0.1261,-0.0645,0.0084,0.0785,0.0982,0.1262,0.1713,0.1797,0.2104,0.2621,0.3173,0.3621,0.4278,0.4729,0.506,0.5182,0.5216,0.5364,0.5629,0.5558,0.5712,0.6124,0.6697,0.7219,0.7527,0.7811,0.8042,0.8297,0.8491,0.851,0.86,0.8656,0.8856,0.9046,0.9576,1.0137,1.0738,1.1409,1.1892,1.2194,1.2268,1.2268,1.2231,1.2268,1.2459,1.2577,1.3034,1.3652,1.4621,1.5408,1.5825,1.63,1.6419,1.6491,1.6277,1.6126,1.619,1.6229,1.6055,1.5929,-1.7476,-1.8627,-1.858,-1.8612,-1.8837,-1.9343,-1.9277,-1.8884,-1.8698,-1.7864,-1.6759,-1.6478,-1.6369,-1.6205,-1.5999,-1.6327,-1.6795,-1.6797,-1.6713,-1.6623,-1.6677,-1.662,-1.5903,-1.433,-1.3734,-1.3852,-1.3148,-1.2875,-1.2986,-1.3081,-1.3017,-1.2908,-1.2897,-1.2558,-1.1642,-1.0892,-1.0085,-0.921,-0.8738,-0.8517,-0.8517,-0.8517,-0.8382,-0.8242,-0.6748,-0.5702,-0.5141,-0.3816,-0.2928,-0.2715,-0.2691,-0.2691,-0.2521,-0.1822,-0.1346,-0.1234,-0.0252,0.0421,0.0869,0.1122,0.1431,0.1769,0.1918,0.2193,0.2971,0.3423,0.392,0.4738,0.5029,0.5199,0.5347,0.5375,0.5401,0.5434,0.5474,0.5601,0.5951,0.6608,0.7212,0.771,0.8001,0.8155,0.8359,0.8552,0.8514,0.858,0.8684,0.9064,0.9468,1.003,1.07,1.126,1.1744,1.2046,1.2305,1.2305,1.2342,1.2526,1.2496,1.2613,1.2875,1.34,1.413,1.5061,1.5714,1.6157,1.6397,1.6444,1.6492,1.6404,1.6373,1.642,1.6356,1.6246,1.6103,-1.7349,-1.857,-1.7654,-1.8072,-1.9256,-1.9154,-1.9028,-1.9008,-1.8409,-1.7552,-1.6514,-1.6123,-1.597,-1.5742,-1.593,-1.6325,-1.6808,-1.7071,-1.739,-1.7571,-1.7274,-1.6188,-1.4952,-1.3971,-1.3714,-1.3975,-1.3626,-1.3199,-1.2858,-1.3427,-1.3456,-1.2997,-1.2989,-1.2382,-1.1298,-1.0735,-0.9862,-0.8894,-0.8608,-0.8517,-0.8517,-0.8517,-0.8187,-0.747,-0.652,-0.5562,-0.4666,-0.3467,-0.2746,-0.2701,-0.2691,-0.2691,-0.2579,-0.1822,-0.129,-0.1094,-0.0224,0.0561,0.0869,0.1178,0.1459,0.1801,0.2169,0.2696,0.3285,0.387,0.4419,0.4975,0.5209,0.5341,0.5385,0.5395,0.5495,0.5752,0.5869,0.6116,0.6544,0.7071,0.7522,0.79,0.7816,0.8015,0.8344,0.8425,0.8377,0.8618,0.8992,0.9387,0.9809,1.0481,1.118,1.1446,1.1824,1.212,1.2305,1.2305,1.2415,1.2709,1.279,1.2884,1.3277,1.3791,1.4736,1.5732,1.5967,1.6356,1.6317,1.6285,1.6341,1.65,1.6301,1.6238,1.6412,1.6388,1.6269,-1.7441,-1.8642,-1.7863,-1.8207,-1.9211,-1.9151,-1.9156,-1.9086,-1.8547,-1.7564,-1.6563,-1.6344,-1.608,-1.5785,-1.6016,-1.6467,-1.7007,-1.728,-1.7539,-1.7739,-1.7458,-1.6306,-1.4847,-1.4027,-1.3968,-1.4311,-1.4086,-1.3774,-1.3515,-1.3855,-1.3684,-1.325,-1.3003,-1.2251,-1.108,-1.0584,-0.9805,-0.8765,-0.8517,-0.8517,-0.8517,-0.8517,-0.8122,-0.7395,-0.6569,-0.5536,-0.4137,-0.3154,-0.2691,-0.2691,-0.2691,-0.2635,-0.2354,-0.171,-0.1234,-0.1038,0.0,0.0701,0.0926,0.1262,0.16,0.1856,0.2316,0.2787,0.3273,0.389,0.4464,0.494,0.5143,0.5281,0.5382,0.5395,0.5627,0.602,0.6288,0.6519,0.6843,0.7223,0.7612,0.7821,0.7826,0.7807,0.8392,0.8314,0.8359,0.8621,0.9128,0.9588,1.003,1.0887,1.1521,1.1781,1.1935,1.2194,1.2305,1.2342,1.2599,1.2893,1.3331,1.3353,1.3873,1.4389,1.5104,1.5929,1.6206,1.6389,1.6317,1.6325,1.6451,1.6451,1.619,1.6206,1.6444,1.6547,1.6396,-1.7651,-1.8525,-1.8527,-1.86,-1.8792,-1.9241,-1.9259,-1.9173,-1.8648,-1.778,-1.6852,-1.6801,-1.6429,-1.6118,-1.6336,-1.6701,-1.7175,-1.7451,-1.7558,-1.764,-1.744,-1.666,-1.5378,-1.4584,-1.4503,-1.4723,-1.4495,-1.4345,-1.4226,-1.4102,-1.3911,-1.3507,-1.3086,-1.2158,-1.1142,-1.0559,-0.9671,-0.8732,-0.8517,-0.8517,-0.8517,-0.8484,-0.8187,-0.7577,-0.6526,-0.5272,-0.3919,-0.3053,-0.2713,-0.2707,-0.2669,-0.241,-0.2015,-0.1541,-0.1066,-0.0589,0.0252,0.0869,0.101,0.1459,0.1853,0.1996,0.2403,0.2798,0.3342,0.397,0.4565,0.5005,0.5052,0.5269,0.5463,0.5495,0.5855,0.6317,0.6453,0.6618,0.6942,0.7297,0.7579,0.7754,0.7792,0.7848,0.8099,0.8295,0.8424,0.8926,0.9476,1.0008,1.0556,1.126,1.1781,1.212,1.2231,1.2268,1.2342,1.2342,1.2746,1.3112,1.3731,1.4099,1.4675,1.5187,1.5614,1.6039,1.6238,1.6365,1.6404,1.6484,1.6594,1.661,1.6428,1.6523,1.6673,1.6642,1.6539,-1.7582,-1.7348,-1.7364,-1.7874,-1.857,-1.8311,-1.856,-1.9115,-1.7917,-1.7426,-1.7075,-1.6601,-1.6236,-1.6136,-1.6652,-1.7066,-1.7195,-1.7688,-1.8129,-1.8324,-1.8049,-1.7225,-1.6112,-1.5298,-1.5029,-1.5046,-1.4823,-1.46,-1.441,-1.435,-1.421,-1.383,-1.3042,-1.2197,-1.1111,-1.0458,-0.9678,-0.8705,-0.8517,-0.8517,-0.8517,-0.8484,-0.822,-0.7549,-0.6117,-0.4728,-0.3665,-0.3013,-0.2801,-0.2694,-0.2388,-0.2073,-0.1847,-0.126,-0.0701,-0.0224,0.0421,0.0983,0.1236,0.1607,0.1967,0.2342,0.2951,0.3525,0.3955,0.4587,0.5054,0.53,0.533,0.5436,0.5683,0.602,0.6284,0.6585,0.6749,0.6942,0.7269,0.7456,0.7645,0.7845,0.7778,0.7816,0.8447,0.8308,0.8609,0.9239,0.9863,1.0507,1.1074,1.1632,1.1966,1.2305,1.2305,1.2305,1.2378,1.2576,1.3089,1.3543,1.4135,1.4717,1.5309,1.5567,1.5849,1.6047,1.6198,1.6317,1.6484,1.6531,1.6665,1.6681,1.6689,1.6689,1.6689,1.6689,1.6681,-1.7723,-1.7471,-1.7471,-1.7755,-1.8162,-1.8072,-1.8452,-1.8899,-1.8098,-1.7524,-1.7306,-1.6765,-1.6339,-1.6066,-1.677,-1.7094,-1.723,-1.7906,-1.8396,-1.8437,-1.8159,-1.7473,-1.6662,-1.5995,-1.5606,-1.5314,-1.5163,-1.4916,-1.4705,-1.4488,-1.433,-1.392,-1.2981,-1.1942,-1.0986,-1.03,-0.9422,-0.87,-0.8517,-0.8517,-0.8517,-0.8517,-0.7954,-0.7056,-0.5692,-0.4472,-0.3656,-0.3092,-0.2864,-0.2696,-0.2129,-0.1681,-0.1597,-0.1037,-0.0477,0.0084,0.0599,0.1062,0.1352,0.1918,0.2363,0.2554,0.3386,0.3833,0.423,0.4774,0.5172,0.5269,0.5286,0.5372,0.5646,0.5954,0.6317,0.6618,0.6815,0.7073,0.7396,0.7493,0.755,0.7759,0.7717,0.7921,0.8148,0.8389,0.8843,0.9505,1.043,1.1074,1.1223,1.1744,1.2083,1.2305,1.2305,1.2342,1.2445,1.2818,1.3521,1.4021,1.457,1.5174,1.5747,1.5865,1.5928,1.6158,1.6372,1.6459,1.6602,1.6681,1.6689,1.6689,1.6689,1.6689,1.6689,1.6689,1.6689,-1.7924,-1.7867,-1.7897,-1.7816,-1.777,-1.8045,-1.8376,-1.868,-1.8333,-1.7581,-1.7209,-1.6864,-1.6175,-1.6059,-1.6585,-1.6941,-1.7375,-1.7893,-1.8471,-1.8528,-1.8116,-1.744,-1.6729,-1.6273,-1.5899,-1.5468,-1.5371,-1.5206,-1.5011,-1.4686,-1.43,-1.3791,-1.2658,-1.1725,-1.093,-1.0021,-0.9268,-0.8705,-0.8544,-0.8517,-0.8517,-0.8479,-0.7787,-0.6437,-0.5513,-0.449,-0.3697,-0.3137,-0.2845,-0.2798,-0.1853,-0.1358,-0.1102,-0.0791,-0.0339,0.0368,0.0758,0.1095,0.1487,0.2171,0.2724,0.2732,0.3653,0.4187,0.4342,0.4713,0.5069,0.5194,0.5281,0.5445,0.5543,0.5991,0.6284,0.6581,0.6876,0.7134,0.7396,0.7493,0.7527,0.7593,0.7693,0.7864,0.8353,0.872,0.9259,0.9883,1.0803,1.1484,1.1669,1.1818,1.2157,1.2305,1.2305,1.2643,1.2783,1.332,1.3985,1.4499,1.504,1.5526,1.6039,1.6055,1.6118,1.642,1.6634,1.6673,1.6673,1.6681,1.6689,1.6689,1.6689,1.6689,1.6689,1.6689,1.6689,-1.7827,-1.7317,-1.7347,-1.7471,-1.7715,-1.7767,-1.7617,-1.7303,-1.7334,-1.688,-1.6364,-1.5787,-1.5667,-1.5795,-1.6192,-1.6965,-1.7788,-1.8289,-1.8454,-1.8447,-1.8007,-1.7318,-1.6552,-1.6296,-1.5941,-1.5565,-1.541,-1.5362,-1.5157,-1.4795,-1.4231,-1.3601,-1.2566,-1.1632,-1.0818,-0.997,-0.93,-0.8861,-0.8641,-0.8517,-0.8517,-0.8349,-0.7657,-0.6166,-0.5367,-0.4442,-0.3485,-0.3065,-0.2786,-0.234,-0.1658,-0.12,-0.0838,-0.0407,0.0029,0.0412,0.0813,0.1132,0.1563,0.2305,0.2887,0.3317,0.404,0.4605,0.4864,0.5105,0.5272,0.5411,0.5599,0.5858,0.621,0.6383,0.6843,0.7167,0.7293,0.7391,0.7461,0.7503,0.755,0.7645,0.7683,0.7903,0.8513,0.9157,0.983,1.041,1.1119,1.1731,1.2003,1.2083,1.2244,1.2311,1.2305,1.279,1.3229,1.3889,1.4523,1.4962,1.5445,1.5738,1.6103,1.6166,1.6341,1.657,1.6689,1.6689,1.6689,1.6689,1.6689,1.6689,1.6689,1.6689,1.6689,1.6689,1.6689,-1.7981,-1.8161,-1.7071,-1.7228,-1.7936,-1.7153,-1.7238,-1.7709,-1.6958,-1.6541,-1.6286,-1.5657,-1.5214,-1.545,-1.597,-1.6995,-1.803,-1.8438,-1.8392,-1.8186,-1.7606,-1.7022,-1.6324,-1.6181,-1.5826,-1.5497,-1.541,-1.5303,-1.5137,-1.4745,-1.4133,-1.3381,-1.2474,-1.1584,-1.0769,-0.9939,-0.9396,-0.9017,-0.87,-0.8517,-0.8447,-0.8252,-0.726,-0.617,-0.5305,-0.4421,-0.3379,-0.3034,-0.273,-0.2209,-0.1626,-0.1136,-0.0693,-0.0237,0.0211,0.0638,0.0901,0.1262,0.1836,0.2674,0.3364,0.3508,0.4356,0.4939,0.5132,0.5283,0.5455,0.5627,0.5561,0.5859,0.6317,0.6585,0.6811,0.7138,0.7363,0.7493,0.7493,0.7493,0.7598,0.7736,0.8032,0.8373,0.8842,0.9564,1.0336,1.0979,1.1568,1.1933,1.2268,1.2311,1.2318,1.2621,1.2736,1.3351,1.3844,1.4411,1.4987,1.5425,1.5769,1.6063,1.6246,1.6357,1.6484,1.6642,1.6689,1.6689,1.6689,1.6689,1.6689,1.6689,1.6689,1.6689,1.6689,1.6689,1.6689,-1.7869,-1.8668,-1.68,-1.6894,-1.7918,-1.6695,-1.6806,-1.7736,-1.6779,-1.6314,-1.6471,-1.5793,-1.5277,-1.5329,-1.6087,-1.7191,-1.8359,-1.8417,-1.8185,-1.7859,-1.7217,-1.6648,-1.6324,-1.6028,-1.5729,-1.5468,-1.542,-1.5274,-1.5,-1.4508,-1.3863,-1.307,-1.2259,-1.1522,-1.0713,-0.9901,-0.9396,-0.9081,-0.8668,-0.8511,-0.8252,-0.7792,-0.697,-0.584,-0.5213,-0.4331,-0.3253,-0.2878,-0.252,-0.2002,-0.1462,-0.0989,-0.0576,-0.012,0.0372,0.0881,0.106,0.1426,0.2057,0.3099,0.3661,0.3639,0.4698,0.5143,0.5283,0.5392,0.5594,0.5723,0.5822,0.5855,0.6317,0.6482,0.6712,0.7007,0.733,0.7493,0.7493,0.7526,0.7619,0.788,0.8317,0.8771,0.9209,0.9909,1.0668,1.1274,1.1866,1.2013,1.2305,1.2305,1.2409,1.2897,1.3321,1.4004,1.453,1.495,1.5451,1.5858,1.6103,1.6341,1.6484,1.6595,1.6594,1.6515,1.6689,1.6689,1.6689,1.6689,1.6689,1.6689,1.6689,1.6689,1.6689,1.6689,1.6689,-1.6976,-1.7213,-1.6361,-1.6366,-1.6889,-1.652,-1.6279,-1.6357,-1.6459,-1.6009,-1.5707,-1.5811,-1.5688,-1.5723,-1.6676,-1.765,-1.8042,-1.813,-1.7939,-1.7727,-1.7134,-1.6648,-1.6296,-1.6028,-1.5729,-1.5468,-1.542,-1.5245,-1.4902,-1.424,-1.3403,-1.2604,-1.188,-1.1122,-1.0555,-0.9837,-0.9518,-0.9332,-0.8797,-0.829,-0.7829,-0.7326,-0.6437,-0.5448,-0.4713,-0.4035,-0.3191,-0.2699,-0.2194,-0.1649,-0.1086,-0.0579,-0.0121,0.0245,0.0637,0.095,0.1136,0.1271,0.1903,0.3011,0.3854,0.3985,0.4782,0.5246,0.546,0.5588,0.5693,0.5462,0.5888,0.6251,0.6449,0.6646,0.7007,0.7237,0.7428,0.7493,0.7526,0.7684,0.7782,0.8139,0.8608,0.9031,0.9467,1.0218,1.095,1.1579,1.2068,1.2181,1.2371,1.2418,1.2811,1.3359,1.3885,1.4518,1.5131,1.5529,1.5795,1.6198,1.6333,1.6492,1.654,1.6532,1.6293,1.6285,1.6459,1.6618,1.6578,1.6594,1.6657,1.6689,1.6689,1.6689,1.6689,1.6689,1.6689,-1.6951,-1.7986,-1.6517,-1.6562,-1.7423,-1.6577,-1.657,-1.7028,-1.6536,-1.6168,-1.5967,-1.5863,-1.5789,-1.6046,-1.7015,-1.7472,-1.765,-1.8003,-1.7913,-1.755,-1.7032,-1.6637,-1.6296,-1.6028,-1.5719,-1.5468,-1.5391,-1.5254,-1.4813,-1.4121,-1.323,-1.2282,-1.1608,-1.0926,-1.0339,-0.9748,-0.9428,-0.9145,-0.8732,-0.8257,-0.7699,-0.7129,-0.6301,-0.515,-0.4589,-0.3896,-0.317,-0.2583,-0.2065,-0.1521,-0.0998,-0.0475,-0.0061,0.031,0.0675,0.1075,0.13,0.1712,0.2417,0.3291,0.3825,0.4325,0.4927,0.5455,0.5657,0.5822,0.5987,0.5991,0.6222,0.6453,0.6618,0.6815,0.7106,0.7363,0.7493,0.7493,0.7591,0.7847,0.8074,0.8458,0.8905,0.9419,0.991,1.0484,1.1184,1.1778,1.2111,1.2158,1.2438,1.2681,1.3255,1.3993,1.4491,1.5016,1.5625,1.6134,1.615,1.6397,1.6261,1.6397,1.6452,1.6381,1.6174,1.6111,1.6293,1.6364,1.6412,1.6554,1.6673,1.6689,1.6689,1.6689,1.6689,1.6689,1.6689,-1.7225,-1.8465,-1.6758,-1.681,-1.7899,-1.6668,-1.6832,-1.7793,-1.6847,-1.6448,-1.6412,-1.6079,-1.6081,-1.6662,-1.7394,-1.7697,-1.7467,-1.8234,-1.7977,-1.7462,-1.6959,-1.6609,-1.6285,-1.6017,-1.5729,-1.542,-1.542,-1.5254,-1.4784,-1.3992,-1.3017,-1.2104,-1.1428,-1.0737,-1.0104,-0.9652,-0.9326,-0.8861,-0.8441,-0.7987,-0.7461,-0.6933,-0.6005,-0.5147,-0.4444,-0.385,-0.3002,-0.2384,-0.1845,-0.1335,-0.0758,-0.0304,0.0,0.0439,0.0776,0.1213,0.1602,0.2385,0.2987,0.3591,0.4059,0.4558,0.506,0.5495,0.5693,0.5888,0.602,0.6156,0.6646,0.6782,0.6881,0.6975,0.7232,0.7396,0.7493,0.7493,0.7591,0.7977,0.8344,0.8749,0.9276,0.9997,1.0471,1.0829,1.1374,1.1991,1.2181,1.2181,1.2496,1.2911,1.3648,1.4408,1.5041,1.5511,1.604,1.6483,1.6531,1.6532,1.6397,1.6325,1.6389,1.6317,1.6142,1.6134,1.6134,1.6118,1.6142,1.6404,1.6689,1.6689,1.6689,1.6689,1.6689,1.6689,1.6689,-1.7639,-1.7715,-1.6996,-1.6971,-1.7413,-1.6998,-1.7057,-1.7584,-1.7134,-1.6863,-1.6658,-1.6315,-1.691,-1.7852,-1.8003,-1.8203,-1.8387,-1.8566,-1.7991,-1.7407,-1.6931,-1.6609,-1.6296,-1.597,-1.5739,-1.5449,-1.541,-1.5245,-1.4754,-1.3743,-1.3009,-1.2389,-1.1358,-1.0579,-0.9983,-0.953,-0.9081,-0.8608,-0.8155,-0.7587,-0.7031,-0.6437,-0.5613,-0.4683,-0.4253,-0.3747,-0.2539,-0.1992,-0.1499,-0.0986,-0.0434,0.0,0.0,0.0,0.0981,0.136,0.2171,0.2954,0.3625,0.3859,0.4092,0.4592,0.5093,0.5495,0.5627,0.6086,0.6218,0.6185,0.6773,0.7073,0.7138,0.7199,0.7396,0.7493,0.7601,0.7761,0.7914,0.8236,0.8641,0.8998,0.9619,1.0381,1.0852,1.1221,1.1509,1.2064,1.2395,1.2409,1.2736,1.3231,1.4012,1.4779,1.5493,1.6024,1.6454,1.6657,1.6626,1.657,1.65,1.6397,1.6341,1.6214,1.6007,1.596,1.592,1.5872,1.5912,1.6269,1.6507,1.6642,1.6689,1.6689,1.6689,1.6689,1.6689,-1.7738,-1.8283,-1.8027,-1.792,-1.7914,-1.7798,-1.7946,-1.8182,-1.8124,-1.7777,-1.7223,-1.7138,-1.7317,-1.7819,-1.8226,-1.8199,-1.8101,-1.8147,-1.7655,-1.72,-1.6818,-1.6524,-1.62,-1.5941,-1.5729,-1.5468,-1.5381,-1.5381,-1.5118,-1.3704,-1.313,-1.2428,-1.1296,-1.0383,-0.9754,-0.9242,-0.8765,-0.8447,-0.7959,-0.7428,-0.6859,-0.6137,-0.5315,-0.4417,-0.4056,-0.3453,-0.2504,-0.1894,-0.1349,-0.0827,-0.0286,0.0,0.0,0.0,0.1258,0.1641,0.2584,0.3391,0.4092,0.4292,0.4528,0.5027,0.5458,0.569,0.5693,0.6321,0.6453,0.6613,0.697,0.7297,0.704,0.7265,0.7493,0.7559,0.7709,0.7912,0.8303,0.8706,0.9178,0.969,1.0197,1.0836,1.1227,1.1577,1.1837,1.2131,1.2429,1.2701,1.2977,1.3393,1.4155,1.4874,1.5574,1.6137,1.6568,1.6673,1.6681,1.6618,1.6587,1.6492,1.6357,1.5975,1.5801,1.5753,1.5729,1.5705,1.5833,1.6142,1.6381,1.6515,1.6634,1.6689,1.6689,1.6689,1.6689,-1.8177,-1.8732,-1.9119,-1.9022,-1.8578,-1.8578,-1.8647,-1.8746,-1.8577,-1.8147,-1.7474,-1.7548,-1.7634,-1.7793,-1.8276,-1.839,-1.8139,-1.7982,-1.7451,-1.7032,-1.6666,-1.6343,-1.6046,-1.5845,-1.5729,-1.5468,-1.5381,-1.5352,-1.4874,-1.3644,-1.294,-1.2243,-1.1327,-1.0326,-0.9524,-0.8861,-0.8447,-0.8155,-0.7722,-0.7199,-0.6597,-0.5811,-0.5084,-0.4287,-0.3823,-0.3054,-0.2243,-0.1552,-0.1042,-0.0616,-0.0194,0.0032,0.0,0.0857,0.1506,0.2181,0.295,0.3825,0.4392,0.4827,0.4994,0.5326,0.5528,0.5727,0.602,0.642,0.6519,0.6646,0.7101,0.7363,0.7073,0.7363,0.7652,0.7749,0.7944,0.818,0.8849,0.9361,0.9888,1.0436,1.0929,1.1362,1.1522,1.1824,1.1997,1.2191,1.2305,1.2614,1.2891,1.3435,1.418,1.485,1.5518,1.6104,1.6577,1.6515,1.6451,1.661,1.6547,1.6555,1.6365,1.5983,1.5768,1.576,1.572,1.5578,1.5658,1.5848,1.6158,1.6436,1.6554,1.6689,1.6689,1.6689,1.6689,-1.9201,-1.8879,-2.0015,-2.0001,-1.9185,-1.9177,-1.9043,-1.8784,-1.8285,-1.7706,-1.7208,-1.74,-1.7821,-1.8194,-1.8685,-1.8661,-1.8398,-1.8097,-1.7512,-1.6835,-1.6438,-1.6132,-1.596,-1.5787,-1.5613,-1.5439,-1.5294,-1.4971,-1.4273,-1.3364,-1.2634,-1.1865,-1.0975,-1.0136,-0.9486,-0.8829,-0.8257,-0.7731,-0.726,-0.6732,-0.6141,-0.5352,-0.4688,-0.4256,-0.3456,-0.2621,-0.1896,-0.1261,-0.072,-0.0227,0.0,0.0,0.0458,0.1293,0.1942,0.2414,0.372,0.4425,0.4658,0.5093,0.5329,0.5392,0.5557,0.569,0.5921,0.6255,0.6585,0.6782,0.7232,0.7461,0.7461,0.7554,0.7814,0.8004,0.8199,0.8772,0.9462,0.9959,1.0472,1.1004,1.1477,1.1886,1.198,1.21,1.2191,1.2291,1.2298,1.2533,1.294,1.3564,1.4333,1.4978,1.5633,1.5823,1.6196,1.623,1.6277,1.6428,1.6467,1.6397,1.6349,1.6126,1.592,1.5816,1.5608,1.5449,1.5457,1.5521,1.5872,1.6261,1.6547,1.6689,1.6689,1.6689,1.6689,-1.8267,-1.8747,-1.9196,-1.9442,-1.9503,-1.9548,-1.935,-1.8964,-1.8338,-1.7915,-1.7839,-1.8029,-1.8347,-1.8671,-1.869,-1.8701,-1.8459,-1.7496,-1.6835,-1.6524,-1.6171,-1.5874,-1.5671,-1.5584,-1.5439,-1.5196,-1.5079,-1.4677,-1.3893,-1.3031,-1.242,-1.1679,-1.0559,-0.9805,-0.9358,-0.8829,-0.8225,-0.7727,-0.7195,-0.6629,-0.6042,-0.5084,-0.442,-0.4251,-0.318,-0.2262,-0.1576,-0.1017,-0.049,-0.0065,0.0,0.0,0.066,0.1475,0.2245,0.2915,0.4087,0.4758,0.499,0.5326,0.5395,0.5458,0.5591,0.5756,0.5958,0.6449,0.6716,0.6946,0.7297,0.7461,0.7493,0.7814,0.8107,0.8328,0.8679,0.9523,1.0211,1.0558,1.0995,1.1535,1.2044,1.2064,1.2131,1.2158,1.2265,1.2506,1.26,1.2952,1.3373,1.3954,1.4629,1.5224,1.5714,1.5731,1.5771,1.5764,1.5795,1.5919,1.6031,1.6039,1.6015,1.6095,1.6039,1.5911,1.5577,1.5282,1.5401,1.5545,1.5713,1.6031,1.6404,1.6673,1.6689,1.6689,1.6689,-1.786,-1.8672,-1.8702,-1.9076,-1.9648,-1.9723,-1.9527,-1.9142,-1.8505,-1.8227,-1.8366,-1.8559,-1.8668,-1.8758,-1.8815,-1.8506,-1.829,-1.7357,-1.6637,-1.6296,-1.5902,-1.5642,-1.5468,-1.5391,-1.5274,-1.5029,-1.4695,-1.4261,-1.3252,-1.2604,-1.1834,-1.0968,-1.0085,-0.9582,-0.9139,-0.8603,-0.7889,-0.7363,-0.683,-0.6305,-0.5679,-0.4912,-0.4229,-0.3704,-0.2865,-0.1837,-0.1328,-0.0839,0.0,0.0,0.0131,0.0429,0.1036,0.1844,0.2748,0.3651,0.4386,0.5027,0.5292,0.5359,0.5395,0.5428,0.5723,0.5958,0.6123,0.6585,0.6909,0.7138,0.7363,0.7554,0.7749,0.8107,0.8425,0.8651,0.9323,1.0155,1.0744,1.1061,1.1415,1.1984,1.2191,1.2225,1.2245,1.2265,1.2298,1.26,1.2905,1.332,1.3645,1.41,1.4562,1.5049,1.5271,1.5117,1.5118,1.5219,1.5257,1.5409,1.5568,1.5777,1.592,1.6039,1.5999,1.588,1.5388,1.5118,1.538,1.5578,1.5801,1.6095,1.642,1.661,1.6673,1.6689,1.6689,-1.8057,-1.8627,-1.8687,-1.9106,-1.969,-1.9796,-1.9599,-1.9257,-1.8744,-1.8579,-1.8652,-1.8902,-1.8846,-1.8631,-1.8941,-1.8632,-1.7897,-1.7207,-1.6673,-1.62,-1.5729,-1.5497,-1.5439,-1.5391,-1.5098,-1.4804,-1.438,-1.3644,-1.2543,-1.1927,-1.1132,-1.0288,-0.9773,-0.9268,-0.8759,-0.8079,-0.7461,-0.7031,-0.6535,-0.6046,-0.5455,-0.4731,-0.4098,-0.344,-0.2439,-0.1556,-0.0935,-0.0421,0.0,0.0,0.0302,0.1005,0.1811,0.2714,0.3618,0.4456,0.5126,0.5292,0.5399,0.5399,0.5468,0.5538,0.5818,0.6069,0.6354,0.6683,0.7007,0.7335,0.7559,0.7847,0.8102,0.8458,0.8812,0.9329,0.9917,1.0603,1.1199,1.1549,1.187,1.2144,1.2245,1.2291,1.2285,1.2305,1.2342,1.267,1.2998,1.3282,1.3581,1.3703,1.4149,1.4456,1.4552,1.4287,1.4349,1.457,1.4835,1.4993,1.5405,1.5664,1.5801,1.588,1.5721,1.5483,1.5062,1.4975,1.5261,1.5586,1.5912,1.619,1.6293,1.6562,1.6642,1.6681,1.6705,-1.7384,-1.8027,-1.8491,-1.9361,-2.0299,-2.0228,-1.9833,-1.9279,-1.8935,-1.892,-1.9169,-1.9043,-1.8932,-1.8993,-1.8835,-1.8255,-1.7556,-1.687,-1.6389,-1.5941,-1.5613,-1.5468,-1.5391,-1.5323,-1.4854,-1.4291,-1.3743,-1.3061,-1.1849,-1.1202,-1.0598,-0.9748,-0.9582,-0.9011,-0.8236,-0.7456,-0.7129,-0.6765,-0.6305,-0.5851,-0.5288,-0.4614,-0.3999,-0.3242,-0.213,-0.1319,-0.0742,-0.0262,0.0,0.0,0.0367,0.0973,0.1878,0.2748,0.3685,0.499,0.5326,0.5395,0.5412,0.5494,0.5606,0.577,0.6108,0.6305,0.6498,0.6745,0.7138,0.7493,0.7782,0.8069,0.849,0.8877,0.9262,0.9757,1.034,1.0881,1.145,1.175,1.2031,1.2204,1.2305,1.2305,1.2305,1.2305,1.2378,1.2753,1.3059,1.3336,1.3564,1.369,1.3859,1.4184,1.3966,1.3755,1.3819,1.4022,1.4358,1.4652,1.5149,1.5531,1.5658,1.5658,1.5427,1.5213,1.4998,1.5014,1.5165,1.5491,1.5793,1.5769,1.588,1.6301,1.6594,1.6642,1.6689,-1.7488,-1.8147,-1.8822,-1.9763,-2.07,-2.055,-2.0162,-1.9745,-1.9288,-1.9278,-1.9645,-1.9271,-1.9024,-1.885,-1.8494,-1.7897,-1.7151,-1.6627,-1.6171,-1.5902,-1.5555,-1.5449,-1.5391,-1.5147,-1.4588,-1.3893,-1.3161,-1.2489,-1.1428,-1.0807,-1.0231,-0.9588,-0.9486,-0.8753,-0.7912,-0.726,-0.683,-0.647,-0.6079,-0.5719,-0.517,-0.444,-0.3758,-0.3042,-0.1898,-0.1088,0.0,0.0,0.0,0.0295,0.0669,0.1508,0.248,0.3449,0.4217,0.5326,0.5395,0.5395,0.5409,0.5463,0.5661,0.5914,0.6283,0.6493,0.6726,0.697,0.7358,0.7749,0.8037,0.8361,0.8877,0.9358,0.9748,1.0136,1.066,1.1189,1.153,1.183,1.2051,1.2245,1.2305,1.2305,1.2305,1.2305,1.2435,1.2795,1.3151,1.3449,1.3641,1.3806,1.3899,1.4067,1.3622,1.3243,1.3397,1.3629,1.3999,1.4494,1.5172,1.5478,1.5564,1.5531,1.5396,1.5237,1.5078,1.5094,1.511,1.5324,1.5601,1.5562,1.5705,1.6158,1.6475,1.6602,1.669,-1.8177,-1.873,-1.9489,-2.0249,-2.0957,-2.0751,-2.0597,-2.0462,-1.9633,-1.9584,-1.9902,-1.9423,-1.8886,-1.8494,-1.8061,-1.7484,-1.6881,-1.6353,-1.6028,-1.5874,-1.5555,-1.5391,-1.5147,-1.4854,-1.4163,-1.3494,-1.2757,-1.1996,-1.1327,-1.0674,-1.0104,-0.9518,-0.9326,-0.8651,-0.7587,-0.6994,-0.6502,-0.6046,-0.5719,-0.5422,-0.5018,-0.4219,-0.3211,-0.2574,-0.1558,0.0,0.0,0.0,0.0164,0.0733,0.1375,0.2213,0.3416,0.4386,0.5123,0.5326,0.5395,0.5395,0.5409,0.5457,0.5673,0.5951,0.6234,0.6618,0.694,0.7171,0.7554,0.7977,0.8269,0.878,0.9294,0.9748,1.0136,1.0464,1.0877,1.1236,1.147,1.1817,1.2164,1.2305,1.2305,1.2305,1.2305,1.2311,1.254,1.2857,1.3154,1.348,1.3763,1.3954,1.3947,1.3981,1.3432,1.3089,1.3184,1.3456,1.3748,1.4291,1.504,1.5502,1.5626,1.5531,1.5388,1.5213,1.503,1.5006,1.5046,1.5324,1.5577,1.5554,1.5753,1.6111,1.6365,1.6588,1.7016,-1.9016,-1.8847,-2.018,-2.076,-2.0751,-2.0955,-2.0755,-2.0227,-1.9559,-1.9416,-1.9566,-1.9054,-1.8494,-1.8061,-1.7667,-1.7123,-1.6485,-1.6171,-1.5816,-1.5613,-1.541,-1.5147,-1.4854,-1.443,-1.3696,-1.281,-1.2081,-1.15,-1.0895,-1.0396,-0.9945,-0.9454,-0.9032,-0.8102,-0.7228,-0.6634,-0.6145,-0.569,-0.5458,-0.515,-0.4719,-0.4001,-0.3069,-0.2216,-0.1236,-0.0519,0.0,0.0,0.0,0.1074,0.1576,0.2681,0.4187,0.499,0.5326,0.5395,0.5395,0.5395,0.5449,0.5524,0.5803,0.6156,0.6485,0.688,0.7197,0.7386,0.7722,0.8177,0.8657,0.9198,0.9684,1.0104,1.0449,1.0763,1.1069,1.1256,1.145,1.1857,1.2265,1.2305,1.2305,1.2305,1.2305,1.2425,1.2668,1.2914,1.3167,1.3453,1.3866,1.4118,1.3966,1.3884,1.3315,1.3033,1.3175,1.3461,1.3836,1.4245,1.4916,1.5338,1.5626,1.5388,1.5149,1.5086,1.4982,1.5006,1.5149,1.5475,1.5626,1.5602,1.5856,1.6238,1.6549,1.6823,1.7376,-1.9394,-1.9092,-2.005,-2.08,-2.1125,-2.0908,-2.051,-2.0042,-1.9291,-1.8895,-1.8815,-1.8441,-1.8061,-1.765,-1.7279,-1.6775,-1.62,-1.5989,-1.5729,-1.5468,-1.5147,-1.4951,-1.4558,-1.3944,-1.3183,-1.2328,-1.1562,-1.0951,-1.0586,-1.0206,-0.9817,-0.939,-0.8619,-0.7744,-0.6929,-0.6371,-0.5848,-0.5428,-0.5226,-0.4797,-0.4298,-0.3448,-0.2633,-0.1767,-0.0931,0.0,0.0,0.0,0.0,0.1643,0.2581,0.3616,0.4722,0.5226,0.5359,0.5395,0.5395,0.5395,0.5456,0.5661,0.5933,0.6301,0.6651,0.699,0.7461,0.7728,0.8254,0.8706,0.9119,0.9652,1.004,1.046,1.0631,1.0889,1.1196,1.1456,1.1737,1.2098,1.2298,1.2305,1.2305,1.2305,1.2305,1.2311,1.2581,1.3027,1.3282,1.3528,1.3929,1.4179,1.4062,1.3925,1.3483,1.3311,1.3509,1.3775,1.4119,1.4507,1.4777,1.5127,1.538,1.5118,1.4867,1.4967,1.5038,1.511,1.53,1.5594,1.5674,1.5642,1.5975,1.6373,1.6718,1.7104,1.7784,-1.9727,-1.9542,-1.967,-2.0511,-2.1592,-2.0623,-2.0067,-1.9786,-1.8948,-1.8317,-1.7979,-1.7854,-1.7567,-1.729,-1.6842,-1.6361,-1.596,-1.5642,-1.5439,-1.5206,-1.4804,-1.4508,-1.3983,-1.3342,-1.2581,-1.1849,-1.1115,-1.0832,-1.0586,-1.0142,-0.9652,-0.9262,-0.8484,-0.7614,-0.6892,-0.6272,-0.5719,-0.5246,-0.4827,-0.4151,-0.3512,-0.2861,-0.2113,-0.1302,0.0,0.0,0.0,0.0,0.0,0.2112,0.3518,0.4522,0.5024,0.5359,0.5359,0.5395,0.5395,0.5425,0.5538,0.5811,0.6133,0.6469,0.6771,0.7193,0.7687,0.8245,0.8783,0.9294,0.974,1.0046,1.0444,1.0728,1.0875,1.1029,1.1363,1.1677,1.1997,1.2311,1.2358,1.2371,1.2385,1.2385,1.2438,1.2425,1.2665,1.3105,1.345,1.3713,1.3947,1.4062,1.4096,1.4104,1.3926,1.3874,1.3831,1.3951,1.417,1.4201,1.4446,1.4866,1.5189,1.5173,1.5118,1.4985,1.5094,1.5276,1.5427,1.5666,1.5697,1.5785,1.615,1.6564,1.7024,1.7493,1.8232,-2.0754,-2.1055,-2.0138,-2.0288,-2.0988,-2.0144,-1.9694,-1.95,-1.8521,-1.7963,-1.7717,-1.7245,-1.6937,-1.6881,-1.6304,-1.5931,-1.5787,-1.5381,-1.503,-1.4775,-1.4359,-1.3971,-1.345,-1.2734,-1.1849,-1.1202,-1.0776,-1.0649,-1.0396,-0.9881,-0.9326,-0.8833,-0.7707,-0.6929,-0.6338,-0.5811,-0.5348,-0.4926,-0.4317,-0.3619,-0.2727,-0.215,-0.171,-0.1006,0.0,0.0,0.0,0.0,0.1208,0.2577,0.4118,0.5027,0.5329,0.5395,0.5395,0.5395,0.5395,0.5579,0.5729,0.6034,0.6378,0.6818,0.7187,0.7648,0.8213,0.8918,0.9502,1.0112,1.0491,1.0616,1.0923,1.1076,1.1263,1.139,1.163,1.1897,1.2191,1.2445,1.265,1.267,1.269,1.2759,1.2919,1.2913,1.2913,1.3264,1.3487,1.3763,1.4014,1.4065,1.4088,1.4135,1.42,1.4053,1.3866,1.3881,1.4024,1.399,1.4186,1.4786,1.5251,1.5483,1.5419,1.5292,1.5388,1.5586,1.5729,1.5872,1.6015,1.6166,1.6436,1.6789,1.7236,1.7736,1.8386]},{"header":{"parameterUnit":"m.s-1","parameterCategory":1,"la1":31.0,"la2":29.5877,"lo1":-88.7671,"lo2":-86.6584,"dy":0.0162,"dx":0.0185,"nx":115,"ny":88,"refTime":"2024-02-21T06:00:00:Z","depth":0,"parameterNumber":3,"parameterNumberName":"V-component_of_WINDS"},"data":[0.0,0.0,0.0,0.0,0.0,0.0,0.0,0.0,0.0,0.0,0.0,0.0,0.0,0.0,0.0,0.0,0.0,0.0,0.0,0.0,0.0,0.0,0.0,0.0,0.0,0.0,0.0,0.0,0.0,0.0,0.0,0.0,0.0,0.0,0.0,0.0,0.0,0.0,0.0,0.0,0.0,0.0,0.0,0.0,0.0,0.0,0.0,0.0,0.0,0.0,0.0,0.0,0.0,0.0,0.0,0.0,0.0,0.0,0.0,0.0,0.0,0.0,0.0,0.0,0.0,0.0,0.0,0.0,0.0,0.0,0.0,0.0,0.0,0.0,0.0,0.0,0.0,0.0,0.0,0.0,0.0,0.0,0.0,0.0,0.0,0.0,0.0,0.0,0.0,0.0,0.0,0.0,0.0,0.0,0.0,0.0,0.0,0.0,0.0,0.0,0.0,0.0,0.0,0.0,0.0,0.0,0.0,0.0,0.0,0.0,0.0,0.0,0.0,0.0,0.0,0.0,0.0,0.0,0.0,0.0,0.0,0.0,0.0,0.0,0.0,0.0,0.0,0.0,0.0,0.0,0.0,0.0,0.0,0.0,0.0,0.0,0.0,0.0,0.0,0.0,0.0,0.0,0.0,0.0,0.0,0.0,0.0,0.0,0.0,0.0,0.0,0.0,0.0,0.0,0.0,0.0,0.0,0.0,0.0,0.0,0.0,0.0,0.0,0.0,0.0,0.0,0.0,0.0,0.0,0.0,0.0,0.0,0.0,0.0,0.0,0.0,0.0,0.0,0.0,0.0,0.0,0.0,0.0,0.0,0.0,0.0,0.0,0.0,0.0,0.0,0.0,0.0,0.0,0.0,0.0,0.0,0.0,0.0,0.0,0.0,0.0,0.0,0.0,0.0,0.0,0.0,0.0,0.0,0.0,0.0,0.0,0.0,0.0,0.0,0.0,0.0,0.0,0.0,0.0,0.0,0.0,0.0,0.0,0.0,0.0,0.0,0.0,0.0,0.0,0.0,0.0,0.0,0.0,0.0,0.0,0.0,0.0,0.0,0.0,0.0,0.0,0.0,0.0,0.0,0.0,0.0,0.0,0.0,0.0,0.0,0.0,0.0,0.0,0.0,0.0,0.0,0.0,0.0,0.0,0.0,0.0,0.0,0.0,0.0,0.0,0.0,0.0,0.0,0.0,0.0,0.0,0.0,0.0,0.0,0.0,0.0,0.0,0.0,0.0,0.0,0.0,0.0,0.0,0.0,0.0,0.0,0.0,0.0,0.0,0.0,0.0,0.0,0.0,0.0,0.0,0.0,0.0,0.0,0.0,0.0,0.0,0.0,0.0,0.0,0.0,0.0,0.0,0.0,0.0,0.0,0.0,0.0,0.0,0.0,0.0,0.0,0.0,0.0,0.0,0.0,0.0,0.0,0.0,0.0,0.0,0.0,0.0,0.0,0.0,0.0,0.0,0.0,0.0,0.0,0.0,0.0,0.0,0.0,0.0,0.0,0.0,0.0,0.0,0.0,0.0,0.0,0.0,0.0,0.0,0.0,0.0,0.0,0.0,0.0,0.0,0.0,0.0,0.0,0.0,0.0,0.0,0.0,0.0,0.0,0.0,0.0,0.0,0.0,0.0,0.0,0.0,0.0,0.0,0.0,0.0,0.0,0.0,0.0,0.0,0.0,0.0,0.0,0.0,0.0,0.0,0.0,0.0,0.0,0.0,0.0,0.0,0.0,0.0,0.0,0.0,0.0,0.0,0.0,0.0,0.0,0.0,0.0,0.0,0.0,0.0,0.0,0.0,0.0,0.0,0.0,0.0,0.0,0.0,0.0,0.0,0.0,0.0,0.0,0.0,0.0,0.0,0.0,0.0,0.0,0.0,0.0,0.0,0.0,0.0,0.0,0.0,0.0,0.0,0.0,0.0,0.0,0.0,0.0,0.0,0.0,0.0,0.0,0.0,0.0,0.0,0.0,0.0,0.0,0.0,0.0,0.0,0.0,0.0,0.0,0.0,0.0,0.0,0.0,0.0,0.0,0.0,0.0,0.0,0.0,0.0,0.0,0.0,0.0,0.0,0.0,0.0,0.0,0.0,0.0,0.0,0.0,0.0,0.0,0.0,0.0,0.0,0.0,0.0,0.0,0.0,0.0,0.0,0.0,0.0,0.0,0.0,0.0,0.0,0.0,0.0,0.0,0.0,0.0,0.0,0.0,0.0,0.0,0.0,0.0,0.0,0.0,0.0,0.0,0.0,0.0,0.0,0.0,0.0,0.0,0.0,0.0,0.0,0.0,0.0,0.0,0.0,0.0,0.0,0.0,0.0,0.0,0.0,0.0,0.0,0.0,0.0,0.0,0.0,0.0,0.0,0.0,0.0,0.0,0.0,0.0,0.0,0.0,0.0,0.0,0.0,0.0,0.0,0.0,0.0,0.0,0.0,0.0,0.0,0.0,0.0,0.0,0.0,0.0,0.0,0.0,0.0,0.0,0.0,0.0,0.0,0.0,0.0,0.0,0.0,0.0,0.0,0.0,0.0,0.0,0.0,0.0,0.0,0.0,0.0,0.0,0.0,0.0,0.0,0.0,0.0,0.0,0.0,0.0,0.0,0.0,0.0,0.0,0.0,0.0,0.0,0.0,0.0,0.0,0.0,0.0,0.0,0.0,0.0,0.0,0.0,0.0,0.0,0.0,0.0,0.0,0.0,0.0,0.0,0.0,0.0,0.0,0.0,0.0,0.0,0.0,0.0,0.0,0.0,0.0,0.0,0.0,0.0,0.0,0.0,0.0,0.0,0.0,0.0,0.0,0.0,0.0,0.0,0.0,0.0,0.0,0.0,0.0,0.0,0.0,0.0,0.0,0.0,0.0,0.0,0.0,0.0,0.0,0.0,0.0,0.0,0.0,0.0,0.0,0.0,0.0,0.0,0.0,0.0,0.0,0.0,0.0,0.0,0.0,0.0,0.0,0.0,0.0,0.0,0.0,0.0,0.0,0.0,0.0,0.0,0.0,0.0,0.0,0.0,0.0,0.0,0.0,0.0,0.0,0.0,0.0,0.0,0.0,0.0,0.0,0.0,0.0,0.0,0.0,0.0,0.0,0.0,0.0,0.0,0.0,0.0,0.0,0.0,0.0,0.0,0.0,0.0,0.0,0.0,0.0,0.0,0.0,0.0,0.0,0.0,0.0,0.0,0.0,0.0,0.0,0.0,0.0,0.0,0.0,0.0,0.0,0.0,0.0,0.0,0.0,0.0,0.0,0.0,0.0,0.0,0.0,0.0,0.0,0.0,0.0,0.0,0.0,0.0,0.0,0.0,0.0,0.0,0.0,0.0,0.0,0.0,0.0,0.0,0.0,0.0,0.0,0.0,0.0,0.0,0.0,0.0,0.0,0.0,0.0,0.0,0.0,0.0,0.0,0.0,0.0,0.0,0.0,0.0,0.0,0.0,0.0,0.0,0.0,0.0,0.0,0.0,0.0,0.0,0.0,0.0,0.0,0.0,0.0,0.0,0.0,0.0,0.0,0.0,0.0,0.0,0.0,0.0,0.0,0.0,0.0,0.0,0.0,0.0,0.0,0.0,0.0,0.0,0.0,0.0,0.0,0.0,0.0,0.0,0.0,0.0,0.0,0.0,0.0,0.0,0.0,0.0,0.0,0.0,0.0,0.0,0.0,0.0,0.0,0.0,0.0,0.0,0.0,0.0,0.0,0.0,0.0,0.0,0.0,0.0,0.0,0.0,0.0,0.0,0.0,0.0,0.0,0.0,0.0,0.0,0.0,0.0,0.0,0.0,0.0,0.0,0.0,0.0,0.0,0.0,0.0,0.0,0.0,0.0,0.0,0.0,0.0,0.0,0.0,0.0,0.0,0.0,0.0,0.0,0.0,0.0,0.0,0.0,0.0,0.0,0.0,0.0,0.0,0.0,0.0,0.0,0.0,0.0,0.0,0.0,0.0,0.0,0.0,0.0,0.0,0.0,0.0,0.0,0.0,0.0,0.0,0.0,0.0,0.0,0.0,0.0,0.0,0.0,0.0,0.0,0.0,0.0,0.0,0.0,0.0,0.0,0.0,0.0,0.0,0.0,0.0,0.0,0.0,0.0,0.0,0.0,0.0,0.0,0.0,0.0,0.0,0.0,0.0,0.0,0.0,0.0,0.0,0.0,0.0,0.0,0.0,0.0,0.0,0.0,0.0,0.0,0.0,0.0,0.0,0.0,0.0,0.0,0.0,0.0,0.0,0.0,0.0,0.0,0.0,0.0,0.0,0.0,0.0,0.7013,0.0,0.0,0.0,0.0,0.0,0.0,0.0,0.0,0.0,0.0,0.0,0.0,0.0,0.0,0.0,0.0,0.0,0.0,0.0,0.0,0.0,0.0,0.0,0.0,0.0,0.0,0.0,0.0,0.0,0.0,0.0,0.0,0.0,0.0,0.0,0.0,0.0,0.0,0.0,0.0,0.0,0.0,0.0,0.0,0.0,0.0,0.0,0.0,0.0,0.0,0.0,0.0,0.0,0.0,0.0,0.0,0.0,0.0,0.0,0.0,0.0,0.0,0.0,0.0,0.0,0.0,0.0,0.0,0.0,0.0,0.0,0.0,0.0,0.0,0.0,0.0,0.0,0.0,0.0,0.0,0.0,0.0,0.0,0.0,0.0,0.0,0.0,0.0,0.0,0.0,0.0,0.0,0.0,0.0,0.0,0.0,0.0,0.0,0.0,0.0,0.0,0.0,0.0,0.0,0.0,0.0,0.0,0.0,0.0,0.0,0.735,0.702,0.7337,0.7503,0.7482,0.0,0.0,0.0,0.0,0.0,0.0,0.0,0.0,0.0,0.0,0.0,0.0,0.0,0.0,0.0,0.0,0.0,0.0,0.0,0.0,0.0,0.0,0.0,0.0,0.0,0.0,0.0,0.0,0.0,0.0,0.0,0.0,0.0,0.0,0.0,0.0,0.0,0.0,0.0,0.0,0.0,0.0,0.0,0.0,0.0,0.0,0.0,0.0,0.0,0.0,0.0,0.0,0.0,0.0,0.0,0.0,0.0,0.0,0.0,0.0,0.0,0.0,0.0,0.0,0.0,0.0,0.0,0.0,0.0,0.0,0.0,0.0,0.0,0.0,0.0,0.0,0.0,0.0,0.0,0.0,0.0,0.0,0.0,0.0,0.0,0.0,0.0,0.0,0.0,0.0,0.0,0.0,0.0,0.0,0.0,0.0,0.0,0.0,0.0,0.0,0.0,0.0,0.0,0.0,0.0,0.0,0.0,0.0,0.0,0.0,0.0,0.0,0.7568,0.7888,0.8221,0.0,0.0,0.0,0.0,0.0,0.0,0.0,0.0,0.0,0.0,0.0,0.0,0.0,0.0,0.0,0.0,0.0,0.0,0.0,0.0,0.0,0.0,0.0,0.0,0.0,0.0,0.0,0.0,0.0,0.0,0.0,0.0,0.0,0.0,0.0,0.0,0.0,0.0,0.0,0.0,0.0,0.0,0.0,0.0,0.0,0.0,0.0,0.0,0.0,0.0,0.0,0.0,0.0,0.0,0.0,0.0,0.0,0.0,0.0,0.0,0.0,0.0,0.0,0.0,0.0,0.0,0.0,0.0,0.0,0.0,0.0,0.0,0.0,0.0,0.0,0.0,0.0,0.0,0.0,0.0,0.0,0.0,0.0,0.0,0.0,0.0,0.0,0.0,0.0,0.0,0.0,0.0,0.0,0.0,0.0,0.0,0.0,0.0,0.0,0.0,0.0,0.0,0.0,0.0,0.0,0.0,0.0,0.0,0.0,0.0,0.741,0.8151,0.8334,0.0,0.9108,0.0,0.0,0.0,0.0,0.0,0.0,0.0,0.0,0.0,0.0,0.0,0.0,0.0,0.0,0.0,0.0,0.0,0.0,0.0,0.0,0.0,0.0,0.0,0.0,0.0,0.0,0.0,0.0,0.0,0.0,0.0,0.0,0.0,0.0,0.0,0.0,0.0,0.0,0.0,0.0,0.0,0.0,0.0,0.0,0.0,0.0,0.0,0.0,0.0,0.0,0.0,0.0,0.0,0.0,0.0,0.0,0.0,0.0,0.0,0.0,0.0,0.0,0.0,0.0,0.0,0.0,0.0,0.0,0.0,0.0,0.0,0.0,0.0,0.0,0.0,0.0,0.0,0.0,0.0,0.0,0.0,0.0,0.0,0.0,0.0,0.0,0.0,0.0,0.0,0.0,0.0,0.0,0.0,0.0,0.0,0.0,0.0,0.0,0.0,0.0,0.0,0.0,0.0,0.0,0.0,0.0,0.0,0.0,0.0,0.0,0.8016,0.8879,0.9247,0.9299,0.0,0.0,0.0,0.0,0.0,0.0,0.0,0.0,0.0,0.0,0.0,0.0,0.0,0.0,0.0,0.0,0.0,0.0,0.0,0.0,0.0,0.0,0.0,0.0,0.0,0.0,0.0,0.0,0.0,0.0,0.0,0.0,0.0,0.0,0.0,0.0,0.0,0.0,0.0,0.0,0.0,0.0,0.0,0.0,0.0,0.0,0.0,0.0,0.0,0.0,0.0,0.0,0.0,0.0,0.0,0.0,0.0,0.0,0.0,0.0,0.0,0.0,0.0,0.0,0.0,0.0,0.0,0.0,0.0,0.0,0.0,0.0,0.0,0.0,0.0,0.0,0.0,0.0,0.0,0.0,0.0,0.0,0.0,0.0,0.0,0.0,0.0,0.0,0.0,0.0,0.0,0.0,0.0,0.0,0.0,0.0,0.0,0.0,0.0,0.0,0.0,0.0,0.0,0.0,0.0,0.0,0.0,0.0,0.0,0.0,0.8569,0.8786,0.9641,0.9753,0.9649,0.939,0.0,0.0,0.0,0.0,0.0,0.0,0.0,0.0,0.0,0.0,0.0,0.0,0.0,0.0,0.0,0.0,0.0,0.0,0.0,0.0,0.0,0.0,0.0,0.0,0.0,0.0,0.0,0.0,0.0,0.0,0.0,0.0,0.0,0.0,0.0,0.0,0.0,0.0,0.0,0.0,0.0,0.0,0.0,0.0,0.0,0.0,0.0,0.0,0.0,0.0,0.0,0.0,0.0,0.0,0.0,0.0,0.0,0.0,0.0,0.0,0.0,0.0,0.0,0.0,0.0,0.0,0.0,0.0,0.0,0.0,0.0,0.0,0.0,0.0,0.0,0.0,0.0,0.0,0.0,0.0,0.0,0.0,0.0,0.0,0.0,0.0,0.0,0.0,0.0,0.0,0.0,0.0,0.0,0.0,0.0,0.0,0.0,0.0,0.0,0.0,0.0,0.0,0.0,0.0,0.0,0.0,0.0,0.0,0.9633,0.9393,0.9718,1.0631,0.963,0.9602,0.0,0.0,0.0,0.0,0.0,0.0,0.0,0.0,0.0,0.0,0.0,0.0,0.0,0.0,0.0,0.0,0.0,0.0,0.0,0.0,0.0,0.0,0.0,0.0,0.0,0.0,0.0,0.0,0.0,0.0,0.0,0.0,0.0,0.0,0.0,0.0,0.0,0.0,0.0,0.0,0.0,0.0,0.0,0.0,0.0,0.0,0.0,0.0,0.0,0.0,0.0,0.0,0.0,0.0,0.0,0.0,0.0,0.0,0.0,0.0,0.0,0.0,0.0,0.0,0.0,0.0,0.0,0.0,0.0,0.0,0.0,0.0,0.0,0.0,0.0,0.0,0.0,0.0,0.0,0.0,0.0,0.0,0.0,0.0,0.0,0.0,0.0,0.0,0.0,0.0,0.0,0.0,0.0,0.0,0.0,0.0,0.0,0.0,0.0,0.0,0.0,0.0,0.0,0.0,0.0,0.0,0.0,0.0,0.0,1.0091,1.0231,1.0235,1.0038,1.0147,1.0312,0.0,0.0,0.0,0.0,0.0,0.0,0.0,0.0,0.0,0.0,0.0,0.0,0.0,0.0,0.0,0.0,0.0,0.0,0.0,0.0,0.0,0.0,0.0,0.0,0.0,0.0,0.0,0.0,0.0,0.0,0.0,0.0,0.0,0.0,0.0,0.0,0.0,0.0,0.0,0.0,0.0,0.0,0.0,0.0,0.0,0.0,0.0,0.0,0.0,0.0,0.0,0.0,0.0,0.0,0.0,0.0,0.0,0.0,0.0,0.0,0.0,0.0,0.0,0.0,0.0,0.0,0.0,0.0,0.0,0.0,0.0,0.0,0.0,0.0,0.0,0.0,0.0,0.0,0.0,0.0,0.0,0.0,0.0,0.0,0.0,0.0,0.0,0.0,0.0,0.0,0.0,0.0,0.0,0.0,0.0,0.0,0.0,0.0,0.0,0.0,0.0,0.0,0.0,0.0,0.0,0.0,0.0,0.0,0.0,1.0508,0.0,1.0615,1.0069,1.0312,1.041,0.0,0.0,0.0,0.0,0.0,0.0,0.0,0.0,0.0,0.0,0.0,0.0,0.0,0.0,0.0,0.0,0.0,0.0,0.0,0.0,0.0,0.0,0.0,0.0,0.0,0.0,0.0,0.0,0.0,0.0,0.0,0.0,0.0,0.0,0.0,0.0,0.0,0.0,0.0,0.0,0.0,0.0,0.0,0.0,0.0,0.0,0.0,0.0,0.0,0.0,0.0,0.0,0.0,0.0,0.0,0.0,0.0,0.0,0.0,0.0,0.0,0.0,0.0,0.0,0.0,0.0,0.0,0.0,0.0,0.0,0.0,0.0,0.0,0.0,0.0,0.0,0.0,0.0,0.0,0.0,0.0,0.0,0.0,0.0,0.0,0.0,0.0,0.0,0.0,0.0,0.0,0.0,0.0,0.0,0.0,0.0,0.0,0.0,0.0,0.0,0.0,0.0,0.0,0.0,0.0,0.0,0.0,0.0,1.0967,1.0891,1.0879,1.087,1.0869,1.0088,0.9854,0.0,0.0,0.0,0.0,0.0,0.0,0.0,0.0,0.0,0.0,0.0,0.0,0.0,0.0,0.0,0.0,0.0,0.0,0.0,0.0,0.0,0.0,0.0,0.0,0.0,0.0,0.0,0.0,0.0,0.0,0.0,0.0,0.0,0.0,0.0,0.0,0.0,0.0,0.0,0.0,0.0,0.0,0.0,0.0,0.0,0.0,0.0,0.0,0.0,0.0,0.0,0.0,0.0,0.0,0.0,0.0,0.0,0.0,0.0,0.0,0.0,0.0,0.0,0.0,0.0,0.0,0.0,0.0,0.0,0.0,0.0,0.0,0.0,0.0,0.0,0.0,0.0,0.0,0.0,0.0,0.0,0.0,0.0,0.0,0.0,0.0,0.0,0.0,0.0,0.0,0.0,0.0,0.0,0.0,0.0,0.0,0.0,0.0,0.0,0.0,0.0,0.0,0.0,0.0,0.0,0.0,0.0,0.0,0.0,1.0911,1.0947,1.0919,1.0812,1.034,1.0283,0.0,0.0,0.0,0.0,0.0,0.0,0.0,0.0,0.0,0.0,0.0,0.0,0.0,0.0,0.0,0.0,0.0,0.0,0.0,0.0,0.0,0.0,0.0,0.0,0.0,0.0,0.0,0.0,0.0,0.0,0.0,0.0,0.0,0.0,0.0,0.0,0.0,0.0,0.0,0.0,0.0,0.0,0.0,0.0,0.0,0.0,0.0,0.0,0.0,0.0,0.0,0.0,0.0,0.0,0.0,0.0,0.0,0.0,0.0,0.0,0.0,0.0,0.0,0.0,0.0,0.0,0.0,0.0,0.0,0.0,0.0,0.0,0.0,0.0,0.0,0.0,0.0,0.0,0.0,0.0,0.0,0.0,0.0,0.0,0.0,0.0,0.0,0.0,0.0,0.0,0.0,0.0,0.0,0.0,0.0,0.0,0.0,0.0,0.0,0.0,0.0,0.0,0.0,0.0,0.0,0.0,0.0,0.0,0.0,1.1583,1.1116,1.0875,1.0866,1.0495,1.04,1.0684,0.0,0.0,0.0,0.0,0.0,0.0,0.0,0.0,0.0,0.0,0.0,0.0,0.0,0.0,0.0,0.0,0.0,0.0,0.0,0.0,0.0,0.0,0.0,0.0,0.0,0.0,0.0,0.0,0.0,0.0,0.0,0.0,0.0,0.0,0.0,0.0,0.0,0.0,0.0,0.0,0.0,0.0,0.0,0.0,0.0,0.0,0.0,0.0,0.0,0.0,0.0,0.0,0.0,0.0,0.0,0.0,0.0,0.0,0.0,0.0,0.0,0.0,0.0,0.0,0.0,0.0,0.0,0.0,0.0,0.0,0.0,0.0,0.0,0.0,0.0,0.0,0.0,0.0,0.0,0.0,0.0,0.0,0.0,0.0,0.0,0.0,0.0,0.0,0.0,0.0,0.0,0.0,0.0,0.0,0.0,0.0,0.0,0.0,0.0,0.0,0.0,0.0,0.0,0.0,0.0,0.0,0.0,0.0,1.2774,1.1519,1.0939,1.0951,1.0561,1.0322,0.0,0.0,0.0,0.0,0.0,0.0,0.0,0.0,0.0,0.0,0.0,0.0,0.0,0.0,0.0,0.0,0.0,0.0,0.0,0.0,0.0,0.0,0.0,0.0,0.0,0.0,0.0,0.0,0.0,0.0,0.0,0.0,0.0,0.0,0.0,0.0,0.0,0.0,0.0,0.0,0.0,0.0,0.0,0.0,0.0,0.0,0.0,0.0,0.0,0.0,0.0,0.0,0.0,0.0,0.0,0.0,0.0,0.0,0.0,0.0,0.0,0.0,0.0,0.0,0.0,0.0,0.0,0.0,0.0,0.0,0.0,0.0,0.0,0.0,0.0,0.0,0.0,0.0,0.0,0.0,0.0,0.0,0.0,0.0,0.0,0.0,0.0,0.0,0.0,0.0,0.0,0.0,0.0,0.0,0.0,0.0,0.0,0.0,0.0,0.0,0.0,0.0,0.0,0.0,0.0,0.0,0.0,0.0,0.0,1.3452,1.3224,1.2353,1.0788,1.0771,1.0675,0.0,0.0,0.0,0.0,0.0,0.0,0.0,0.0,0.0,0.0,0.0,0.0,0.0,0.0,0.0,0.0,0.0,0.0,0.0,0.0,0.0,0.0,0.0,0.0,0.0,0.0,0.0,0.0,0.0,0.0,0.0,0.0,0.0,0.0,0.0,0.0,0.0,0.0,0.0,0.0,0.0,0.0,0.0,0.0,0.0,0.0,0.0,0.0,0.0,0.0,0.0,0.0,0.0,0.0,0.0,0.0,0.0,0.0,0.0,0.0,0.0,0.0,0.0,0.0,0.0,0.0,0.0,0.0,0.0,0.0,0.0,0.0,0.0,0.0,0.0,0.0,0.0,0.0,0.0,0.0,0.0,0.0,0.0,0.0,0.0,0.0,0.0,0.0,0.0,0.0,0.0,0.0,0.0,0.0,0.0,0.0,0.0,0.0,0.0,0.0,0.0,0.0,0.0,0.0,0.0,0.0,0.0,0.0,1.4919,1.4457,1.4722,1.3821,1.1662,1.1635,1.1451,0.0,0.0,0.0,0.0,0.0,0.0,0.0,0.0,0.0,0.0,0.0,0.0,0.0,0.0,0.0,0.0,0.0,0.0,0.0,0.0,0.0,0.0,0.0,0.0,0.0,0.0,0.0,0.0,0.0,0.0,0.0,0.0,0.0,0.0,0.0,0.0,0.0,0.0,0.0,0.0,0.0,0.0,0.0,0.0,0.0,0.0,0.0,0.0,0.0,0.0,0.0,0.0,0.0,0.0,0.0,0.0,0.0,0.0,0.0,0.0,0.0,0.0,0.0,0.0,0.0,0.0,0.0,0.0,0.0,0.0,0.0,0.0,0.0,0.0,0.0,0.0,0.0,0.0,0.0,0.0,0.0,0.0,0.0,0.0,0.0,0.0,0.0,0.0,0.0,0.0,0.0,0.0,0.0,0.0,0.0,0.0,0.0,0.0,0.0,0.0,0.0,0.0,0.0,0.0,0.0,0.0,0.0,0.0,1.5815,1.5739,1.6064,1.5261,1.3291,1.283,1.237,0.0,0.0,0.0,0.0,0.0,0.0,0.0,0.0,0.0,0.0,0.0,0.0,0.0,0.0,0.0,0.0,0.0,0.0,0.0,0.0,0.0,0.0,0.0,0.0,0.0,0.0,0.0,0.0,0.0,0.0,0.0,0.0,0.0,0.0,0.0,0.0,0.0,0.0,0.0,0.0,0.0,0.0,0.0,0.0,0.0,0.0,0.0,0.0,0.0,0.0,0.0,0.0,0.0,0.0,0.0,0.0,0.0,0.0,0.0,0.0,0.0,0.0,0.0,0.0,0.0,0.0,0.0,0.0,0.0,0.0,0.0,0.0,0.0,0.0,0.0,0.0,0.0,0.0,0.0,0.0,0.0,0.0,0.0,0.0,0.0,0.0,0.0,0.0,0.0,0.0,0.0,0.0,0.0,0.0,0.0,0.0,0.0,0.0,0.0,0.0,0.0,0.0,0.0,0.0,0.0,0.0,0.0,0.0,1.7421,1.7326,1.759,1.6726,1.4631,1.3399,1.2454,0.0,0.0,0.0,0.0,0.0,0.0,0.0,0.0,0.0,0.0,0.0,0.0,0.0,0.0,0.0,0.0,0.0,0.0,0.0,0.0,0.0,0.0,0.0,0.0,0.0,0.0,0.0,0.0,0.0,0.0,0.0,0.0,0.0,0.0,0.0,0.0,0.0,0.0,0.0,0.0,0.0,0.0,0.0,0.0,0.0,0.0,0.0,0.0,1.5811,0.0,0.0,0.0,0.0,0.0,0.0,0.0,0.0,0.0,0.0,0.0,0.0,0.0,0.0,0.0,0.0,0.0,0.0,0.0,0.0,0.0,0.0,0.0,0.0,0.0,0.0,0.0,0.0,0.0,0.0,0.0,0.0,0.0,0.0,0.0,0.0,0.0,0.0,0.0,0.0,0.0,0.0,0.0,0.0,0.0,0.0,0.0,0.0,0.0,0.0,0.0,0.0,0.0,0.0,0.0,0.0,0.0,0.0,0.0,1.8426,1.8179,1.838,1.7454,1.5358,1.4337,1.3543,0.0,0.0,0.0,0.0,0.0,0.0,0.0,0.0,0.0,0.0,0.0,0.0,0.0,0.0,0.0,0.0,0.0,0.0,0.0,0.0,0.0,0.0,0.0,0.0,0.0,0.0,0.0,0.0,0.0,0.0,0.0,0.0,0.0,0.0,0.0,0.0,0.0,0.0,0.0,0.0,0.0,0.0,0.0,0.0,0.0,0.0,0.0,0.0,0.0,0.0,0.0,0.0,0.0,0.0,0.0,0.0,0.0,0.0,0.0,0.0,0.0,0.0,0.0,0.0,0.0,0.0,0.0,0.0,0.0,0.0,0.0,0.0,0.0,0.0,0.0,0.0,0.0,0.0,0.0,0.0,0.0,0.0,0.0,0.0,0.0,0.0,0.0,0.0,0.0,0.0,0.0,0.0,0.0,0.0,0.0,0.0,0.0,0.0,0.0,0.0,0.0,0.0,0.0,0.0,0.0,0.0,0.0,1.8818,1.915,1.8881,1.8947,1.7978,1.5854,1.5315,1.4813,1.4326,0.0,0.0,0.0,0.0,0.0,0.0,0.0,0.0,0.0,0.0,0.0,0.0,0.0,0.0,0.0,0.0,0.0,0.0,0.0,0.0,0.0,0.0,0.0,0.0,0.0,0.0,0.0,0.0,0.0,0.0,0.0,0.0,0.0,0.0,0.0,0.0,0.0,0.0,1.3182,1.3705,0.0,0.0,0.0,0.0,0.0,0.0,0.0,0.0,1.6391,0.0,0.0,0.0,0.0,0.0,0.0,0.0,0.0,0.0,0.0,0.0,0.0,0.0,0.0,0.0,0.0,0.0,0.0,0.0,0.0,0.0,0.0,0.0,0.0,0.0,0.0,0.0,0.0,0.0,0.0,0.0,0.0,0.0,0.0,0.0,0.0,0.0,0.0,0.0,0.0,0.0,0.0,0.0,0.0,0.0,0.0,0.0,0.0,0.0,0.0,0.0,0.0,0.0,0.0,0.0,0.0,1.9876,1.9717,1.9748,2.0005,1.9941,1.8825,1.6693,1.5787,1.5268,1.5079,0.0,0.0,0.0,0.0,0.0,0.0,0.0,0.0,0.0,0.0,0.0,0.0,0.0,0.0,0.0,0.0,0.0,0.0,0.0,0.0,0.0,0.0,0.0,0.0,0.0,0.0,0.0,0.0,0.0,0.0,0.0,0.0,0.0,0.0,0.0,0.0,0.0,0.0,0.0,1.5404,1.5284,0.0,0.0,0.0,0.0,0.0,0.0,0.0,0.0,1.6444,0.0,0.0,0.0,0.0,0.0,0.0,0.0,0.0,0.0,0.0,0.0,0.0,0.0,0.0,0.0,0.0,0.0,0.0,0.0,0.0,0.0,0.0,0.0,0.0,0.0,0.0,0.0,0.0,0.0,0.0,0.0,0.0,0.0,0.0,0.0,0.0,0.0,0.0,0.0,0.0,0.0,0.0,0.0,0.0,0.0,0.0,0.0,0.0,0.0,0.0,0.0,0.0,0.0,0.0,0.0,1.977,2.0,2.0133,2.0273,1.9899,1.8776,1.691,1.5883,1.5226,0.0,0.0,0.0,0.0,0.0,0.0,0.0,0.0,0.0,0.0,0.0,0.0,0.0,0.0,0.0,0.0,0.0,0.0,0.0,0.0,0.0,0.0,0.0,0.0,0.0,0.0,0.0,0.0,0.0,0.0,0.0,0.0,0.0,0.0,0.0,0.0,0.0,0.0,0.0,0.0,1.7185,1.6925,1.7398,0.0,0.0,0.0,0.0,0.0,0.0,1.6964,1.7221,0.0,0.0,0.0,0.0,0.0,0.0,0.0,0.0,0.0,0.0,0.0,0.0,0.0,0.0,0.0,0.0,0.0,0.0,0.0,0.0,0.0,0.0,0.0,0.0,0.0,0.0,0.0,0.0,0.0,0.0,0.0,0.0,0.0,0.0,0.0,0.0,0.0,0.0,0.0,0.0,0.0,0.0,0.0,0.0,0.0,0.0,0.0,0.0,0.0,0.0,0.0,0.0,0.0,0.0,0.0,1.9181,2.0003,2.0338,2.016,1.9624,1.8552,1.6926,1.5811,1.5041,0.0,0.0,0.0,0.0,0.0,0.0,0.0,0.0,0.0,0.0,0.0,0.0,0.0,0.0,0.0,0.0,0.0,0.0,0.0,0.0,0.0,0.0,0.0,0.0,0.0,0.0,0.0,0.0,0.0,0.0,0.0,0.0,0.0,0.0,0.0,0.0,0.0,0.0,0.0,0.0,0.0,1.88,1.9287,1.9607,0.0,0.0,0.0,0.0,1.8289,1.8394,0.0,0.0,0.0,0.0,0.0,0.0,0.0,0.0,0.0,0.0,0.0,0.0,0.0,0.0,0.0,0.0,0.0,0.0,0.0,0.0,0.0,0.0,0.0,0.0,0.0,0.0,0.0,0.0,0.0,0.0,0.0,0.0,0.0,0.0,0.0,0.0,0.0,0.0,0.0,0.0,0.0,0.0,0.0,0.0,0.0,0.0,0.0,0.0,0.0,0.0,0.0,0.0,0.0,0.0,0.0,0.0,1.8478,1.9845,2.0296,1.9801,1.9586,1.8629,1.6862,1.5659,1.4798,0.0,0.0,0.0,0.0,0.0,0.0,0.0,0.0,0.0,0.0,0.0,0.0,0.0,0.0,0.0,0.0,0.0,0.0,0.0,0.0,0.0,0.0,0.0,0.0,0.0,0.0,0.0,0.0,0.0,0.0,0.0,0.0,0.0,0.0,0.0,0.0,0.0,0.0,0.0,0.0,0.0,2.0505,1.9593,1.9852,2.0075,0.0,0.0,0.0,2.0757,2.103,0.0,0.0,0.0,0.0,0.0,0.0,0.0,0.0,0.0,0.0,0.0,0.0,0.0,0.0,0.0,0.0,0.0,0.0,0.0,0.0,0.0,0.0,0.0,0.0,0.0,0.0,0.0,0.0,0.0,0.0,0.0,0.0,0.0,0.0,0.0,0.0,0.0,0.0,0.0,0.0,0.0,0.0,0.0,0.0,0.0,0.0,0.0,0.0,0.0,0.0,0.0,0.0,0.0,0.0,0.0,1.8241,1.8334,1.9482,1.9959,1.9696,1.9199,1.8447,1.745,1.5735,1.481,0.0,0.0,0.0,0.0,0.0,0.0,0.0,0.0,0.0,0.0,0.0,0.0,0.0,0.0,0.0,0.0,0.0,0.0,0.0,0.0,0.0,0.0,0.0,0.0,0.0,0.0,0.0,0.0,0.0,0.0,0.0,0.0,0.0,0.0,0.0,0.0,0.0,0.0,0.0,0.0,0.0,0.0,2.0695,2.1603,0.0,0.0,0.0,2.2226,2.1382,0.0,0.0,0.0,0.0,0.0,0.0,0.0,0.0,0.0,0.0,0.0,0.0,0.0,0.0,0.0,0.0,0.0,0.0,0.0,0.0,0.0,0.0,0.0,0.0,0.0,0.0,0.0,0.0,0.0,0.0,0.0,0.0,0.0,0.0,0.0,0.0,0.0,0.0,0.0,0.0,0.0,0.0,0.0,0.0,0.0,0.0,0.0,0.0,0.0,0.0,0.0,0.0,0.0,0.0,0.0,0.0,0.0,1.8041,1.9159,1.9632,1.9398,1.8803,1.8213,1.7627,1.5967,0.0,0.0,0.0,0.0,0.0,0.0,0.0,0.0,0.0,0.0,0.0,0.0,0.0,0.0,0.0,0.0,0.0,0.0,0.0,0.0,0.0,0.0,0.0,0.0,0.0,0.0,0.0,0.0,0.0,0.0,0.0,0.0,0.0,0.0,0.0,0.0,0.0,0.0,0.0,0.0,0.0,0.0,2.2964,2.2175,2.3222,2.3902,0.0,0.0,2.399,2.2465,2.3926,2.4035,0.0,0.0,0.0,0.0,0.0,0.0,0.0,0.0,0.0,0.0,0.0,0.0,0.0,0.0,0.0,0.0,0.0,0.0,0.0,0.0,0.0,0.0,0.0,0.0,0.0,0.0,0.0,0.0,0.0,0.0,0.0,0.0,0.0,0.0,0.0,0.0,0.0,0.0,0.0,0.0,0.0,0.0,0.0,0.0,0.0,0.0,0.0,0.0,0.0,0.0,0.0,0.0,0.0,0.0,0.0,1.7264,1.8974,1.9461,1.8618,1.8526,1.7984,1.6898,1.6375,1.5707,0.0,0.0,0.0,0.0,0.0,0.0,0.0,0.0,0.0,0.0,0.0,0.0,0.0,0.0,0.0,0.0,0.0,0.0,0.0,0.0,0.0,0.0,0.0,0.0,0.0,0.0,0.0,0.0,0.0,0.0,0.0,0.0,0.0,0.0,0.0,0.0,0.0,0.0,0.0,0.0,0.0,2.496,2.4047,2.4129,2.4552,0.0,0.0,2.5321,2.5046,2.6598,2.6637,2.3022,0.0,0.0,0.0,0.0,0.0,0.0,0.0,0.0,0.0,0.0,0.0,0.0,0.0,0.0,0.0,0.0,0.0,0.0,0.0,0.0,0.0,0.0,0.0,0.0,0.0,0.0,0.0,0.0,0.0,0.0,0.0,0.0,0.0,0.0,0.0,0.0,0.0,0.0,0.0,0.0,0.0,0.0,0.0,0.0,0.0,0.0,0.0,0.0,0.0,0.0,0.0,0.0,0.0,1.7671,1.767,1.8663,1.9046,1.8807,1.8671,1.8396,1.785,1.6935,1.6026,0.0,0.0,0.0,0.0,0.0,0.0,0.0,0.0,0.0,0.0,0.0,0.0,0.0,0.0,0.0,0.0,0.0,0.0,0.0,0.0,0.0,0.0,0.0,0.0,0.0,0.0,0.0,0.0,1.6525,1.6795,1.7012,0.0,0.0,0.0,0.0,0.0,0.0,0.0,0.0,0.0,0.0,2.4638,2.4277,2.472,0.0,0.0,2.5988,2.6084,2.5513,2.6473,2.6282,2.3311,2.3566,0.0,0.0,0.0,0.0,0.0,0.0,0.0,0.0,0.0,0.0,0.0,0.0,0.0,0.0,0.0,0.0,0.0,0.0,0.0,0.0,0.0,0.0,0.0,0.0,0.0,0.0,0.0,0.0,0.0,0.0,0.0,0.0,0.0,0.0,0.0,0.0,0.0,0.0,0.0,0.0,0.0,0.0,0.0,0.0,0.0,0.0,0.0,0.0,0.0,0.0,0.0,0.0,1.7867,1.8338,1.8683,1.8905,1.9017,1.8869,1.8688,1.8491,1.7586,1.6708,0.0,0.0,0.0,0.0,0.0,0.0,0.0,0.0,0.0,0.0,0.0,0.0,0.0,0.0,0.0,0.0,0.0,0.0,0.0,0.0,0.0,0.0,0.0,0.0,0.0,0.0,0.0,0.0,1.7545,1.7904,1.8255,0.0,0.0,0.0,0.0,0.0,0.0,0.0,0.0,0.0,0.0,2.4681,2.4687,2.5213,2.5641,2.564,2.6322,2.6549,2.5687,2.6283,2.6121,2.4041,0.0,0.0,0.0,0.0,0.0,0.0,0.0,0.0,0.0,0.0,0.0,0.0,0.0,0.0,0.0,0.0,0.0,0.0,0.0,0.0,0.0,0.0,0.0,0.0,0.0,0.0,0.0,0.0,0.0,0.0,0.0,0.0,0.0,0.0,0.0,0.0,0.0,0.0,0.0,0.0,0.0,0.0,0.0,0.0,0.0,0.0,0.0,0.0,0.0,0.0,0.0,0.0,0.0,0.0,1.9079,1.9156,1.9119,1.9009,1.901,1.8843,1.8506,1.8273,1.7837,1.7138,0.0,0.0,0.0,0.0,0.0,0.0,0.0,0.0,0.0,0.0,0.0,0.0,0.0,0.0,0.0,0.0,0.0,0.0,0.0,0.0,0.0,0.0,0.0,0.0,0.0,0.0,1.7346,1.8194,1.9031,0.0,0.0,0.0,0.0,0.0,0.0,0.0,0.0,0.0,0.0,2.5038,2.5563,2.5568,2.5646,2.5713,2.5719,2.6442,2.6698,2.5858,2.6374,2.6599,0.0,0.0,0.0,0.0,0.0,0.0,0.0,0.0,0.0,0.0,0.0,0.0,0.0,0.0,0.0,0.0,0.0,0.0,0.0,0.0,0.0,0.0,0.0,0.0,0.0,0.0,0.0,1.0663,1.1046,0.0,0.0,0.0,0.0,0.0,0.0,0.0,0.0,0.0,0.0,0.0,1.4859,1.5181,0.0,0.0,0.0,0.0,0.0,0.0,0.0,0.0,0.0,0.0,0.0,0.0,1.9208,1.9588,1.9384,1.9338,1.9453,1.9248,1.9025,1.8851,1.852,1.7706,1.6377,0.0,0.0,0.0,0.0,0.0,0.0,0.0,0.0,0.0,0.0,0.0,0.0,0.0,0.0,0.0,0.0,0.0,0.0,0.0,0.0,0.0,0.0,0.0,0.0,0.0,1.8886,0.0,0.0,0.0,0.0,0.0,0.0,0.0,0.0,0.0,0.0,0.0,2.4461,2.5092,2.5449,2.566,2.5667,2.5686,2.5882,0.0,0.0,0.0,0.0,0.0,0.0,0.0,0.0,0.0,0.0,0.0,0.0,0.0,0.0,3.0888,2.8667,2.8047,2.7869,2.7869,0.0,0.0,0.0,0.0,0.0,0.0,0.0,0.0,0.0,0.0,0.0,0.0,0.0,0.0,0.0,0.0,1.2636,0.0,0.0,0.0,0.0,0.0,0.0,0.0,0.0,1.7401,1.7433,1.6685,1.7013,1.7209,0.0,1.7491,1.7059,0.0,0.0,0.0,0.0,0.0,0.0,0.0,0.0,1.9751,1.9864,1.9575,1.9481,1.9653,1.9398,1.918,1.9031,1.8578,1.779,1.6674,1.5773,1.4948,0.0,0.0,0.0,0.0,0.0,0.0,0.0,0.0,0.0,0.0,0.0,0.0,0.0,0.0,0.0,0.0,0.0,0.0,0.0,0.0,0.0,0.0,0.0,2.0308,0.0,0.0,0.0,0.0,0.0,0.0,0.0,0.0,0.0,2.4085,2.4458,2.4962,2.5508,2.566,2.5691,2.5666,0.0,0.0,0.0,0.0,0.0,0.0,0.0,2.6589,2.6858,2.7394,2.8143,2.928,3.0634,3.1716,3.2338,0.0,0.0,3.0449,2.9799,2.959,2.9608,2.9765,2.9844,2.9735,3.0109,3.025,0.0,0.0,0.0,0.0,0.0,0.0,0.0,0.0,1.397,1.4161,0.0,1.389,0.0,0.0,0.0,0.0,0.0,0.0,0.0,0.0,1.8497,1.8945,1.8826,1.8513,1.8235,1.7987,1.873,1.9079,1.8972,1.766,0.0,0.0,0.0,0.0,0.0,0.0,2.0276,1.9982,1.9773,1.9633,1.9614,1.9492,1.932,1.9115,1.8531,1.8153,1.7975,1.7487,1.6715,1.5605,1.6339,0.0,0.0,0.0,0.0,0.0,0.0,0.0,0.0,0.0,0.0,0.0,0.0,0.0,0.0,0.0,0.0,0.0,0.0,0.0,0.0,2.1077,0.0,0.0,0.0,0.0,0.0,0.0,0.0,0.0,0.0,0.0,2.4467,2.5071,2.5605,2.565,0.0,0.0,0.0,0.0,2.5771,2.5859,2.582,2.5879,2.5976,2.7284,2.8553,2.9374,0.0,0.0,3.2146,3.1566,3.1716,3.3181,3.3601,3.3457,3.3454,3.2706,3.2129,3.2087,3.1481,3.0803,3.0711,3.0902,3.0739,1.7086,0.0,0.0,0.0,0.0,1.6035,1.6263,1.6607,1.6653,1.6644,1.6542,1.6488,0.0,0.0,0.0,0.0,0.0,0.0,2.0293,1.9987,2.0722,2.0754,2.0226,2.0026,2.0168,2.0601,2.0713,2.0794,2.0747,2.0441,2.0206,2.0041,0.0,0.0,0.0,0.0,2.1161,2.1095,2.0775,2.0332,1.9757,1.9621,1.9438,1.9232,1.8833,1.8539,1.8288,1.837,1.79,1.6861,1.7427,0.0,0.0,0.0,0.0,0.0,0.0,0.0,0.0,0.0,0.0,0.0,0.0,0.0,0.0,0.0,0.0,0.0,0.0,0.0,2.029,2.2077,2.2788,0.0,0.0,0.0,0.0,0.0,0.0,0.0,0.0,0.0,2.5278,2.5469,2.5895,0.0,0.0,2.5833,2.6442,2.655,2.6989,2.8175,0.0,0.0,0.0,3.014,3.0125,3.0398,3.2292,3.3789,3.3814,3.5058,3.6235,3.6714,3.6759,3.6733,3.6721,3.5616,3.47,3.4598,3.4331,3.407,3.4002,3.3923,3.3588,1.9595,1.8188,1.8039,1.811,1.8356,1.8422,1.8534,1.8645,1.8672,1.8703,1.8759,1.864,1.8734,1.9029,1.9499,0.0,0.0,0.0,2.1588,2.1438,2.1884,2.1985,2.1741,2.1752,2.1936,2.227,2.2211,2.2157,2.2186,2.1972,2.2063,2.231,0.0,0.0,2.2223,2.2064,2.1706,2.1183,2.104,2.0615,1.982,1.9661,1.9541,1.9409,1.9138,1.9048,1.9153,1.9223,1.9023,1.8512,1.8834,1.8535,0.0,0.0,0.0,0.0,0.0,0.0,0.0,0.0,0.0,0.0,0.0,1.84,0.0,0.0,0.0,0.0,2.069,2.1026,2.1619,2.2793,0.0,0.0,0.0,0.0,0.0,0.0,0.0,2.558,2.5644,2.5765,2.6086,2.6113,2.6319,2.6852,2.6438,2.6385,2.725,0.0,2.7822,2.9194,2.9437,2.9957,3.1309,3.1701,3.208,3.3047,3.4668,3.5847,3.5902,3.7128,3.8156,3.8502,3.8543,3.8614,3.9,3.8177,3.725,3.6723,3.6491,3.625,3.586,3.569,3.537,2.1447,2.1305,2.0605,2.0506,2.0846,2.1023,2.0895,2.0556,2.0252,2.0483,2.1049,2.0396,2.0668,2.1672,2.209,0.0,0.0,2.1831,2.2053,2.2064,2.2375,2.2779,2.3271,2.3448,2.3437,2.3277,2.3259,2.3259,2.3223,2.256,2.2758,2.3696,2.2545,2.1906,2.1859,2.2379,2.1988,2.0644,2.0861,2.0576,1.9807,1.9668,1.9621,1.9621,1.9402,1.9599,2.0179,2.0035,2.0026,2.0246,2.0427,2.0249,1.9693,0.0,0.0,0.0,0.0,0.0,0.0,0.0,0.0,0.0,0.0,0.0,0.0,0.0,0.0,0.0,2.2067,0.0,2.4037,2.3407,0.0,0.0,0.0,2.4271,2.4566,2.5185,2.5643,2.568,0.0,0.0,0.0,0.0,2.6856,2.6961,2.6922,2.7204,2.8061,2.8139,2.844,2.9532,2.9684,3.0054,3.1362,3.259,3.4113,3.6054,3.7506,3.7887,3.7925,3.8064,3.8436,3.9138,3.9223,3.9397,4.0224,4.0068,3.9745,3.8374,3.7926,3.7496,3.6651,3.6406,3.6064,2.1671,2.1059,2.1409,2.1713,2.1915,2.1974,2.2029,2.2076,2.2004,2.1993,2.2051,2.188,2.1969,2.2238,2.2686,2.277,2.2662,2.3146,2.335,2.3361,2.3534,2.3694,2.3806,2.3847,2.3847,2.3806,2.3806,2.3806,2.3806,2.3593,2.3666,2.4009,2.3037,2.2882,2.3589,2.2681,2.1977,2.1581,2.1031,2.042,1.9685,1.9707,1.9738,1.9751,1.9495,1.9472,1.9693,2.057,2.0679,2.0012,2.1522,2.1456,1.9369,1.9561,0.0,0.0,0.0,0.0,0.0,0.0,0.0,0.0,0.0,1.9688,1.9044,0.0,2.182,0.0,2.3775,2.4675,2.4297,2.5178,0.0,0.0,2.6055,2.6218,2.6278,2.5937,2.5673,2.5615,2.5602,2.5899,2.6644,2.6733,2.7175,2.8348,2.8055,2.8012,2.8788,2.893,2.9455,3.0918,3.1751,3.2753,3.4017,3.4666,3.5314,3.6536,3.7383,3.8089,3.8693,3.9303,3.9733,3.9934,3.9919,3.9977,4.0214,4.0099,3.9934,3.9605,3.9042,3.829,3.749,3.7205,3.6681,2.1769,2.1333,2.1747,2.2053,2.2303,2.2206,2.2289,2.2459,2.2652,2.2768,2.2857,2.2972,2.3033,2.3045,2.3282,2.3437,2.3522,2.3774,2.3917,2.3986,2.4046,2.4094,2.4094,2.4084,2.4036,2.3958,2.4075,2.4095,2.4027,2.4069,2.4173,2.4275,2.3796,2.3814,2.4273,2.3105,2.2325,2.1933,2.0812,2.0041,1.9633,1.9732,1.9869,1.9948,1.9575,1.9674,2.0276,2.049,2.0521,2.0365,2.1306,2.117,1.9737,1.9662,1.9503,0.0,0.0,0.0,0.0,0.0,0.0,0.0,0.0,0.0,0.0,0.0,2.2843,0.0,0.0,0.0,2.4343,2.5158,2.5682,2.5687,2.6057,2.6323,2.6348,2.5964,2.5639,2.5605,2.5547,2.5952,2.7066,2.7217,2.7827,2.9419,2.9297,2.9186,2.962,2.9938,3.0671,3.2039,3.2979,3.3961,3.5296,3.572,3.6161,3.698,3.7748,3.8522,3.9308,3.9776,4.0194,4.0577,4.0335,4.0179,4.0567,4.0236,3.9941,3.9918,3.9616,3.8867,3.7756,3.7409,3.6824,2.1549,2.1469,2.1582,2.1807,2.2077,2.1936,2.2065,2.2399,2.2743,2.306,2.3371,2.3613,2.3732,2.3732,2.3732,2.3813,2.3915,2.3896,2.3958,2.4094,2.4094,2.4103,2.4113,2.4161,2.4094,2.3919,2.4182,2.4238,2.4051,2.4256,2.4381,2.4407,2.4402,2.4383,2.4361,2.3457,2.2533,2.167,2.0453,1.9796,1.9743,1.9862,2.0038,2.023,1.963,1.9855,2.0989,2.0209,2.0045,2.071,2.0562,2.0423,2.0388,1.9865,1.997,0.0,2.0497,0.0,0.0,0.0,0.0,0.0,0.0,0.0,0.0,2.2649,2.3327,2.4365,2.447,2.4516,2.4625,2.4645,2.4691,2.4821,2.5388,2.5801,2.5843,2.5786,2.5751,2.5744,2.5721,2.6324,2.7783,2.8037,2.8626,2.9928,3.0177,3.0139,3.0305,3.0858,3.1668,3.2781,3.3663,3.4501,3.5177,3.5916,3.6667,3.7443,3.8194,3.9039,3.9724,3.9873,4.016,4.0796,4.0412,4.019,4.0978,4.0401,3.9919,3.99,3.9873,3.9351,3.8012,3.7662,3.6949,2.0222,1.9622,2.0412,2.0829,2.0943,2.1118,2.1805,2.2782,2.2863,2.299,2.3168,2.3319,2.3407,2.3389,2.3394,2.3417,2.344,2.3375,2.3414,2.3544,2.3544,2.3599,2.3742,2.3931,2.4011,2.4001,2.4256,2.4355,2.4328,2.4266,2.4293,2.4389,2.3681,2.3681,2.4278,0.0,0.0,0.0,2.0304,2.0511,2.0493,2.0555,2.0622,2.0677,1.9822,0.0,1.99,2.0175,2.0067,1.9606,2.0589,0.0,0.0,0.0,0.0,0.0,0.0,0.0,0.0,0.0,0.0,0.0,2.4822,2.4222,2.2872,2.3503,2.4375,2.5264,2.5343,2.5659,2.6419,2.6443,2.6699,2.7416,2.7039,2.6732,2.6681,2.6583,2.655,2.6502,2.7022,2.775,2.8587,2.8796,2.9149,3.0028,3.0176,3.014,3.0197,3.0913,3.1962,3.341,3.4345,3.4933,3.5096,3.5807,3.6616,3.7317,3.8152,3.8976,3.9702,3.99,3.99,4.0217,4.0025,3.9938,4.0179,4.0006,3.99,3.99,3.99,3.9553,3.8475,3.8719,3.8592,1.9471,0.0,1.9504,1.9971,0.0,2.0448,2.0997,2.2008,2.2388,2.2734,2.3096,2.3271,2.3342,2.3353,2.3422,2.3439,2.3439,2.3421,2.3426,2.3511,2.3482,2.3544,2.3599,2.3801,2.3878,2.3798,2.4107,2.4211,2.4155,2.4201,2.4275,2.4356,2.3878,2.3878,2.4301,2.3201,2.1815,2.0159,2.0184,2.0198,2.0166,2.0269,2.0544,2.1008,0.0,0.0,0.0,0.0,0.0,0.0,0.0,0.0,0.0,0.0,0.0,2.3961,2.4053,2.4458,2.533,2.5282,2.5263,2.539,2.5501,2.5188,2.4259,2.4667,2.517,2.5601,2.5643,2.584,2.6287,2.6324,2.6491,2.6879,2.6575,2.6281,2.6251,2.6528,2.6742,2.6782,2.7417,2.8181,2.8893,2.8995,2.9302,3.0035,3.0479,3.0814,3.1135,3.1236,3.1906,3.3562,3.4896,3.5628,3.5704,3.6302,3.7068,3.7874,3.8424,3.9001,3.9767,3.99,4.0033,4.0393,4.0222,4.0014,4.0412,4.0203,3.99,3.99,3.99,3.9687,3.8982,3.8937,3.8592,1.8796,1.9038,1.8744,1.9123,1.9979,1.9684,2.0036,2.0862,0.0,0.0,0.0,2.3063,2.3177,2.3236,2.3335,2.3403,2.3484,2.3461,2.3444,2.3484,2.3466,2.3495,2.3529,2.3671,2.3689,2.3598,2.3901,2.4019,2.3909,2.4125,2.422,2.422,2.422,2.4174,2.4063,2.3574,2.2584,2.1211,2.062,2.0326,2.0273,2.0367,2.0801,2.1616,2.1012,2.1222,2.2358,2.1606,2.1313,2.1614,2.166,2.1778,2.2033,2.2993,2.3981,2.49,2.5138,2.5583,2.641,2.5876,2.5528,2.5606,2.5664,2.5682,2.5622,2.5661,2.5687,2.5687,2.5706,2.5705,2.5704,2.5679,2.5663,2.5602,2.5593,2.5563,2.555,2.6362,2.6942,2.7002,2.7816,2.8555,2.9142,2.9245,2.9486,3.0198,3.0836,3.1534,3.2169,3.2188,3.2605,3.4111,3.5211,3.5979,3.6434,3.6908,3.7723,3.8462,3.8803,3.9153,3.9692,3.99,4.0184,4.0696,4.0431,4.0431,4.079,4.0525,4.0089,3.9938,3.9878,3.9747,3.9408,3.8952,3.8332,1.7733,1.778,1.8143,1.82,1.813,1.8518,1.9207,2.0128,2.1152,2.1746,2.2001,2.2139,2.2371,2.2617,2.2529,2.2682,2.299,2.2871,2.2889,0.0,2.2985,2.3047,2.3187,2.3427,2.3533,2.3551,2.3793,2.3905,2.3913,2.3925,2.3963,2.3963,2.3953,2.373,2.3295,2.3275,2.2913,2.2145,2.263,2.2865,2.2865,2.2762,2.2781,2.2883,2.2168,2.1861,2.2052,2.1972,2.1933,2.2111,2.2757,2.3509,2.4338,2.4739,2.5608,2.7052,2.6747,2.6551,2.6722,2.6676,2.6378,2.5762,2.569,2.5702,2.5693,2.569,2.5687,2.5707,2.5698,2.5692,2.569,2.5658,2.5622,2.5607,2.5537,2.5489,2.546,2.6773,2.7672,2.7691,2.9107,2.9958,2.9953,2.9976,3.0207,3.0842,3.1284,3.1581,3.252,3.3581,3.4699,3.5476,3.5363,3.5761,3.6917,3.7325,3.7893,3.8557,3.9286,3.9673,3.9843,3.99,3.9976,4.0071,4.0544,4.0715,4.0336,4.0658,4.0563,4.0086,3.977,3.963,3.9502,3.9246,3.8939,1.7047,1.7164,1.6863,1.7211,1.8002,1.864,1.8989,1.9302,2.0267,2.1055,2.163,2.1825,2.1967,2.2139,2.2248,2.2399,2.2594,2.2734,2.2855,2.2906,2.2982,2.3028,2.3119,2.3301,2.3388,2.3417,2.358,2.3667,2.3678,2.3678,2.3678,2.3696,2.3678,2.3645,2.3611,2.3658,2.3608,2.3444,2.303,2.2809,2.2809,2.2742,2.2891,2.3265,2.293,2.3183,2.3979,2.4081,2.4345,2.4892,2.499,2.526,2.5738,2.5927,2.6367,2.708,2.6904,2.6773,2.6828,2.6472,2.6092,2.5755,2.5702,2.5687,2.5705,2.5705,2.5705,2.5704,2.5697,2.5687,2.5652,2.5622,2.5582,2.5489,2.546,2.5422,2.5532,2.6868,2.7874,2.8035,2.9365,3.0349,3.0253,3.0232,3.0467,3.1162,3.1891,3.2804,3.36,3.4377,3.5022,3.5438,3.5893,3.6756,3.7874,3.849,3.8888,3.9323,3.9635,3.9862,3.99,3.99,3.99,3.9938,4.0601,4.0772,4.0089,4.0601,4.0643,3.9992,3.9689,3.9551,3.9337,3.9036,3.8766,1.6595,1.6798,1.6107,1.6663,1.7934,1.8431,1.8599,1.8666,1.9433,2.0321,2.1182,2.1385,2.154,2.166,2.1905,2.2105,2.2261,2.2554,2.2734,2.2786,2.2871,2.2965,2.3015,2.3139,2.3217,2.3229,2.3366,2.3407,2.3407,2.3424,2.3407,2.3407,2.3448,2.3605,2.3947,2.3986,2.4144,2.4359,2.337,2.282,2.282,2.2834,2.3113,2.3632,2.3699,2.4254,2.5406,2.5614,2.6098,2.6934,2.6645,2.6573,2.6838,2.6769,2.6722,2.6742,2.6618,2.6564,2.6593,2.6053,2.5695,2.5704,2.5692,2.5697,2.5703,2.5699,2.5695,2.5689,2.5667,2.5651,2.5579,2.5556,2.5499,2.541,2.5385,2.5465,2.5687,2.6965,2.7989,2.8233,2.9483,3.0336,3.0318,3.0392,3.0886,3.1882,3.3067,3.4169,3.4775,3.5022,3.5192,3.542,3.631,3.742,3.8481,3.9115,3.954,3.9805,3.9881,3.99,3.99,3.99,3.99,3.9976,4.0601,4.0711,4.014,4.0526,4.0597,3.9801,3.9477,3.9324,3.8942,3.86,3.835,1.6349,1.6586,1.6641,1.6882,1.7082,1.699,1.7553,1.849,1.8946,1.958,2.041,2.0426,2.073,2.1118,2.1212,2.1505,2.1982,2.207,2.2178,2.2358,2.2371,2.2514,2.2751,2.2881,2.2927,2.2957,2.3082,2.3156,2.3156,2.3156,2.3126,2.3156,2.3235,2.3474,2.3785,2.3945,2.4182,2.4564,2.4457,2.4391,2.4391,2.4462,2.4531,2.4579,2.4579,2.4636,2.489,2.4908,2.5456,2.6371,2.6549,2.7007,2.771,2.7203,2.681,2.6815,2.6162,2.5733,2.5796,2.5739,2.5705,2.5693,2.5696,2.5701,2.5699,2.5699,2.5684,2.5617,2.5607,2.5574,2.5509,2.546,2.5418,2.5389,2.5336,2.5581,2.6225,2.7211,2.8074,2.8835,2.9608,3.0279,3.0334,3.093,3.1893,3.3057,3.4017,3.4699,3.4908,3.5401,3.5799,3.5931,3.6272,3.6992,3.8205,3.8709,3.9037,3.9624,3.9851,3.9821,3.9791,3.9859,3.9889,3.9932,4.0579,4.0742,4.0179,4.0282,4.0503,3.9638,3.9178,3.8927,3.8572,3.8318,3.8136,1.5571,1.5982,1.5802,1.588,1.6257,1.7255,1.7923,1.832,1.9086,1.961,1.9909,1.994,2.0204,2.0614,2.0747,2.0991,2.1354,2.1597,2.1878,2.2178,2.2258,2.2443,2.2681,2.2751,2.279,2.2803,2.2919,2.2982,2.2995,2.307,2.3107,2.3107,2.3168,2.3348,2.3642,2.3724,2.4218,2.5087,2.5214,2.5527,2.5905,2.5174,2.4681,2.4764,2.5203,2.551,2.566,2.6172,2.6727,2.7163,2.6901,2.6912,2.7307,2.6553,2.6107,2.6093,2.5812,2.5629,2.5683,2.5691,2.5696,2.5689,2.5691,2.5699,2.5699,2.5699,2.5658,2.5562,2.5568,2.5553,2.5456,2.5397,2.5326,2.5279,2.5219,2.5324,2.5641,2.6464,2.7298,2.8191,2.8977,2.9914,3.0896,3.2046,3.2972,3.3722,3.4396,3.4889,3.4946,3.5211,3.5382,3.5467,3.5748,3.6532,3.7644,3.7848,3.8202,3.8773,3.9029,3.9067,3.9596,3.9826,3.9848,3.9728,4.0396,4.0513,3.9621,4.0064,4.0418,3.9486,3.884,3.8572,3.8285,3.8152,3.8052,1.4953,1.5585,1.5437,1.5593,1.6093,1.7624,1.8266,1.8345,1.921,1.9636,1.9708,1.9723,1.9851,2.0133,2.0342,2.053,2.0763,2.1071,2.1529,2.1993,2.2063,2.2327,2.2726,2.2674,2.2646,2.2659,2.2829,2.2902,2.297,2.3057,2.3107,2.3107,2.3107,2.3365,2.3799,2.3907,2.4566,2.5714,2.5959,2.6385,2.6866,2.597,2.5289,2.5139,2.5697,2.5959,2.586,2.6568,2.714,2.7436,2.6819,2.6581,2.6779,2.6052,2.5613,2.562,2.5639,2.5658,2.5699,2.5705,2.5692,2.5702,2.5687,2.5699,2.5697,2.5691,2.5617,2.5531,2.5535,2.5482,2.5389,2.5312,2.5259,2.5217,2.5143,2.5166,2.5467,2.6034,2.6855,2.7905,2.8644,2.9643,3.1472,3.2869,3.3739,3.4083,3.4548,3.4908,3.4965,3.5097,3.5249,3.4974,3.548,3.6136,3.6843,3.7162,3.7431,3.7762,3.8067,3.8277,3.9018,3.9335,3.9611,3.9432,4.009,4.0164,3.9426,3.9746,3.99,3.9084,3.8572,3.8334,3.8168,3.8083,3.8051,1.4788,1.5698,1.6199,1.6473,1.6904,1.7571,1.8074,1.8493,1.9143,1.9523,1.9672,1.9705,1.9708,1.9747,1.9973,2.0148,2.0339,2.0542,2.1091,2.1855,2.1743,2.2055,2.2849,2.2612,2.2518,2.2614,2.2781,2.2957,2.3065,2.3107,2.3107,2.3107,2.3142,2.3569,2.4349,2.471,2.5397,2.6465,2.6755,2.7,2.7208,2.7167,2.6743,2.6121,2.6064,2.5815,2.5158,2.5275,2.5823,2.6642,2.6058,2.6022,2.6689,2.6064,2.5617,2.5696,2.5689,2.5696,2.5696,2.5706,2.5696,2.5689,2.5701,2.5699,2.5697,2.5649,2.559,2.5522,2.5433,2.5374,2.5409,2.5297,2.5217,2.5201,2.5138,2.5417,2.6078,2.6078,2.7049,2.8289,2.8955,3.0091,3.2219,3.3208,3.4036,3.4567,3.487,3.4908,3.5003,3.5552,3.5571,3.52,3.5375,3.5883,3.6015,3.6156,3.6696,3.7064,3.7091,3.7267,3.7877,3.8407,3.8715,3.9012,3.9354,3.9373,3.9096,3.8877,3.8726,3.841,3.8399,3.8219,3.7816,3.7994,3.7907,1.4066,1.4745,1.5638,1.6173,1.6527,1.7417,1.8022,1.8417,1.8955,1.9325,1.9472,1.9505,1.9581,1.9723,1.9762,1.9975,2.03,2.0648,2.1217,2.1925,2.2473,2.2965,2.334,2.3175,2.3059,2.3048,2.2886,2.2893,2.3077,2.3107,2.3107,2.3212,2.3628,2.4161,2.4712,2.539,2.6319,2.7397,2.7698,2.8119,2.8697,2.88,2.8441,2.77,2.7132,2.6328,2.5122,2.5713,2.6048,2.5977,2.5722,2.5737,2.599,2.5776,2.562,2.5702,2.5658,2.564,2.5694,2.5701,2.5687,2.5703,2.5699,2.5699,2.5693,2.5647,2.5585,2.5515,2.5437,2.5565,2.589,2.5562,2.5145,2.5137,2.5101,2.5196,2.5392,2.5499,2.6127,2.7892,2.9726,3.1635,3.2383,3.3618,3.4548,3.4832,3.4908,3.4908,3.4946,3.5211,3.522,3.4912,3.4851,3.4903,3.4757,3.4895,3.5243,3.574,3.6025,3.6397,3.6901,3.7673,3.8115,3.8321,3.8577,3.8792,3.8584,3.8491,3.8216,3.8103,3.8105,3.7904,3.7317,3.7424,3.7335,1.4075,1.4507,1.5505,1.598,1.6167,1.7108,1.7767,1.8167,1.8649,1.903,1.9354,1.9409,1.9505,1.969,1.9723,1.9887,2.0242,2.0761,2.1483,2.2378,2.3093,2.3631,2.3934,2.3854,2.3613,2.3367,2.2925,2.2829,2.3055,2.3358,2.3488,2.3541,2.4329,2.4994,2.5498,2.6254,2.7193,2.8136,2.8554,2.9027,2.9636,2.9701,2.9325,2.8604,2.8026,2.711,2.5688,2.5996,2.6024,2.5661,2.5601,2.5601,2.5601,2.5596,2.5634,2.5684,2.5664,2.5642,2.5694,2.5701,2.5707,2.5703,2.5699,2.5695,2.5663,2.5607,2.5657,2.58,2.5835,2.6111,2.6638,2.637,2.5981,2.5913,2.5666,2.5589,2.5798,2.5379,2.6056,2.7951,3.0584,3.2269,3.2927,3.4074,3.4737,3.4908,3.4908,3.4908,3.4908,3.486,3.4811,3.4697,3.4473,3.4367,3.4272,3.4358,3.4445,3.4865,3.5036,3.5399,3.5993,3.6798,3.7421,3.7618,3.7868,3.8125,3.8172,3.81,3.7966,3.7828,3.7862,3.777,3.7268,3.6801,3.6783,1.4833,1.4997,1.6032,1.6107,1.5896,1.6698,1.7325,1.7828,1.8167,1.8684,1.9185,1.9317,1.9368,1.9612,1.9588,1.9785,2.0167,2.0716,2.1667,2.2894,2.3253,2.3791,2.4438,2.4425,2.4032,2.3422,2.2959,2.2812,2.2936,2.3823,2.4273,2.4435,2.519,2.599,2.6752,2.7284,2.8009,2.8762,2.9204,2.9523,2.9673,2.9701,2.9335,2.8619,2.8563,2.7944,2.6533,2.5953,2.5691,2.5612,2.5601,2.5601,2.5607,2.56,2.564,2.5687,2.5706,2.5702,2.5693,2.5706,2.5694,2.5687,2.5699,2.5667,2.5612,2.5644,2.5904,2.6404,2.6641,2.6951,2.7637,2.771,2.7602,2.7654,2.6854,2.6734,2.7014,2.6187,2.6058,2.8461,3.088,3.2634,3.3543,3.4245,3.4737,3.487,3.4908,3.4908,3.4898,3.482,3.4718,3.4604,3.4386,3.4161,3.4049,3.3959,3.4016,3.4103,3.4142,3.4365,3.504,3.5816,3.6527,3.6868,3.7554,3.78,3.7583,3.7521,3.7522,3.7435,3.7559,3.7451,3.7021,3.6555,3.6429,1.4186,1.4916,1.5248,1.5537,1.5805,1.6635,1.7222,1.7605,1.7948,1.8275,1.847,1.8502,1.8699,1.8964,1.9016,1.9561,2.0452,2.0741,2.1197,2.1908,2.2778,2.344,2.3846,2.4293,2.4164,2.3636,2.3526,2.3292,2.3237,2.4353,2.4822,2.4633,2.5773,2.6645,2.7182,2.8027,2.8772,2.9196,2.9511,2.9655,2.9701,2.9701,2.9596,2.9368,2.8503,2.7769,2.7459,2.679,2.6148,2.5637,2.5601,2.5601,2.561,2.5603,2.564,2.5687,2.5706,2.5702,2.5694,2.5707,2.5697,2.5689,2.5699,2.5682,2.5701,2.6097,2.6432,2.6777,2.7152,2.7822,2.8489,2.8695,2.8468,2.7809,2.7478,2.7358,2.7579,2.7592,2.8184,2.9317,3.0749,3.2103,3.3316,3.4055,3.4377,3.4775,3.4889,3.4908,3.4879,3.4761,3.4615,3.4506,3.4245,3.4036,3.3934,3.3881,3.3913,3.3939,3.3892,3.3798,3.4366,3.5055,3.5718,3.6375,3.7049,3.7334,3.7093,3.7077,3.7167,3.6845,3.6666,3.6558,3.6451,3.6343,3.6235,1.4174,1.5173,1.5198,1.5387,1.5776,1.6502,1.7068,1.7496,1.772,1.7899,1.7996,1.8018,1.8182,1.8478,1.8597,1.9209,2.0161,2.0296,2.0484,2.1062,2.2756,2.3578,2.3741,2.3944,2.4113,2.396,2.3901,2.3832,2.3783,2.5065,2.5612,2.5481,2.6555,2.7397,2.7741,2.8474,2.9064,2.9392,2.9607,2.9701,2.9701,2.9701,2.9738,2.9679,2.8996,2.8312,2.7846,2.7437,2.6773,2.5848,2.5601,2.5601,2.5607,2.5637,2.5652,2.5672,2.5695,2.5703,2.5691,2.5704,2.5692,2.5705,2.5699,2.5656,2.5746,2.6313,2.6827,2.7205,2.7883,2.8698,2.939,2.9583,2.9298,2.8791,2.8427,2.8077,2.791,2.8581,2.9501,3.033,3.1185,3.2255,3.3278,3.4055,3.4131,3.4491,3.4718,3.487,3.4821,3.4678,3.4498,3.4316,3.4099,3.3934,3.3847,3.382,3.382,3.3834,3.382,3.3771,3.3977,3.4745,3.545,3.6075,3.6744,3.7055,3.6934,3.7095,3.7149,3.656,3.6221,3.647,3.6666,3.6274,3.6094,1.4632,1.563,1.5625,1.5618,1.5806,1.6267,1.6794,1.738,1.7436,1.7517,1.7699,1.7748,1.7903,1.8156,1.8364,1.8906,1.9406,1.9841,2.014,2.0992,2.2744,2.4126,2.4256,2.3791,2.3848,2.4298,2.4153,2.4278,2.4617,2.5952,2.6616,2.6539,2.7346,2.8124,2.8368,2.8748,2.9082,2.9433,2.9617,2.9701,2.9701,2.9701,2.9719,2.9718,2.9672,2.8995,2.7909,2.7589,2.701,2.5834,2.5601,2.5601,2.5599,2.5658,2.5687,2.5693,2.5702,2.57,2.5688,2.5698,2.5702,2.5701,2.5808,2.5707,2.5826,2.6676,2.7456,2.7941,2.8703,2.9486,3.0135,3.0288,3.0244,3.0238,2.9536,2.8816,2.8147,2.9203,3.0185,3.1069,3.1943,3.271,3.3524,3.4301,3.415,3.4254,3.451,3.4735,3.4728,3.455,3.4328,3.4148,3.3985,3.39,3.3807,3.3807,3.3793,3.3726,3.3758,3.3735,3.3761,3.4459,3.5305,3.5915,3.6465,3.672,3.6827,3.6934,3.7041,3.6845,3.6774,3.6988,3.6845,3.6488,3.6167,1.3862,1.5547,1.4846,1.5198,1.6158,1.6036,1.6395,1.704,1.6943,1.6913,1.6878,1.7064,1.7314,1.7522,1.8165,1.8779,1.942,2.0121,2.0771,2.1458,2.308,2.4113,2.4281,2.3777,2.3814,2.4452,2.4582,2.4437,2.4375,2.628,2.6988,2.6648,2.754,2.8224,2.8591,2.8807,2.9158,2.955,2.9655,2.9701,2.9701,2.9701,2.9774,2.9821,2.8963,2.8286,2.7696,2.6788,2.6126,2.5698,2.5601,2.5601,2.5613,2.5658,2.569,2.5699,2.5702,2.5697,2.5688,2.5696,2.5701,2.5757,2.6101,2.6484,2.6516,2.7759,2.8507,2.8951,2.9544,3.0096,3.0346,3.0404,3.0386,3.0299,3.0018,2.9729,2.9518,2.9737,3.0452,3.1686,3.1204,3.2,3.3468,3.379,3.36,3.4245,3.4613,3.473,3.4634,3.4416,3.4154,3.4086,3.3978,3.3873,3.3807,3.3807,3.3766,3.3657,3.3647,3.3674,3.3815,3.4241,3.5141,3.5967,3.6504,3.6845,3.6649,3.6577,3.6702,3.7059,3.6613,3.647,3.697,3.6916,3.6542,1.3998,1.5643,1.5022,1.5311,1.612,1.607,1.6397,1.6923,1.6995,1.6704,1.6527,1.6962,1.7131,1.7113,1.7905,1.8654,1.935,2.0277,2.0902,2.1472,2.3063,2.4175,2.4528,2.4174,2.4254,2.4913,2.5152,2.5302,2.5552,2.6829,2.7223,2.7242,2.7727,2.8259,2.8676,2.8883,2.9198,2.9589,2.9701,2.9701,2.9701,2.9701,2.9792,2.9799,2.9032,2.865,2.8313,2.665,2.5601,2.5601,2.5601,2.5607,2.5615,2.5666,2.5693,2.5702,2.5703,2.5694,2.5706,2.5692,2.5692,2.5734,2.6148,2.6239,2.6419,2.746,2.8184,2.856,2.9357,2.9948,3.0327,3.0404,3.0362,3.0266,3.0232,3.0183,3.0091,2.9942,3.053,3.1223,3.1242,3.1166,3.3657,3.3193,3.3524,3.4103,3.4517,3.4574,3.455,3.4269,3.4061,3.3972,3.3939,3.3847,3.3807,3.3793,3.3698,3.3587,3.3415,3.347,3.4123,3.4418,3.5154,3.5988,3.6506,3.6809,3.6649,3.6667,3.7059,3.7059,3.6363,3.6399,3.7041,3.7274,3.6934,1.439,1.551,1.5477,1.5572,1.5768,1.6145,1.6486,1.7001,1.7088,1.6873,1.6597,1.7171,1.7124,1.68,1.7906,1.863,1.9201,2.0387,2.1064,2.193,2.3248,2.4525,2.528,2.4821,2.4869,2.5374,2.5751,2.6148,2.6545,2.7163,2.7524,2.7616,2.7904,2.8299,2.8652,2.8913,2.9222,2.9598,2.9701,2.9701,2.9701,2.9711,2.9774,2.9834,2.9742,2.9335,2.856,2.7055,2.5815,2.5757,2.5662,2.5609,2.5604,2.5657,2.5701,2.5696,2.5702,2.5688,2.5703,2.5701,2.5695,2.5723,2.5845,2.5806,2.6273,2.7172,2.8029,2.8569,2.8838,2.9692,3.0213,3.0386,3.0299,3.0206,3.0197,3.0161,3.0068,2.9964,3.0257,3.1099,3.125,3.1478,3.2482,3.3117,3.3629,3.4206,3.4463,3.4475,3.4393,3.4148,3.3972,3.3873,3.3834,3.382,3.3793,3.3793,3.3643,3.3502,3.3253,3.3417,3.4573,3.5033,3.5486,3.6024,3.647,3.6756,3.6845,3.7023,3.7381,3.7416,3.7006,3.722,3.7559,3.7488,3.7256,1.3309,1.4205,1.4155,1.4734,1.5547,1.5399,1.5922,1.6949,1.6382,1.6537,1.6816,1.693,1.6849,1.6782,1.8173,1.9037,1.9393,2.0801,2.2238,2.3827,2.428,2.518,2.5722,2.5397,2.5262,2.5479,2.5609,2.5872,2.6335,2.6988,2.7371,2.7587,2.7968,2.8304,2.8664,2.8929,2.9241,2.9626,2.9701,2.9701,2.9701,2.9711,2.9765,2.9861,2.9569,2.9032,2.8318,2.7236,2.665,2.6465,2.5984,2.5619,2.5617,2.5653,2.5694,2.5722,2.5739,2.5743,2.5732,2.5809,2.5706,2.5792,2.6673,2.747,2.749,2.856,2.9413,2.9865,3.0038,3.0059,3.0292,3.0266,3.0213,3.0169,3.0132,3.0068,2.9991,2.9905,3.0522,3.1318,3.1052,3.1204,3.3724,3.3014,3.3441,3.4183,3.4395,3.4367,3.4209,3.4023,3.3908,3.3807,3.3807,3.3807,3.378,3.3748,3.3658,3.3625,3.3402,3.3747,3.4895,3.5379,3.5703,3.6042,3.6381,3.6649,3.7023,3.7238,3.7541,3.7577,3.7595,3.7595,3.7595,3.7595,3.7577,1.3054,1.4116,1.4116,1.4571,1.5273,1.5469,1.6076,1.6868,1.6877,1.6886,1.7081,1.7097,1.6994,1.693,1.8382,1.9195,1.9778,2.1434,2.3127,2.4356,2.4879,2.5365,2.5905,2.591,2.5781,2.5933,2.6067,2.6231,2.6529,2.6893,2.7308,2.7542,2.7996,2.8391,2.8712,2.8986,2.9324,2.9608,2.9701,2.9701,2.9701,2.9701,2.9816,2.9821,2.9455,2.9052,2.9245,2.7679,2.7252,2.7073,2.632,2.5648,2.5653,2.5682,2.5699,2.5742,2.6145,2.6287,2.6352,2.6591,2.6673,2.6224,2.733,2.7488,2.7686,2.8529,2.9333,2.9692,2.9788,2.9892,3.0279,3.0279,3.0206,3.0161,3.0117,3.0038,2.994,2.9916,3.0143,3.0977,3.0806,3.1621,3.253,3.2731,3.344,3.4273,3.4248,3.4209,3.4161,3.3985,3.3887,3.3807,3.3807,3.3793,3.3734,3.372,3.3676,3.3746,3.3811,3.4485,3.5577,3.5738,3.5774,3.6292,3.6881,3.7077,3.7398,3.7577,3.7595,3.7595,3.7595,3.7595,3.7595,3.7595,3.7595,1.3143,1.434,1.4396,1.4589,1.5011,1.5651,1.6222,1.682,1.7397,1.7164,1.7097,1.7274,1.6934,1.7259,1.8339,1.9148,2.0298,2.1851,2.3589,2.4532,2.4934,2.5435,2.5885,2.6105,2.6266,2.6657,2.6623,2.674,2.6873,2.7119,2.7324,2.7585,2.8101,2.8482,2.8754,2.9104,2.9394,2.9626,2.9673,2.9701,2.9701,2.9692,2.9841,2.9961,2.9747,2.9603,2.9574,2.8362,2.7352,2.7789,2.6498,2.5921,2.5894,2.5906,2.5896,2.5974,2.6727,2.7126,2.7245,2.759,2.7659,2.7128,2.7749,2.7811,2.761,2.8163,2.8934,2.9269,2.9571,2.974,3.0278,3.0292,3.0213,3.015,3.0083,3.0003,2.994,2.9916,3.0048,3.0313,3.057,3.1252,3.2155,3.2685,3.353,3.4186,3.4132,3.4074,3.4011,3.3959,3.386,3.3807,3.3807,3.3703,3.3629,3.3924,3.3867,3.4054,3.4181,3.5077,3.6024,3.606,3.6203,3.6988,3.747,3.7559,3.7559,3.7577,3.7595,3.7595,3.7595,3.7595,3.7595,3.7595,3.7595,1.2745,1.3651,1.3614,1.4085,1.4864,1.5075,1.5518,1.5925,1.6235,1.6372,1.6725,1.6277,1.6474,1.705,1.7905,1.9387,2.1152,2.2737,2.3727,2.4592,2.5013,2.5495,2.6045,2.6206,2.64,2.6624,2.6691,2.6742,2.6858,2.7037,2.7338,2.7657,2.8142,2.852,2.8838,2.9163,2.9384,2.956,2.9645,2.9701,2.9701,2.9729,2.9874,3.0137,3.0052,2.9946,2.9443,2.8566,2.7672,2.7087,2.6178,2.6183,2.6491,2.6657,2.6777,2.6969,2.7586,2.8043,2.8062,2.8109,2.8055,2.8027,2.8524,2.8873,2.887,2.9325,2.9712,2.9925,3.0029,3.0139,3.0188,3.0192,3.0091,2.9996,2.9945,2.9921,2.9924,2.9953,3.0143,3.0522,3.0532,3.0698,3.177,3.2606,3.3184,3.3784,3.3969,3.3948,3.3895,3.3887,3.387,3.3825,3.3807,3.3647,3.3477,3.3948,3.4213,3.4513,3.4792,3.5453,3.6167,3.631,3.6702,3.7327,3.7595,3.7595,3.7595,3.7595,3.7595,3.7595,3.7595,3.7595,3.7595,3.7595,3.7595,1.2561,1.4157,1.3458,1.3982,1.5117,1.501,1.559,1.655,1.6376,1.6577,1.6718,1.6213,1.5962,1.6677,1.7737,1.9723,2.2067,2.3442,2.4242,2.4859,2.532,2.5717,2.6188,2.6277,2.6469,2.6641,2.6691,2.6775,2.6892,2.7086,2.7367,2.7742,2.8183,2.8582,2.8899,2.9174,2.9353,2.9492,2.9608,2.9701,2.9701,2.9756,2.9953,3.0157,3.0281,3.0028,2.9376,2.857,2.7717,2.6941,2.6121,2.603,2.6456,2.7167,2.7675,2.7825,2.8462,2.8898,2.8985,2.9096,2.9241,2.883,2.9366,2.9511,2.9478,2.9769,3.0354,3.0362,3.0374,3.0318,3.0206,3.0169,3.0098,3.0022,2.9948,2.9916,2.9916,2.9916,3.0191,3.06,3.0644,3.0978,3.1883,3.255,3.2907,3.3295,3.3715,3.3815,3.382,3.3825,3.3844,3.4211,3.4293,3.4331,3.4157,3.4366,3.4779,3.5057,3.5418,3.6078,3.6488,3.6738,3.7023,3.7488,3.7595,3.7595,3.7595,3.7595,3.7595,3.7595,3.7595,3.7595,3.7595,3.7595,3.7595,1.2483,1.4651,1.3423,1.3865,1.5169,1.4967,1.557,1.6721,1.667,1.6746,1.7056,1.6354,1.6063,1.6656,1.8183,2.0352,2.3081,2.4002,2.452,2.5095,2.5586,2.6007,2.6188,2.6348,2.6504,2.6657,2.6708,2.6792,2.6991,2.7214,2.7504,2.7869,2.8277,2.8607,2.894,2.9166,2.9353,2.9472,2.9617,2.9683,2.9756,2.9859,3.0042,3.0222,3.0337,3.01,2.941,2.8586,2.7757,2.6937,2.6248,2.5899,2.64,2.7539,2.8415,2.8834,2.9434,2.9692,2.989,3.0114,3.009,2.9641,3.0085,2.9932,2.9769,3.0008,3.0368,3.0324,3.0305,3.0299,3.0206,3.0171,3.0121,3.0053,2.9956,2.9916,2.9916,2.9907,2.9864,3.02,3.0508,3.0969,3.1595,3.216,3.2472,3.3093,3.3508,3.3808,3.3807,3.3807,3.3977,3.4609,3.4929,3.5102,3.5078,3.5008,3.543,3.5827,3.6167,3.6702,3.7023,3.7273,3.7381,3.7202,3.7595,3.7595,3.7595,3.7595,3.7595,3.7595,3.7595,3.7595,3.7595,3.7595,3.7595,1.2619,1.3907,1.319,1.3462,1.4329,1.4488,1.4787,1.5421,1.6104,1.6114,1.6301,1.6444,1.675,1.7539,1.9353,2.1317,2.2784,2.3681,2.441,2.5141,2.5642,2.6007,2.6206,2.6348,2.6504,2.6657,2.6708,2.6808,2.7023,2.7355,2.771,2.8061,2.8417,2.8785,2.8998,2.9188,2.9293,2.9373,2.9579,2.9766,2.987,2.9937,3.0121,3.0315,3.0399,3.0141,2.9437,2.8682,2.7882,2.6961,2.6188,2.6556,2.7695,2.8104,2.9173,3.0024,3.0604,3.0638,3.0566,3.0575,3.0559,3.0266,3.0407,3.0331,3.0194,3.0151,3.0349,3.0392,3.0292,3.0219,3.0178,3.0135,3.0053,2.9999,2.9932,2.9916,2.9907,2.9847,2.9822,2.9726,3.0021,3.0365,3.0845,3.1448,3.2027,3.2698,3.3269,3.3582,3.399,3.4119,3.4265,3.4914,3.559,3.5822,3.5864,3.5822,3.6004,3.6488,3.6684,3.7041,3.7148,3.7131,3.6595,3.6577,3.7077,3.7434,3.7345,3.7381,3.7523,3.7595,3.7595,3.7595,3.7595,3.7595,3.7595,1.3453,1.4597,1.3525,1.3928,1.5146,1.4894,1.5451,1.6444,1.65,1.667,1.6863,1.6826,1.7268,1.8297,1.9834,2.1337,2.2744,2.3729,2.4599,2.524,2.5733,2.599,2.6206,2.6348,2.6487,2.6657,2.6725,2.6825,2.7071,2.7417,2.7815,2.8246,2.8551,2.8839,2.9096,2.9238,2.9343,2.9453,2.9598,2.9775,2.9904,2.9984,3.0129,3.0367,3.0477,3.01,2.9537,2.9163,2.8206,2.7321,2.6895,2.7203,2.7793,2.8416,2.9465,2.9844,3.0539,3.0734,3.0706,3.0664,3.0602,3.0535,3.0463,3.0354,3.0336,3.0305,3.0273,3.0292,3.0245,3.0197,3.0161,3.0117,3.003,2.9948,2.9916,2.9916,2.9891,2.9805,2.9744,2.9617,2.9587,3.0104,3.0501,3.0886,3.1802,3.2917,3.3275,3.3403,3.4174,3.4959,3.51,3.5296,3.598,3.6589,3.6588,3.6559,3.6595,3.6827,3.6524,3.6827,3.6952,3.6792,3.6328,3.6185,3.6595,3.6863,3.697,3.7291,3.7559,3.7595,3.7595,3.7595,3.7595,3.7595,3.7595,1.4262,1.5154,1.3938,1.4421,1.5906,1.5374,1.6113,1.7562,1.7181,1.7295,1.7677,1.7585,1.8057,1.921,2.041,2.1708,2.3179,2.4142,2.4914,2.5467,2.5805,2.6008,2.6189,2.6331,2.6504,2.6708,2.6708,2.6825,2.7087,2.7461,2.7915,2.8344,2.8644,2.891,2.9138,2.927,2.9355,2.956,2.9682,2.9808,2.9924,3.003,3.019,3.0348,3.0419,3.0264,2.981,2.9474,2.8632,2.78,2.7802,2.7869,2.7812,2.8727,2.9619,3.0034,3.0563,3.0728,3.0675,3.063,3.0572,3.0501,3.0442,3.0386,3.0349,3.0292,3.0266,3.0259,3.0135,3.0125,3.0102,3.0061,2.998,2.994,2.9916,2.9916,2.9891,2.977,2.971,2.9654,2.976,3.0205,3.0519,3.0581,3.1464,3.2944,3.3353,3.3353,3.4215,3.5353,3.5787,3.5887,3.6537,3.7103,3.7111,3.7131,3.7238,3.7131,3.6827,3.6667,3.6809,3.6649,3.6256,3.6238,3.6238,3.6203,3.6256,3.6952,3.7595,3.7595,3.7595,3.7595,3.7595,3.7595,3.7595,1.4833,1.4864,1.4293,1.4623,1.5542,1.5679,1.6329,1.7356,1.7474,1.7654,1.7981,1.8319,1.9409,2.0764,2.1455,2.258,2.4345,2.4527,2.5048,2.5505,2.5824,2.6008,2.6206,2.6383,2.6521,2.6691,2.6691,2.6808,2.7104,2.7565,2.7897,2.8156,2.8651,2.8968,2.92,2.933,2.9472,2.9655,2.9783,2.9872,3.0007,3.0121,3.0285,3.0423,3.0506,3.0513,3.0559,2.9895,2.9219,2.8225,2.8395,2.8476,2.8457,2.9199,2.9964,3.0399,3.0567,3.0678,3.0626,3.0597,3.0567,3.0496,3.0436,3.0386,3.0362,3.0253,3.0226,3.0233,3.0087,3.0038,3.0022,2.9988,2.994,2.9916,2.9929,3.0009,2.9928,2.9699,2.9645,2.9661,2.9938,3.0364,3.0966,3.1146,3.1727,3.3146,3.394,3.3977,3.4522,3.5505,3.6149,3.658,3.7174,3.7522,3.7506,3.7523,3.7452,3.7327,3.7059,3.6827,3.6702,3.6417,3.5953,3.5846,3.5757,3.565,3.5739,3.6542,3.7184,3.7488,3.7595,3.7595,3.7595,3.7595,3.7595,1.4622,1.5341,1.516,1.5407,1.5919,1.599,1.6553,1.7329,1.7502,1.7855,1.8389,1.9286,2.0142,2.1048,2.2209,2.3033,2.4021,2.4693,2.5214,2.5621,2.5897,2.6063,2.6242,2.64,2.6504,2.6657,2.6708,2.6708,2.6858,2.7562,2.784,2.8161,2.8676,2.9019,2.9257,2.9423,2.9589,2.9701,2.9835,2.9932,3.0007,3.0163,3.0339,3.0463,3.0552,3.0607,3.0542,2.9901,2.9422,2.9148,2.9081,2.9062,2.9141,2.9824,3.0325,3.0679,3.0692,3.0653,3.0567,3.054,3.0525,3.0447,3.0373,3.033,3.0349,3.0225,3.0197,3.0142,3.0042,2.9964,3.0046,2.9972,2.9916,2.9899,2.9942,3.005,3.0066,2.987,3.0137,3.0387,3.0365,3.0495,3.1164,3.1806,3.2522,3.333,3.4032,3.466,3.5058,3.5466,3.6051,3.6584,3.714,3.7559,3.7542,3.7559,3.7577,3.7434,3.7255,3.7041,3.6738,3.5882,3.5489,3.5382,3.5328,3.5275,3.556,3.6256,3.6792,3.7202,3.747,3.7595,3.7595,3.7595,3.7595,1.495,1.5718,1.6078,1.6282,1.6436,1.6436,1.6827,1.7442,1.7707,1.8147,1.8903,1.9966,2.0693,2.13,2.2269,2.338,2.4017,2.4693,2.5332,2.5733,2.5972,2.6154,2.6314,2.6435,2.6504,2.6657,2.6708,2.6725,2.6971,2.7592,2.7908,2.8242,2.8663,2.906,2.9312,2.956,2.9701,2.9783,2.9857,2.9988,3.0066,3.0248,3.0378,3.0501,3.0582,3.0669,3.0641,3.0253,2.9845,2.9701,2.9687,2.9785,2.9941,3.0222,3.0647,3.0704,3.0639,3.0602,3.0525,3.0479,3.0453,3.0396,3.038,3.0343,3.0266,3.0204,3.0183,3.0135,3.0011,2.9948,3.0038,2.9948,2.9855,2.983,2.9779,2.9877,3.0236,3.0265,3.0775,3.1191,3.1187,3.1323,3.1764,3.2485,3.2963,3.3495,3.3807,3.4422,3.4944,3.5345,3.5768,3.6298,3.6782,3.7148,3.7452,3.7202,3.7059,3.7416,3.7274,3.7184,3.6756,3.5899,3.5311,3.5293,3.5204,3.4989,3.5168,3.5596,3.6292,3.7024,3.7291,3.7595,3.7595,3.7595,3.7595,1.604,1.5877,1.6832,1.7121,1.6899,1.6967,1.7146,1.7516,1.8008,1.8659,1.9407,2.0328,2.1098,2.1779,2.2666,2.3565,2.436,2.4851,2.5362,2.5862,2.6117,2.6261,2.6366,2.647,2.6573,2.6674,2.6758,2.694,2.7272,2.7707,2.8047,2.8381,2.8779,2.9127,2.9304,2.9569,2.9775,2.9895,2.9953,3.0056,3.0182,3.0352,3.0462,3.0525,3.0626,3.0728,3.0449,3.0403,3.0011,2.9726,3.0137,3.0156,2.9957,3.0383,3.0661,3.0667,3.0575,3.0521,3.0486,3.0436,3.0416,3.0385,3.0355,3.033,3.0286,3.0239,3.0169,3.0125,2.998,2.9924,2.9924,2.988,2.9813,2.9742,2.9689,2.9973,3.0356,3.0423,3.0849,3.1844,3.2299,3.2546,3.2803,3.3133,3.3495,3.377,3.3788,3.4202,3.4842,3.5107,3.5476,3.6161,3.6606,3.6609,3.6809,3.6559,3.656,3.7006,3.7095,3.6827,3.672,3.6221,3.5757,3.5418,3.4955,3.4598,3.4616,3.4758,3.565,3.6524,3.7274,3.7595,3.7595,3.7595,3.7595,1.5025,1.5731,1.6107,1.6422,1.6621,1.6659,1.6858,1.7263,1.7982,1.8837,1.9812,2.074,2.1625,2.245,2.3392,2.4153,2.4608,2.5397,2.5862,2.6063,2.626,2.6418,2.6539,2.659,2.6674,2.6859,2.6925,2.7101,2.7489,2.7865,2.8143,2.8458,2.8913,2.9198,2.9345,2.9569,2.9784,2.9876,2.9969,3.0059,3.0202,3.0378,3.0482,3.0486,3.0577,3.0443,3.0076,3.0061,2.9918,2.9726,3.0195,3.0195,3.0227,3.0707,3.066,3.0623,3.0528,3.0471,3.0433,3.0396,3.0404,3.0373,3.0349,3.0318,3.0299,3.0178,3.014,3.0087,2.9964,2.9924,2.9916,2.9813,2.9735,2.9653,2.9776,3.0317,3.0628,3.0448,3.0729,3.2237,3.3091,3.3146,3.333,3.3403,3.3697,3.3899,3.3927,3.4526,3.5181,3.4975,3.5101,3.5974,3.6465,3.6288,3.6164,3.5932,3.6111,3.6611,3.6434,3.6024,3.5971,3.6149,3.6024,3.5632,3.4883,3.4223,3.4491,3.4812,3.5293,3.6006,3.6952,3.7559,3.7595,3.7595,3.7595,1.469,1.5668,1.5693,1.6007,1.645,1.6513,1.6863,1.7618,1.8425,1.9376,2.0442,2.1444,2.2198,2.301,2.3866,2.467,2.4831,2.5492,2.599,2.6206,2.6401,2.6556,2.6657,2.6725,2.6792,2.6975,2.7136,2.7322,2.7783,2.8061,2.8394,2.8761,2.9082,2.9272,2.9434,2.9636,2.9834,2.9948,3.0034,3.0148,3.0273,3.0367,3.0332,3.0164,3.0098,3.0041,2.9677,2.9578,2.9707,2.9883,3.0097,3.0231,3.0627,3.0706,3.0639,3.0564,3.0487,3.0447,3.0402,3.039,3.0404,3.0398,3.0324,3.0299,3.0266,3.0169,3.0076,3.0022,2.9948,2.988,2.983,2.9735,2.9626,2.9561,2.9909,3.0461,3.0983,3.0809,3.147,3.2926,3.3495,3.3587,3.3642,3.3697,3.3788,3.3927,3.4063,3.4699,3.5202,3.479,3.4621,3.5454,3.5975,3.5722,3.5509,3.5317,3.562,3.6192,3.5911,3.5435,3.5757,3.6024,3.5935,3.5667,3.4561,3.3955,3.4543,3.4989,3.5489,3.6149,3.6988,3.7416,3.7559,3.7595,3.7595,1.5185,1.563,1.568,1.6032,1.6522,1.6759,1.7492,1.8718,1.9368,2.0275,2.1362,2.223,2.2812,2.3214,2.3866,2.4502,2.5091,2.557,2.5921,2.6242,2.6504,2.6641,2.6674,2.6725,2.6891,2.7054,2.726,2.7592,2.8088,2.8355,2.8719,2.9052,2.9209,2.9394,2.957,2.9763,2.9924,3.0007,3.0099,3.0221,3.0354,3.0297,3.0113,2.99,2.9744,2.9686,2.9555,2.9704,3.0078,3.0391,3.0721,3.0706,3.0708,3.0642,3.0568,3.0496,3.0431,3.0402,3.0423,3.0423,3.043,3.0438,3.0465,3.0336,3.0218,3.0147,3.0053,2.9975,2.9899,2.9805,2.9716,2.9617,2.9513,2.9702,2.9964,3.0577,3.1299,3.1837,3.2614,3.3366,3.3642,3.377,3.3752,3.3807,3.3793,3.3776,3.386,3.4044,3.4367,3.4024,3.4053,3.4792,3.5133,3.5031,3.4857,3.4745,3.5163,3.5753,3.5429,3.5079,3.5489,3.5667,3.5311,3.4775,3.383,3.3633,3.4276,3.5007,3.5739,3.6363,3.6595,3.7309,3.7488,3.7577,3.7631,1.4651,1.516,1.555,1.6245,1.7223,1.8253,1.8739,1.8863,1.9997,2.1152,2.2052,2.2494,2.3171,2.3824,2.4271,2.4784,2.5307,2.5793,2.6101,2.64,2.6573,2.6657,2.6725,2.6741,2.7005,2.7307,2.7565,2.7851,2.843,2.8713,2.892,2.9238,2.9272,2.9474,2.9699,2.9905,2.9984,3.0049,3.0148,3.028,3.0185,2.9979,2.987,2.9903,2.9533,2.9482,2.9561,3.0077,3.0351,3.0078,3.0584,3.0746,3.0704,3.0639,3.056,3.0433,3.0396,3.0404,3.05,3.0962,3.1001,3.0573,3.0707,3.0647,3.0407,3.0113,3.0022,2.9916,2.9822,2.9725,2.9608,2.9494,2.9375,2.9482,2.9924,3.0728,3.1458,3.2284,3.3054,3.3532,3.3807,3.3807,3.3807,3.3807,3.378,3.3661,3.369,3.3855,3.389,3.3671,3.3982,3.4777,3.4676,3.4697,3.4419,3.4274,3.4769,3.5155,3.4944,3.4882,3.5168,3.5168,3.465,3.4169,3.3687,3.3723,3.4062,3.4793,3.5471,3.5418,3.5667,3.6613,3.7381,3.7488,3.7595,1.4739,1.5261,1.5793,1.6768,1.8074,1.9544,1.9943,1.9918,2.1003,2.1982,2.2699,2.3119,2.365,2.4236,2.4655,2.5091,2.5607,2.5974,2.626,2.6401,2.6607,2.6691,2.6725,2.6841,2.7149,2.7489,2.7826,2.8134,2.8644,2.8905,2.9093,2.9291,2.9304,2.9551,2.9787,2.9953,3.0034,3.0114,3.0215,3.0305,3.0086,2.9709,2.9803,2.9885,2.9451,2.9316,2.959,3.0273,3.0176,3.0057,3.0676,3.0705,3.0661,3.0568,3.0491,3.0396,3.0404,3.0404,3.0481,3.0788,3.0733,3.0606,3.0711,3.0548,3.0338,3.0042,2.9929,2.983,2.9734,2.9644,2.9494,2.9345,2.9238,2.9127,2.9998,3.0846,3.1678,3.2504,3.3109,3.3642,3.3807,3.3807,3.3807,3.3807,3.3821,3.3771,3.3927,3.4251,3.4301,3.4172,3.4619,3.5372,3.4917,3.4499,3.4229,3.4054,3.4325,3.4776,3.4997,3.497,3.506,3.4882,3.4579,3.4222,3.3865,3.3901,3.3937,3.4418,3.4937,3.4954,3.5275,3.6292,3.7113,3.7398,3.7487,1.5286,1.5751,1.6426,1.7641,1.9078,2.057,2.119,2.1375,2.2191,2.2829,2.3354,2.3879,2.4282,2.4655,2.4974,2.5381,2.5809,2.617,2.6348,2.6418,2.6607,2.6725,2.6841,2.7005,2.7352,2.7666,2.7992,2.8347,2.8663,2.8934,2.9138,2.9293,2.9355,2.9561,2.9872,2.9996,3.0107,3.0221,3.0305,3.0359,3.0191,2.9781,2.9317,2.9419,2.9118,2.8867,2.9531,2.9902,3.0039,3.0518,3.0731,3.0682,3.0571,3.0487,3.0411,3.0396,3.0404,3.0404,3.0481,3.075,3.0611,3.0439,3.0303,3.0321,3.0209,3.0014,2.988,2.977,2.969,2.9523,2.9365,2.9238,2.9127,2.9446,3.019,3.087,3.1513,3.2467,3.3421,3.3807,3.3807,3.3807,3.3807,3.3825,3.3991,3.3935,3.4156,3.4553,3.5051,3.4975,3.5293,3.5951,3.5221,3.4662,3.4458,3.4269,3.4027,3.429,3.4693,3.5023,3.5096,3.4882,3.4561,3.4169,3.3758,3.3705,3.3794,3.4418,3.4883,3.4936,3.5382,3.6185,3.6756,3.7148,3.7555,1.5957,1.5885,1.7542,1.9148,2.057,2.1605,2.2306,2.2812,2.3413,2.3658,2.3788,2.4224,2.4655,2.4974,2.523,2.5626,2.6064,2.626,2.6453,2.6573,2.6691,2.6841,2.7005,2.7211,2.7545,2.7946,2.829,2.8552,2.8851,2.9055,2.9192,2.9314,2.9426,2.9716,2.9961,3.0078,3.0202,3.033,3.0373,3.0367,3.022,2.989,2.9509,2.982,2.9799,2.9722,3.0215,3.0566,3.0605,3.0743,3.0721,3.0645,3.0515,3.0433,3.0396,3.0404,3.0404,3.0404,3.0513,3.0738,3.0746,3.0598,3.051,3.0403,3.0269,3.0043,2.9857,2.9736,2.958,2.9395,2.9259,2.9138,2.9203,2.9774,3.0411,3.0925,3.1458,3.2577,3.3697,3.3807,3.3807,3.3807,3.3807,3.3908,3.411,3.431,3.4527,3.5046,3.6121,3.6422,3.6146,3.6407,3.5495,3.4975,3.4775,3.4393,3.4139,3.4076,3.4406,3.4754,3.5096,3.4561,3.4026,3.3883,3.3651,3.3705,3.4026,3.4757,3.5096,3.5043,3.5614,3.647,3.663,3.6914,3.7476,1.6418,1.656,1.8534,2.013,2.1356,2.2324,2.2979,2.3414,2.4036,2.4349,2.441,2.4695,2.4974,2.5266,2.5497,2.5832,2.6242,2.6349,2.6504,2.6657,2.6841,2.6973,2.7165,2.7441,2.7794,2.8183,2.8527,2.8809,2.8987,2.9123,2.9235,2.9334,2.957,2.9811,3.0011,3.0135,3.026,3.0398,3.0414,3.0286,3.0105,2.9683,3.01,3.0535,3.0474,3.043,3.0918,3.1172,3.082,3.0718,3.0653,3.0548,3.0456,3.0414,3.039,3.0404,3.0404,3.0404,3.0552,3.0733,3.0881,3.0628,3.0474,3.0278,3.0205,3.0017,3.0019,2.987,2.9481,2.927,2.916,2.9033,2.9407,2.9916,3.076,3.1476,3.2247,3.3238,3.3788,3.3807,3.3807,3.3807,3.3807,3.3825,3.4101,3.4727,3.4943,3.5707,3.6766,3.7549,3.7363,3.6997,3.6183,3.5601,3.5422,3.4857,3.4192,3.4177,3.4189,3.4378,3.4543,3.3955,3.3489,3.3616,3.3776,3.3937,3.4365,3.5025,3.5204,3.5132,3.5882,3.6774,3.679,3.6784,3.7284,1.696,1.7673,1.9414,2.0782,2.1828,2.2904,2.3392,2.358,2.4307,2.4811,2.5033,2.5146,2.5323,2.5513,2.5811,2.6119,2.6366,2.6556,2.6674,2.6808,2.7054,2.7214,2.7444,2.7739,2.8093,2.843,2.8767,2.8875,2.8987,2.9145,2.927,2.9375,2.9589,2.9845,3.0,3.0155,3.0305,3.0331,3.0262,3.0007,2.9676,2.9373,3.0219,3.0578,3.0605,3.0566,3.125,3.1406,3.0859,3.0689,3.0579,3.0487,3.0428,3.039,3.039,3.0404,3.0404,3.0379,3.0438,3.0606,3.0483,3.0273,3.0228,3.025,3.0269,3.0244,3.0255,3.0163,2.9755,2.9488,2.9391,2.9475,2.9879,3.0301,3.1219,3.2082,3.2963,3.3825,3.3954,3.399,3.4027,3.4027,3.4174,3.4137,3.4445,3.5052,3.5736,3.6555,3.7302,3.7863,3.808,3.7723,3.7122,3.662,3.603,3.5418,3.4635,3.4073,3.4033,3.4087,3.4115,3.4079,3.3955,3.3757,3.3901,3.4311,3.465,3.5186,3.5257,3.5453,3.6274,3.7095,3.6821,3.6882,3.7176,1.8161,1.9634,2.0051,2.1054,2.2409,2.3326,2.3732,2.3867,2.4634,2.5068,2.5243,2.5567,2.5772,2.5809,2.6155,2.6383,2.647,2.6708,2.6907,2.707,2.7293,2.7494,2.773,2.8024,2.843,2.8713,2.8917,2.8964,2.9055,2.9214,2.9355,2.9466,2.9801,3.0011,3.0142,3.0248,3.0333,3.0246,3.0003,2.9742,3.0033,2.9805,2.954,2.9729,2.9785,3.0273,3.0781,3.0918,3.0757,3.0614,3.0505,3.0447,3.0416,3.0404,3.0404,3.0404,3.0404,3.047,3.0541,3.0861,3.0832,3.0597,3.0673,3.0964,3.092,3.0846,3.0957,3.1236,3.0905,3.0614,3.0527,3.0638,3.0944,3.1292,3.1953,3.2687,3.3495,3.4192,3.4637,3.4692,3.4747,3.5055,3.5495,3.5477,3.5477,3.6076,3.6681,3.7433,3.7986,3.8383,3.8707,3.8315,3.7854,3.697,3.6121,3.5927,3.5263,3.4519,3.4037,3.4313,3.4558,3.4775,3.4633,3.4347,3.4561,3.5007,3.5328,3.565,3.5971,3.631,3.6916,3.7379,3.7068,3.6874,3.7079]}]]